<?xml version="1.0" encoding="UTF-8" standalone="no" ?>
<gpx xmlns="http://www.topografix.com/GPX/1/1" xmlns:xsi="http://www.w3.org/2001/XMLSchema-instance" xsi:schemaLocation="http://www.topografix.com/GPX/1/1 http://www.topografix.com/GPX/1/1/gpx.xsd" version="1.1" creator="VisuGPX - https://www.visugpx.com">
  <metadata>
    <name>Sarrant 2017-03-22</name>
    <desc><![CDATA[
]]></desc>
  </metadata>
  <trk>
    <name><![CDATA[Sarrant 2017-03-22]]></name>
    <trkseg>
      <trkpt lat="43.77421" lon="0.92915">
        <ele>130</ele>
        <time>2017-03-22T09:39:53.000Z</time>
      </trkpt>
      <trkpt lat="43.77421" lon="0.92912">
        <ele>130.1</ele>
        <time>2017-03-22T09:39:54.000Z</time>
      </trkpt>
      <trkpt lat="43.77414" lon="0.9291">
        <ele>125.2</ele>
        <time>2017-03-22T09:39:59.000Z</time>
      </trkpt>
      <trkpt lat="43.77411" lon="0.929">
        <ele>132.1</ele>
        <time>2017-03-22T09:40:39.000Z</time>
      </trkpt>
      <trkpt lat="43.77412" lon="0.92887">
        <ele>132.1</ele>
        <time>2017-03-22T09:40:47.000Z</time>
      </trkpt>
      <trkpt lat="43.77411" lon="0.92872">
        <ele>131.9</ele>
        <time>2017-03-22T09:40:52.000Z</time>
      </trkpt>
      <trkpt lat="43.77414" lon="0.92859">
        <ele>125.8</ele>
        <time>2017-03-22T09:40:56.000Z</time>
      </trkpt>
      <trkpt lat="43.77417" lon="0.92852">
        <ele>125.8</ele>
        <time>2017-03-22T09:40:58.000Z</time>
      </trkpt>
      <trkpt lat="43.77416" lon="0.92841">
        <ele>125.9</ele>
        <time>2017-03-22T09:41:0.000Z</time>
      </trkpt>
      <trkpt lat="43.77416" lon="0.92834">
        <ele>126</ele>
        <time>2017-03-22T09:41:2.000Z</time>
      </trkpt>
      <trkpt lat="43.7741" lon="0.92827">
        <ele>126.4</ele>
        <time>2017-03-22T09:41:4.000Z</time>
      </trkpt>
      <trkpt lat="43.7741" lon="0.92819">
        <ele>126.5</ele>
        <time>2017-03-22T09:41:8.000Z</time>
      </trkpt>
      <trkpt lat="43.77412" lon="0.92811">
        <ele>126.7</ele>
        <time>2017-03-22T09:41:12.000Z</time>
      </trkpt>
      <trkpt lat="43.77417" lon="0.928">
        <ele>126.8</ele>
        <time>2017-03-22T09:41:16.000Z</time>
      </trkpt>
      <trkpt lat="43.77414" lon="0.92787">
        <ele>127.2</ele>
        <time>2017-03-22T09:41:18.000Z</time>
      </trkpt>
      <trkpt lat="43.77417" lon="0.9278">
        <ele>127.3</ele>
        <time>2017-03-22T09:41:29.000Z</time>
      </trkpt>
      <trkpt lat="43.77417" lon="0.92767">
        <ele>127.6</ele>
        <time>2017-03-22T09:41:34.000Z</time>
      </trkpt>
      <trkpt lat="43.77418" lon="0.92757">
        <ele>127.9</ele>
        <time>2017-03-22T09:41:39.000Z</time>
      </trkpt>
      <trkpt lat="43.77419" lon="0.92746">
        <ele>128.3</ele>
        <time>2017-03-22T09:41:48.000Z</time>
      </trkpt>
      <trkpt lat="43.77421" lon="0.92732">
        <ele>132.5</ele>
        <time>2017-03-22T09:41:56.000Z</time>
      </trkpt>
      <trkpt lat="43.77424" lon="0.92719">
        <ele>132.4</ele>
        <time>2017-03-22T09:42:4.000Z</time>
      </trkpt>
      <trkpt lat="43.77427" lon="0.92707">
        <ele>132.5</ele>
        <time>2017-03-22T09:42:13.000Z</time>
      </trkpt>
      <trkpt lat="43.7743" lon="0.92694">
        <ele>132.4</ele>
        <time>2017-03-22T09:42:24.000Z</time>
      </trkpt>
      <trkpt lat="43.77434" lon="0.9268">
        <ele>132.8</ele>
        <time>2017-03-22T09:42:32.000Z</time>
      </trkpt>
      <trkpt lat="43.77435" lon="0.92667">
        <ele>133.2</ele>
        <time>2017-03-22T09:42:38.000Z</time>
      </trkpt>
      <trkpt lat="43.77439" lon="0.92655">
        <ele>133.8</ele>
        <time>2017-03-22T09:42:46.000Z</time>
      </trkpt>
      <trkpt lat="43.77434" lon="0.92642">
        <ele>133.9</ele>
        <time>2017-03-22T09:42:53.000Z</time>
      </trkpt>
      <trkpt lat="43.77433" lon="0.92628">
        <ele>134.2</ele>
        <time>2017-03-22T09:42:59.000Z</time>
      </trkpt>
      <trkpt lat="43.77432" lon="0.92615">
        <ele>134.6</ele>
        <time>2017-03-22T09:43:6.000Z</time>
      </trkpt>
      <trkpt lat="43.77433" lon="0.92603">
        <ele>134.5</ele>
        <time>2017-03-22T09:43:15.000Z</time>
      </trkpt>
      <trkpt lat="43.7743" lon="0.92591">
        <ele>135.1</ele>
        <time>2017-03-22T09:43:23.000Z</time>
      </trkpt>
      <trkpt lat="43.77427" lon="0.92579">
        <ele>135.9</ele>
        <time>2017-03-22T09:43:31.000Z</time>
      </trkpt>
      <trkpt lat="43.77427" lon="0.92565">
        <ele>136.5</ele>
        <time>2017-03-22T09:43:40.000Z</time>
      </trkpt>
      <trkpt lat="43.77428" lon="0.92553">
        <ele>136.9</ele>
        <time>2017-03-22T09:43:48.000Z</time>
      </trkpt>
      <trkpt lat="43.77428" lon="0.9254">
        <ele>137.4</ele>
        <time>2017-03-22T09:43:57.000Z</time>
      </trkpt>
      <trkpt lat="43.7743" lon="0.92526">
        <ele>138.1</ele>
        <time>2017-03-22T09:44:5.000Z</time>
      </trkpt>
      <trkpt lat="43.77433" lon="0.92514">
        <ele>138.8</ele>
        <time>2017-03-22T09:44:14.000Z</time>
      </trkpt>
      <trkpt lat="43.77434" lon="0.925">
        <ele>139.9</ele>
        <time>2017-03-22T09:44:24.000Z</time>
      </trkpt>
      <trkpt lat="43.77436" lon="0.92487">
        <ele>140.3</ele>
        <time>2017-03-22T09:44:31.000Z</time>
      </trkpt>
      <trkpt lat="43.77437" lon="0.92474">
        <ele>140.9</ele>
        <time>2017-03-22T09:44:39.000Z</time>
      </trkpt>
      <trkpt lat="43.77439" lon="0.92461">
        <ele>141.5</ele>
        <time>2017-03-22T09:44:47.000Z</time>
      </trkpt>
      <trkpt lat="43.77441" lon="0.92447">
        <ele>142</ele>
        <time>2017-03-22T09:44:56.000Z</time>
      </trkpt>
      <trkpt lat="43.77444" lon="0.92435">
        <ele>142.5</ele>
        <time>2017-03-22T09:45:4.000Z</time>
      </trkpt>
      <trkpt lat="43.77445" lon="0.92422">
        <ele>142.8</ele>
        <time>2017-03-22T09:45:12.000Z</time>
      </trkpt>
      <trkpt lat="43.7745" lon="0.92409">
        <ele>143.8</ele>
        <time>2017-03-22T09:45:23.000Z</time>
      </trkpt>
      <trkpt lat="43.77451" lon="0.92396">
        <ele>144.5</ele>
        <time>2017-03-22T09:45:31.000Z</time>
      </trkpt>
      <trkpt lat="43.77453" lon="0.92382">
        <ele>145</ele>
        <time>2017-03-22T09:45:39.000Z</time>
      </trkpt>
      <trkpt lat="43.77455" lon="0.9237">
        <ele>145.8</ele>
        <time>2017-03-22T09:45:47.000Z</time>
      </trkpt>
      <trkpt lat="43.77458" lon="0.92356">
        <ele>146.8</ele>
        <time>2017-03-22T09:45:56.000Z</time>
      </trkpt>
      <trkpt lat="43.77461" lon="0.92343">
        <ele>147.4</ele>
        <time>2017-03-22T09:46:4.000Z</time>
      </trkpt>
      <trkpt lat="43.77464" lon="0.9233">
        <ele>148</ele>
        <time>2017-03-22T09:46:12.000Z</time>
      </trkpt>
      <trkpt lat="43.77467" lon="0.92317">
        <ele>148.7</ele>
        <time>2017-03-22T09:46:21.000Z</time>
      </trkpt>
      <trkpt lat="43.77471" lon="0.92305">
        <ele>149.3</ele>
        <time>2017-03-22T09:46:29.000Z</time>
      </trkpt>
      <trkpt lat="43.77474" lon="0.92292">
        <ele>150.2</ele>
        <time>2017-03-22T09:46:37.000Z</time>
      </trkpt>
      <trkpt lat="43.77478" lon="0.92281">
        <ele>151.2</ele>
        <time>2017-03-22T09:46:46.000Z</time>
      </trkpt>
      <trkpt lat="43.77482" lon="0.92268">
        <ele>152.1</ele>
        <time>2017-03-22T09:46:55.000Z</time>
      </trkpt>
      <trkpt lat="43.77485" lon="0.92255">
        <ele>153.2</ele>
        <time>2017-03-22T09:47:4.000Z</time>
      </trkpt>
      <trkpt lat="43.77489" lon="0.92243">
        <ele>154.5</ele>
        <time>2017-03-22T09:47:13.000Z</time>
      </trkpt>
      <trkpt lat="43.77493" lon="0.92232">
        <ele>155.5</ele>
        <time>2017-03-22T09:47:21.000Z</time>
      </trkpt>
      <trkpt lat="43.77496" lon="0.9222">
        <ele>156.6</ele>
        <time>2017-03-22T09:47:29.000Z</time>
      </trkpt>
      <trkpt lat="43.77499" lon="0.92208">
        <ele>157.7</ele>
        <time>2017-03-22T09:47:37.000Z</time>
      </trkpt>
      <trkpt lat="43.77503" lon="0.92195">
        <ele>158.8</ele>
        <time>2017-03-22T09:47:45.000Z</time>
      </trkpt>
      <trkpt lat="43.77506" lon="0.92182">
        <ele>159.4</ele>
        <time>2017-03-22T09:47:53.000Z</time>
      </trkpt>
      <trkpt lat="43.77507" lon="0.92168">
        <ele>160.1</ele>
        <time>2017-03-22T09:48:2.000Z</time>
      </trkpt>
      <trkpt lat="43.77506" lon="0.92155">
        <ele>160.9</ele>
        <time>2017-03-22T09:48:11.000Z</time>
      </trkpt>
      <trkpt lat="43.77506" lon="0.92141">
        <ele>161.3</ele>
        <time>2017-03-22T09:48:20.000Z</time>
      </trkpt>
      <trkpt lat="43.77505" lon="0.92128">
        <ele>161.8</ele>
        <time>2017-03-22T09:48:28.000Z</time>
      </trkpt>
      <trkpt lat="43.77504" lon="0.92115">
        <ele>162.1</ele>
        <time>2017-03-22T09:48:38.000Z</time>
      </trkpt>
      <trkpt lat="43.77502" lon="0.92101">
        <ele>162.5</ele>
        <time>2017-03-22T09:48:47.000Z</time>
      </trkpt>
      <trkpt lat="43.775" lon="0.92088">
        <ele>162.5</ele>
        <time>2017-03-22T09:48:55.000Z</time>
      </trkpt>
      <trkpt lat="43.77498" lon="0.92075">
        <ele>162.5</ele>
        <time>2017-03-22T09:49:3.000Z</time>
      </trkpt>
      <trkpt lat="43.77495" lon="0.92062">
        <ele>162.6</ele>
        <time>2017-03-22T09:49:11.000Z</time>
      </trkpt>
      <trkpt lat="43.77491" lon="0.92049">
        <ele>162.7</ele>
        <time>2017-03-22T09:49:19.000Z</time>
      </trkpt>
      <trkpt lat="43.77489" lon="0.92035">
        <ele>162.9</ele>
        <time>2017-03-22T09:49:27.000Z</time>
      </trkpt>
      <trkpt lat="43.77487" lon="0.92022">
        <ele>163.1</ele>
        <time>2017-03-22T09:49:35.000Z</time>
      </trkpt>
      <trkpt lat="43.77485" lon="0.9201">
        <ele>163.2</ele>
        <time>2017-03-22T09:49:43.000Z</time>
      </trkpt>
      <trkpt lat="43.77483" lon="0.91996">
        <ele>163.6</ele>
        <time>2017-03-22T09:49:51.000Z</time>
      </trkpt>
      <trkpt lat="43.7748" lon="0.91984">
        <ele>163.6</ele>
        <time>2017-03-22T09:49:59.000Z</time>
      </trkpt>
      <trkpt lat="43.77479" lon="0.91972">
        <ele>163.5</ele>
        <time>2017-03-22T09:50:6.000Z</time>
      </trkpt>
      <trkpt lat="43.77477" lon="0.91959">
        <ele>163.7</ele>
        <time>2017-03-22T09:50:14.000Z</time>
      </trkpt>
      <trkpt lat="43.77476" lon="0.91946">
        <ele>163.6</ele>
        <time>2017-03-22T09:50:22.000Z</time>
      </trkpt>
      <trkpt lat="43.77476" lon="0.91933">
        <ele>163.9</ele>
        <time>2017-03-22T09:50:30.000Z</time>
      </trkpt>
      <trkpt lat="43.77475" lon="0.91918">
        <ele>164.1</ele>
        <time>2017-03-22T09:50:38.000Z</time>
      </trkpt>
      <trkpt lat="43.77472" lon="0.91905">
        <ele>164</ele>
        <time>2017-03-22T09:50:45.000Z</time>
      </trkpt>
      <trkpt lat="43.77473" lon="0.91891">
        <ele>163.9</ele>
        <time>2017-03-22T09:50:53.000Z</time>
      </trkpt>
      <trkpt lat="43.77472" lon="0.91878">
        <ele>163.9</ele>
        <time>2017-03-22T09:51:0.000Z</time>
      </trkpt>
      <trkpt lat="43.77473" lon="0.91865">
        <ele>163.6</ele>
        <time>2017-03-22T09:51:8.000Z</time>
      </trkpt>
      <trkpt lat="43.77474" lon="0.91852">
        <ele>163.4</ele>
        <time>2017-03-22T09:51:15.000Z</time>
      </trkpt>
      <trkpt lat="43.77473" lon="0.91839">
        <ele>163.3</ele>
        <time>2017-03-22T09:51:23.000Z</time>
      </trkpt>
      <trkpt lat="43.77471" lon="0.91822">
        <ele>162.8</ele>
        <time>2017-03-22T09:51:32.000Z</time>
      </trkpt>
      <trkpt lat="43.77471" lon="0.91809">
        <ele>163.1</ele>
        <time>2017-03-22T09:51:39.000Z</time>
      </trkpt>
      <trkpt lat="43.7747" lon="0.91796">
        <ele>163</ele>
        <time>2017-03-22T09:51:47.000Z</time>
      </trkpt>
      <trkpt lat="43.77469" lon="0.91783">
        <ele>163.4</ele>
        <time>2017-03-22T09:51:55.000Z</time>
      </trkpt>
      <trkpt lat="43.77468" lon="0.91768">
        <ele>163.8</ele>
        <time>2017-03-22T09:52:3.000Z</time>
      </trkpt>
      <trkpt lat="43.77467" lon="0.91755">
        <ele>164.1</ele>
        <time>2017-03-22T09:52:11.000Z</time>
      </trkpt>
      <trkpt lat="43.77466" lon="0.91741">
        <ele>163.9</ele>
        <time>2017-03-22T09:52:19.000Z</time>
      </trkpt>
      <trkpt lat="43.77465" lon="0.91727">
        <ele>164.1</ele>
        <time>2017-03-22T09:52:27.000Z</time>
      </trkpt>
      <trkpt lat="43.77464" lon="0.91714">
        <ele>164.2</ele>
        <time>2017-03-22T09:52:35.000Z</time>
      </trkpt>
      <trkpt lat="43.77463" lon="0.91701">
        <ele>164.5</ele>
        <time>2017-03-22T09:52:43.000Z</time>
      </trkpt>
      <trkpt lat="43.77462" lon="0.91687">
        <ele>165.1</ele>
        <time>2017-03-22T09:52:51.000Z</time>
      </trkpt>
      <trkpt lat="43.77461" lon="0.91674">
        <ele>165.4</ele>
        <time>2017-03-22T09:52:58.000Z</time>
      </trkpt>
      <trkpt lat="43.7746" lon="0.91662">
        <ele>165.8</ele>
        <time>2017-03-22T09:53:6.000Z</time>
      </trkpt>
      <trkpt lat="43.77459" lon="0.91648">
        <ele>166.3</ele>
        <time>2017-03-22T09:53:14.000Z</time>
      </trkpt>
      <trkpt lat="43.77457" lon="0.91635">
        <ele>166.2</ele>
        <time>2017-03-22T09:53:22.000Z</time>
      </trkpt>
      <trkpt lat="43.77456" lon="0.91622">
        <ele>166.6</ele>
        <time>2017-03-22T09:53:30.000Z</time>
      </trkpt>
      <trkpt lat="43.77455" lon="0.91608">
        <ele>167</ele>
        <time>2017-03-22T09:53:38.000Z</time>
      </trkpt>
      <trkpt lat="43.77454" lon="0.91595">
        <ele>167.7</ele>
        <time>2017-03-22T09:53:46.000Z</time>
      </trkpt>
      <trkpt lat="43.77453" lon="0.91582">
        <ele>168.4</ele>
        <time>2017-03-22T09:53:54.000Z</time>
      </trkpt>
      <trkpt lat="43.77451" lon="0.91568">
        <ele>168.9</ele>
        <time>2017-03-22T09:54:2.000Z</time>
      </trkpt>
      <trkpt lat="43.77451" lon="0.91554">
        <ele>169.6</ele>
        <time>2017-03-22T09:54:10.000Z</time>
      </trkpt>
      <trkpt lat="43.77451" lon="0.91541">
        <ele>170.1</ele>
        <time>2017-03-22T09:54:19.000Z</time>
      </trkpt>
      <trkpt lat="43.77451" lon="0.91528">
        <ele>171.1</ele>
        <time>2017-03-22T09:54:26.000Z</time>
      </trkpt>
      <trkpt lat="43.77451" lon="0.91515">
        <ele>171.6</ele>
        <time>2017-03-22T09:54:34.000Z</time>
      </trkpt>
      <trkpt lat="43.77451" lon="0.91501">
        <ele>172</ele>
        <time>2017-03-22T09:54:42.000Z</time>
      </trkpt>
      <trkpt lat="43.77452" lon="0.91488">
        <ele>172.5</ele>
        <time>2017-03-22T09:54:50.000Z</time>
      </trkpt>
      <trkpt lat="43.77452" lon="0.91474">
        <ele>173.4</ele>
        <time>2017-03-22T09:54:58.000Z</time>
      </trkpt>
      <trkpt lat="43.77452" lon="0.91462">
        <ele>173.7</ele>
        <time>2017-03-22T09:55:5.000Z</time>
      </trkpt>
      <trkpt lat="43.77452" lon="0.91449">
        <ele>174</ele>
        <time>2017-03-22T09:55:12.000Z</time>
      </trkpt>
      <trkpt lat="43.77451" lon="0.91437">
        <ele>174.5</ele>
        <time>2017-03-22T09:55:19.000Z</time>
      </trkpt>
      <trkpt lat="43.77449" lon="0.91424">
        <ele>175.1</ele>
        <time>2017-03-22T09:55:25.000Z</time>
      </trkpt>
      <trkpt lat="43.77448" lon="0.9141">
        <ele>175.8</ele>
        <time>2017-03-22T09:55:33.000Z</time>
      </trkpt>
      <trkpt lat="43.77448" lon="0.91397">
        <ele>176.7</ele>
        <time>2017-03-22T09:55:41.000Z</time>
      </trkpt>
      <trkpt lat="43.77446" lon="0.91384">
        <ele>177.3</ele>
        <time>2017-03-22T09:55:48.000Z</time>
      </trkpt>
      <trkpt lat="43.77442" lon="0.91371">
        <ele>178.2</ele>
        <time>2017-03-22T09:55:56.000Z</time>
      </trkpt>
      <trkpt lat="43.77438" lon="0.91358">
        <ele>178.6</ele>
        <time>2017-03-22T09:56:4.000Z</time>
      </trkpt>
      <trkpt lat="43.77434" lon="0.91346">
        <ele>179</ele>
        <time>2017-03-22T09:56:12.000Z</time>
      </trkpt>
      <trkpt lat="43.77429" lon="0.91334">
        <ele>179.5</ele>
        <time>2017-03-22T09:56:19.000Z</time>
      </trkpt>
      <trkpt lat="43.77424" lon="0.91322">
        <ele>180</ele>
        <time>2017-03-22T09:56:27.000Z</time>
      </trkpt>
      <trkpt lat="43.7742" lon="0.9131">
        <ele>180.6</ele>
        <time>2017-03-22T09:56:34.000Z</time>
      </trkpt>
      <trkpt lat="43.77415" lon="0.91297">
        <ele>181</ele>
        <time>2017-03-22T09:56:42.000Z</time>
      </trkpt>
      <trkpt lat="43.77411" lon="0.91286">
        <ele>181.4</ele>
        <time>2017-03-22T09:56:49.000Z</time>
      </trkpt>
      <trkpt lat="43.77407" lon="0.91274">
        <ele>181.4</ele>
        <time>2017-03-22T09:56:56.000Z</time>
      </trkpt>
      <trkpt lat="43.77404" lon="0.91262">
        <ele>182.4</ele>
        <time>2017-03-22T09:57:4.000Z</time>
      </trkpt>
      <trkpt lat="43.77399" lon="0.9125">
        <ele>182.2</ele>
        <time>2017-03-22T09:57:11.000Z</time>
      </trkpt>
      <trkpt lat="43.77395" lon="0.91238">
        <ele>181.7</ele>
        <time>2017-03-22T09:57:19.000Z</time>
      </trkpt>
      <trkpt lat="43.77392" lon="0.91225">
        <ele>182.1</ele>
        <time>2017-03-22T09:57:27.000Z</time>
      </trkpt>
      <trkpt lat="43.77389" lon="0.91212">
        <ele>182.1</ele>
        <time>2017-03-22T09:57:34.000Z</time>
      </trkpt>
      <trkpt lat="43.77385" lon="0.912">
        <ele>181.6</ele>
        <time>2017-03-22T09:57:42.000Z</time>
      </trkpt>
      <trkpt lat="43.77382" lon="0.91188">
        <ele>181.5</ele>
        <time>2017-03-22T09:57:49.000Z</time>
      </trkpt>
      <trkpt lat="43.77377" lon="0.91176">
        <ele>180.7</ele>
        <time>2017-03-22T09:57:56.000Z</time>
      </trkpt>
      <trkpt lat="43.77373" lon="0.91164">
        <ele>180.1</ele>
        <time>2017-03-22T09:58:3.000Z</time>
      </trkpt>
      <trkpt lat="43.77369" lon="0.91152">
        <ele>179.6</ele>
        <time>2017-03-22T09:58:10.000Z</time>
      </trkpt>
      <trkpt lat="43.77365" lon="0.9114">
        <ele>179.2</ele>
        <time>2017-03-22T09:58:17.000Z</time>
      </trkpt>
      <trkpt lat="43.77361" lon="0.91129">
        <ele>178.3</ele>
        <time>2017-03-22T09:58:24.000Z</time>
      </trkpt>
      <trkpt lat="43.77358" lon="0.91117">
        <ele>178</ele>
        <time>2017-03-22T09:58:31.000Z</time>
      </trkpt>
      <trkpt lat="43.77353" lon="0.91105">
        <ele>177.4</ele>
        <time>2017-03-22T09:58:38.000Z</time>
      </trkpt>
      <trkpt lat="43.7735" lon="0.91093">
        <ele>177.1</ele>
        <time>2017-03-22T09:58:45.000Z</time>
      </trkpt>
      <trkpt lat="43.77345" lon="0.9108">
        <ele>176.1</ele>
        <time>2017-03-22T09:58:52.000Z</time>
      </trkpt>
      <trkpt lat="43.7734" lon="0.91069">
        <ele>176.7</ele>
        <time>2017-03-22T09:58:59.000Z</time>
      </trkpt>
      <trkpt lat="43.77336" lon="0.91056">
        <ele>175.9</ele>
        <time>2017-03-22T09:59:6.000Z</time>
      </trkpt>
      <trkpt lat="43.77332" lon="0.91045">
        <ele>175.7</ele>
        <time>2017-03-22T09:59:12.000Z</time>
      </trkpt>
      <trkpt lat="43.77328" lon="0.91034">
        <ele>175.7</ele>
        <time>2017-03-22T09:59:19.000Z</time>
      </trkpt>
      <trkpt lat="43.77324" lon="0.91022">
        <ele>175.7</ele>
        <time>2017-03-22T09:59:26.000Z</time>
      </trkpt>
      <trkpt lat="43.77319" lon="0.91012">
        <ele>175.6</ele>
        <time>2017-03-22T09:59:33.000Z</time>
      </trkpt>
      <trkpt lat="43.77314" lon="0.91">
        <ele>175.9</ele>
        <time>2017-03-22T09:59:41.000Z</time>
      </trkpt>
      <trkpt lat="43.7731" lon="0.90987">
        <ele>176</ele>
        <time>2017-03-22T09:59:49.000Z</time>
      </trkpt>
      <trkpt lat="43.77306" lon="0.90975">
        <ele>176.5</ele>
        <time>2017-03-22T09:59:58.000Z</time>
      </trkpt>
      <trkpt lat="43.77303" lon="0.90962">
        <ele>176.7</ele>
        <time>2017-03-22T10:00:6.000Z</time>
      </trkpt>
      <trkpt lat="43.77301" lon="0.9095">
        <ele>176.8</ele>
        <time>2017-03-22T10:00:14.000Z</time>
      </trkpt>
      <trkpt lat="43.77304" lon="0.90936">
        <ele>176.9</ele>
        <time>2017-03-22T10:00:22.000Z</time>
      </trkpt>
      <trkpt lat="43.77307" lon="0.90924">
        <ele>177.3</ele>
        <time>2017-03-22T10:00:30.000Z</time>
      </trkpt>
      <trkpt lat="43.7731" lon="0.90911">
        <ele>177.1</ele>
        <time>2017-03-22T10:00:38.000Z</time>
      </trkpt>
      <trkpt lat="43.77313" lon="0.90898">
        <ele>177.1</ele>
        <time>2017-03-22T10:00:46.000Z</time>
      </trkpt>
      <trkpt lat="43.77316" lon="0.90885">
        <ele>177.1</ele>
        <time>2017-03-22T10:00:54.000Z</time>
      </trkpt>
      <trkpt lat="43.77318" lon="0.90872">
        <ele>176.8</ele>
        <time>2017-03-22T10:01:2.000Z</time>
      </trkpt>
      <trkpt lat="43.7732" lon="0.90859">
        <ele>176.2</ele>
        <time>2017-03-22T10:01:10.000Z</time>
      </trkpt>
      <trkpt lat="43.77323" lon="0.90845">
        <ele>175.6</ele>
        <time>2017-03-22T10:01:18.000Z</time>
      </trkpt>
      <trkpt lat="43.77326" lon="0.90832">
        <ele>175.7</ele>
        <time>2017-03-22T10:01:26.000Z</time>
      </trkpt>
      <trkpt lat="43.77328" lon="0.90819">
        <ele>175</ele>
        <time>2017-03-22T10:01:34.000Z</time>
      </trkpt>
      <trkpt lat="43.7733" lon="0.90805">
        <ele>174.1</ele>
        <time>2017-03-22T10:01:42.000Z</time>
      </trkpt>
      <trkpt lat="43.77332" lon="0.90793">
        <ele>173.8</ele>
        <time>2017-03-22T10:01:49.000Z</time>
      </trkpt>
      <trkpt lat="43.77334" lon="0.90779">
        <ele>173.7</ele>
        <time>2017-03-22T10:01:57.000Z</time>
      </trkpt>
      <trkpt lat="43.77336" lon="0.90766">
        <ele>173</ele>
        <time>2017-03-22T10:02:5.000Z</time>
      </trkpt>
      <trkpt lat="43.77339" lon="0.90754">
        <ele>172.5</ele>
        <time>2017-03-22T10:02:13.000Z</time>
      </trkpt>
      <trkpt lat="43.77342" lon="0.90741">
        <ele>172.3</ele>
        <time>2017-03-22T10:02:21.000Z</time>
      </trkpt>
      <trkpt lat="43.77344" lon="0.90727">
        <ele>171.5</ele>
        <time>2017-03-22T10:02:29.000Z</time>
      </trkpt>
      <trkpt lat="43.77346" lon="0.90714">
        <ele>170.7</ele>
        <time>2017-03-22T10:02:37.000Z</time>
      </trkpt>
      <trkpt lat="43.77348" lon="0.907">
        <ele>170.5</ele>
        <time>2017-03-22T10:02:45.000Z</time>
      </trkpt>
      <trkpt lat="43.7735" lon="0.90687">
        <ele>170.6</ele>
        <time>2017-03-22T10:02:53.000Z</time>
      </trkpt>
      <trkpt lat="43.77351" lon="0.90675">
        <ele>170</ele>
        <time>2017-03-22T10:03:0.000Z</time>
      </trkpt>
      <trkpt lat="43.77353" lon="0.90663">
        <ele>169.6</ele>
        <time>2017-03-22T10:03:8.000Z</time>
      </trkpt>
      <trkpt lat="43.77356" lon="0.9065">
        <ele>168.9</ele>
        <time>2017-03-22T10:03:15.000Z</time>
      </trkpt>
      <trkpt lat="43.77358" lon="0.90637">
        <ele>167.7</ele>
        <time>2017-03-22T10:03:24.000Z</time>
      </trkpt>
      <trkpt lat="43.7736" lon="0.90624">
        <ele>167.3</ele>
        <time>2017-03-22T10:03:31.000Z</time>
      </trkpt>
      <trkpt lat="43.77361" lon="0.90611">
        <ele>166.9</ele>
        <time>2017-03-22T10:03:39.000Z</time>
      </trkpt>
      <trkpt lat="43.77362" lon="0.90598">
        <ele>166.4</ele>
        <time>2017-03-22T10:03:47.000Z</time>
      </trkpt>
      <trkpt lat="43.77364" lon="0.90586">
        <ele>166.3</ele>
        <time>2017-03-22T10:03:54.000Z</time>
      </trkpt>
      <trkpt lat="43.77366" lon="0.90572">
        <ele>165.7</ele>
        <time>2017-03-22T10:04:2.000Z</time>
      </trkpt>
      <trkpt lat="43.77369" lon="0.9056">
        <ele>165.3</ele>
        <time>2017-03-22T10:04:10.000Z</time>
      </trkpt>
      <trkpt lat="43.77371" lon="0.90548">
        <ele>164.8</ele>
        <time>2017-03-22T10:04:17.000Z</time>
      </trkpt>
      <trkpt lat="43.77374" lon="0.90534">
        <ele>164.3</ele>
        <time>2017-03-22T10:04:24.000Z</time>
      </trkpt>
      <trkpt lat="43.77377" lon="0.90521">
        <ele>164.9</ele>
        <time>2017-03-22T10:04:31.000Z</time>
      </trkpt>
      <trkpt lat="43.77379" lon="0.90509">
        <ele>164.1</ele>
        <time>2017-03-22T10:04:39.000Z</time>
      </trkpt>
      <trkpt lat="43.77383" lon="0.90496">
        <ele>163.5</ele>
        <time>2017-03-22T10:04:46.000Z</time>
      </trkpt>
      <trkpt lat="43.77386" lon="0.90483">
        <ele>163.3</ele>
        <time>2017-03-22T10:04:54.000Z</time>
      </trkpt>
      <trkpt lat="43.77388" lon="0.90471">
        <ele>163.2</ele>
        <time>2017-03-22T10:05:1.000Z</time>
      </trkpt>
      <trkpt lat="43.77391" lon="0.90457">
        <ele>162.5</ele>
        <time>2017-03-22T10:05:9.000Z</time>
      </trkpt>
      <trkpt lat="43.77392" lon="0.90444">
        <ele>161.8</ele>
        <time>2017-03-22T10:05:17.000Z</time>
      </trkpt>
      <trkpt lat="43.77395" lon="0.90431">
        <ele>161.9</ele>
        <time>2017-03-22T10:05:25.000Z</time>
      </trkpt>
      <trkpt lat="43.77398" lon="0.90417">
        <ele>161.9</ele>
        <time>2017-03-22T10:05:33.000Z</time>
      </trkpt>
      <trkpt lat="43.774" lon="0.90403">
        <ele>161.7</ele>
        <time>2017-03-22T10:05:41.000Z</time>
      </trkpt>
      <trkpt lat="43.77403" lon="0.9039">
        <ele>161.7</ele>
        <time>2017-03-22T10:05:49.000Z</time>
      </trkpt>
      <trkpt lat="43.77406" lon="0.90376">
        <ele>161</ele>
        <time>2017-03-22T10:05:57.000Z</time>
      </trkpt>
      <trkpt lat="43.77408" lon="0.90363">
        <ele>160.9</ele>
        <time>2017-03-22T10:06:5.000Z</time>
      </trkpt>
      <trkpt lat="43.7741" lon="0.90349">
        <ele>160.7</ele>
        <time>2017-03-22T10:06:13.000Z</time>
      </trkpt>
      <trkpt lat="43.77412" lon="0.90336">
        <ele>160.7</ele>
        <time>2017-03-22T10:06:21.000Z</time>
      </trkpt>
      <trkpt lat="43.77414" lon="0.90322">
        <ele>160.2</ele>
        <time>2017-03-22T10:06:29.000Z</time>
      </trkpt>
      <trkpt lat="43.77417" lon="0.90308">
        <ele>159.9</ele>
        <time>2017-03-22T10:06:37.000Z</time>
      </trkpt>
      <trkpt lat="43.77419" lon="0.90296">
        <ele>159.8</ele>
        <time>2017-03-22T10:06:44.000Z</time>
      </trkpt>
      <trkpt lat="43.77421" lon="0.90283">
        <ele>159.4</ele>
        <time>2017-03-22T10:06:52.000Z</time>
      </trkpt>
      <trkpt lat="43.77424" lon="0.9027">
        <ele>159.9</ele>
        <time>2017-03-22T10:07:0.000Z</time>
      </trkpt>
      <trkpt lat="43.77426" lon="0.90257">
        <ele>159.7</ele>
        <time>2017-03-22T10:07:8.000Z</time>
      </trkpt>
      <trkpt lat="43.77428" lon="0.90245">
        <ele>159.5</ele>
        <time>2017-03-22T10:07:16.000Z</time>
      </trkpt>
      <trkpt lat="43.77431" lon="0.90232">
        <ele>159.3</ele>
        <time>2017-03-22T10:07:24.000Z</time>
      </trkpt>
      <trkpt lat="43.77433" lon="0.90218">
        <ele>159.2</ele>
        <time>2017-03-22T10:07:32.000Z</time>
      </trkpt>
      <trkpt lat="43.77435" lon="0.90206">
        <ele>159.3</ele>
        <time>2017-03-22T10:07:40.000Z</time>
      </trkpt>
      <trkpt lat="43.77437" lon="0.90193">
        <ele>159.3</ele>
        <time>2017-03-22T10:07:48.000Z</time>
      </trkpt>
      <trkpt lat="43.7744" lon="0.90179">
        <ele>159.1</ele>
        <time>2017-03-22T10:07:56.000Z</time>
      </trkpt>
      <trkpt lat="43.77441" lon="0.90165">
        <ele>159.2</ele>
        <time>2017-03-22T10:08:4.000Z</time>
      </trkpt>
      <trkpt lat="43.77444" lon="0.90152">
        <ele>159.9</ele>
        <time>2017-03-22T10:08:12.000Z</time>
      </trkpt>
      <trkpt lat="43.77445" lon="0.90139">
        <ele>159.6</ele>
        <time>2017-03-22T10:08:20.000Z</time>
      </trkpt>
      <trkpt lat="43.77447" lon="0.90127">
        <ele>158.6</ele>
        <time>2017-03-22T10:08:28.000Z</time>
      </trkpt>
      <trkpt lat="43.77449" lon="0.90115">
        <ele>157.9</ele>
        <time>2017-03-22T10:08:36.000Z</time>
      </trkpt>
      <trkpt lat="43.77452" lon="0.90102">
        <ele>157.3</ele>
        <time>2017-03-22T10:08:44.000Z</time>
      </trkpt>
      <trkpt lat="43.77453" lon="0.90088">
        <ele>156.9</ele>
        <time>2017-03-22T10:08:52.000Z</time>
      </trkpt>
      <trkpt lat="43.77456" lon="0.90076">
        <ele>156.7</ele>
        <time>2017-03-22T10:09:0.000Z</time>
      </trkpt>
      <trkpt lat="43.77456" lon="0.90062">
        <ele>156.3</ele>
        <time>2017-03-22T10:09:9.000Z</time>
      </trkpt>
      <trkpt lat="43.77455" lon="0.90048">
        <ele>155.7</ele>
        <time>2017-03-22T10:09:18.000Z</time>
      </trkpt>
      <trkpt lat="43.77454" lon="0.90036">
        <ele>155</ele>
        <time>2017-03-22T10:09:29.000Z</time>
      </trkpt>
      <trkpt lat="43.77453" lon="0.90023">
        <ele>154</ele>
        <time>2017-03-22T10:09:43.000Z</time>
      </trkpt>
      <trkpt lat="43.77446" lon="0.90032">
        <ele>147.9</ele>
        <time>2017-03-22T10:13:15.000Z</time>
      </trkpt>
      <trkpt lat="43.77446" lon="0.90044">
        <ele>148.2</ele>
        <time>2017-03-22T10:13:22.000Z</time>
      </trkpt>
      <trkpt lat="43.77446" lon="0.90057">
        <ele>148.6</ele>
        <time>2017-03-22T10:13:31.000Z</time>
      </trkpt>
      <trkpt lat="43.77446" lon="0.9007">
        <ele>149</ele>
        <time>2017-03-22T10:13:39.000Z</time>
      </trkpt>
      <trkpt lat="43.77455" lon="0.90077">
        <ele>149.7</ele>
        <time>2017-03-22T10:13:52.000Z</time>
      </trkpt>
      <trkpt lat="43.77453" lon="0.90071">
        <ele>157.6</ele>
        <time>2017-03-22T10:14:20.000Z</time>
      </trkpt>
      <trkpt lat="43.77457" lon="0.90076">
        <ele>157.5</ele>
        <time>2017-03-22T10:14:31.000Z</time>
      </trkpt>
      <trkpt lat="43.77468" lon="0.90077">
        <ele>157.4</ele>
        <time>2017-03-22T10:14:35.000Z</time>
      </trkpt>
      <trkpt lat="43.77482" lon="0.90076">
        <ele>157.2</ele>
        <time>2017-03-22T10:14:46.000Z</time>
      </trkpt>
      <trkpt lat="43.7749" lon="0.90084">
        <ele>157.1</ele>
        <time>2017-03-22T10:15:7.000Z</time>
      </trkpt>
      <trkpt lat="43.77499" lon="0.90088">
        <ele>156.7</ele>
        <time>2017-03-22T10:15:13.000Z</time>
      </trkpt>
      <trkpt lat="43.7751" lon="0.90091">
        <ele>154.2</ele>
        <time>2017-03-22T10:15:17.000Z</time>
      </trkpt>
      <trkpt lat="43.77522" lon="0.90094">
        <ele>151.5</ele>
        <time>2017-03-22T10:15:20.000Z</time>
      </trkpt>
      <trkpt lat="43.77532" lon="0.9011">
        <ele>148.5</ele>
        <time>2017-03-22T10:15:31.000Z</time>
      </trkpt>
      <trkpt lat="43.77525" lon="0.9014">
        <ele>148.3</ele>
        <time>2017-03-22T10:15:39.000Z</time>
      </trkpt>
      <trkpt lat="43.77523" lon="0.90151">
        <ele>147.9</ele>
        <time>2017-03-22T10:15:50.000Z</time>
      </trkpt>
      <trkpt lat="43.77521" lon="0.90165">
        <ele>147.5</ele>
        <time>2017-03-22T10:15:59.000Z</time>
      </trkpt>
      <trkpt lat="43.77521" lon="0.90175">
        <ele>147.2</ele>
        <time>2017-03-22T10:16:5.000Z</time>
      </trkpt>
      <trkpt lat="43.77523" lon="0.90204">
        <ele>145.7</ele>
        <time>2017-03-22T10:16:13.000Z</time>
      </trkpt>
      <trkpt lat="43.77523" lon="0.90223">
        <ele>144.9</ele>
        <time>2017-03-22T10:16:21.000Z</time>
      </trkpt>
      <trkpt lat="43.77523" lon="0.90239">
        <ele>144.3</ele>
        <time>2017-03-22T10:16:27.000Z</time>
      </trkpt>
      <trkpt lat="43.77522" lon="0.90262">
        <ele>144.1</ele>
        <time>2017-03-22T10:16:33.000Z</time>
      </trkpt>
      <trkpt lat="43.77517" lon="0.90277">
        <ele>144.3</ele>
        <time>2017-03-22T10:16:40.000Z</time>
      </trkpt>
      <trkpt lat="43.77516" lon="0.90288">
        <ele>144.3</ele>
        <time>2017-03-22T10:16:47.000Z</time>
      </trkpt>
      <trkpt lat="43.77511" lon="0.90313">
        <ele>144.1</ele>
        <time>2017-03-22T10:16:53.000Z</time>
      </trkpt>
      <trkpt lat="43.77508" lon="0.90339">
        <ele>144</ele>
        <time>2017-03-22T10:17:4.000Z</time>
      </trkpt>
      <trkpt lat="43.77503" lon="0.90363">
        <ele>145</ele>
        <time>2017-03-22T10:17:12.000Z</time>
      </trkpt>
      <trkpt lat="43.77498" lon="0.90377">
        <ele>145.7</ele>
        <time>2017-03-22T10:17:19.000Z</time>
      </trkpt>
      <trkpt lat="43.77496" lon="0.90384">
        <ele>146.4</ele>
        <time>2017-03-22T10:17:26.000Z</time>
      </trkpt>
      <trkpt lat="43.77494" lon="0.90392">
        <ele>147</ele>
        <time>2017-03-22T10:17:35.000Z</time>
      </trkpt>
      <trkpt lat="43.77488" lon="0.904">
        <ele>147.8</ele>
        <time>2017-03-22T10:17:44.000Z</time>
      </trkpt>
      <trkpt lat="43.77483" lon="0.90412">
        <ele>148.6</ele>
        <time>2017-03-22T10:17:51.000Z</time>
      </trkpt>
      <trkpt lat="43.7748" lon="0.90418">
        <ele>148.9</ele>
        <time>2017-03-22T10:17:59.000Z</time>
      </trkpt>
      <trkpt lat="43.77479" lon="0.90423">
        <ele>149.2</ele>
        <time>2017-03-22T10:18:7.000Z</time>
      </trkpt>
      <trkpt lat="43.77475" lon="0.9043">
        <ele>149.7</ele>
        <time>2017-03-22T10:18:14.000Z</time>
      </trkpt>
      <trkpt lat="43.77472" lon="0.90441">
        <ele>150.2</ele>
        <time>2017-03-22T10:18:20.000Z</time>
      </trkpt>
      <trkpt lat="43.77467" lon="0.90449">
        <ele>150.7</ele>
        <time>2017-03-22T10:18:27.000Z</time>
      </trkpt>
      <trkpt lat="43.77463" lon="0.90457">
        <ele>151.3</ele>
        <time>2017-03-22T10:18:35.000Z</time>
      </trkpt>
      <trkpt lat="43.77458" lon="0.90467">
        <ele>151.8</ele>
        <time>2017-03-22T10:18:42.000Z</time>
      </trkpt>
      <trkpt lat="43.77456" lon="0.90477">
        <ele>152.3</ele>
        <time>2017-03-22T10:18:48.000Z</time>
      </trkpt>
      <trkpt lat="43.7745" lon="0.90485">
        <ele>152.8</ele>
        <time>2017-03-22T10:18:55.000Z</time>
      </trkpt>
      <trkpt lat="43.77449" lon="0.90494">
        <ele>153.2</ele>
        <time>2017-03-22T10:19:3.000Z</time>
      </trkpt>
      <trkpt lat="43.77442" lon="0.90501">
        <ele>153.8</ele>
        <time>2017-03-22T10:19:11.000Z</time>
      </trkpt>
      <trkpt lat="43.77437" lon="0.90508">
        <ele>154.3</ele>
        <time>2017-03-22T10:19:17.000Z</time>
      </trkpt>
      <trkpt lat="43.77433" lon="0.90515">
        <ele>154.8</ele>
        <time>2017-03-22T10:19:23.000Z</time>
      </trkpt>
      <trkpt lat="43.77429" lon="0.90519">
        <ele>144.7</ele>
        <time>2017-03-22T10:19:36.000Z</time>
      </trkpt>
      <trkpt lat="43.77427" lon="0.90532">
        <ele>145.1</ele>
        <time>2017-03-22T10:19:44.000Z</time>
      </trkpt>
      <trkpt lat="43.77427" lon="0.90546">
        <ele>145.6</ele>
        <time>2017-03-22T10:19:54.000Z</time>
      </trkpt>
      <trkpt lat="43.77427" lon="0.90559">
        <ele>145.9</ele>
        <time>2017-03-22T10:20:3.000Z</time>
      </trkpt>
      <trkpt lat="43.77425" lon="0.90572">
        <ele>146</ele>
        <time>2017-03-22T10:20:11.000Z</time>
      </trkpt>
      <trkpt lat="43.77422" lon="0.90584">
        <ele>146</ele>
        <time>2017-03-22T10:20:17.000Z</time>
      </trkpt>
      <trkpt lat="43.77419" lon="0.90597">
        <ele>146</ele>
        <time>2017-03-22T10:20:25.000Z</time>
      </trkpt>
      <trkpt lat="43.77415" lon="0.90609">
        <ele>146.1</ele>
        <time>2017-03-22T10:20:33.000Z</time>
      </trkpt>
      <trkpt lat="43.77412" lon="0.90623">
        <ele>146.2</ele>
        <time>2017-03-22T10:20:41.000Z</time>
      </trkpt>
      <trkpt lat="43.77412" lon="0.90636">
        <ele>146.6</ele>
        <time>2017-03-22T10:20:50.000Z</time>
      </trkpt>
      <trkpt lat="43.77412" lon="0.9065">
        <ele>146.9</ele>
        <time>2017-03-22T10:20:58.000Z</time>
      </trkpt>
      <trkpt lat="43.77407" lon="0.90663">
        <ele>147.4</ele>
        <time>2017-03-22T10:21:6.000Z</time>
      </trkpt>
      <trkpt lat="43.77403" lon="0.90675">
        <ele>147.6</ele>
        <time>2017-03-22T10:21:14.000Z</time>
      </trkpt>
      <trkpt lat="43.77401" lon="0.90687">
        <ele>147.8</ele>
        <time>2017-03-22T10:21:23.000Z</time>
      </trkpt>
      <trkpt lat="43.774" lon="0.90701">
        <ele>147.7</ele>
        <time>2017-03-22T10:21:30.000Z</time>
      </trkpt>
      <trkpt lat="43.77398" lon="0.90713">
        <ele>147.4</ele>
        <time>2017-03-22T10:21:38.000Z</time>
      </trkpt>
      <trkpt lat="43.77395" lon="0.90727">
        <ele>146.9</ele>
        <time>2017-03-22T10:21:47.000Z</time>
      </trkpt>
      <trkpt lat="43.77389" lon="0.90738">
        <ele>146.6</ele>
        <time>2017-03-22T10:21:54.000Z</time>
      </trkpt>
      <trkpt lat="43.77386" lon="0.9075">
        <ele>146.3</ele>
        <time>2017-03-22T10:22:2.000Z</time>
      </trkpt>
      <trkpt lat="43.77383" lon="0.90763">
        <ele>146.2</ele>
        <time>2017-03-22T10:22:12.000Z</time>
      </trkpt>
      <trkpt lat="43.77382" lon="0.90777">
        <ele>146.1</ele>
        <time>2017-03-22T10:22:20.000Z</time>
      </trkpt>
      <trkpt lat="43.77382" lon="0.90789">
        <ele>144.5</ele>
        <time>2017-03-22T10:22:27.000Z</time>
      </trkpt>
      <trkpt lat="43.77387" lon="0.90804">
        <ele>144.6</ele>
        <time>2017-03-22T10:22:37.000Z</time>
      </trkpt>
      <trkpt lat="43.77388" lon="0.90817">
        <ele>144.6</ele>
        <time>2017-03-22T10:22:44.000Z</time>
      </trkpt>
      <trkpt lat="43.77399" lon="0.9082">
        <ele>144.5</ele>
        <time>2017-03-22T10:22:56.000Z</time>
      </trkpt>
      <trkpt lat="43.77408" lon="0.90818">
        <ele>144.4</ele>
        <time>2017-03-22T10:23:1.000Z</time>
      </trkpt>
      <trkpt lat="43.77417" lon="0.90816">
        <ele>144.4</ele>
        <time>2017-03-22T10:23:5.000Z</time>
      </trkpt>
      <trkpt lat="43.77427" lon="0.90814">
        <ele>144.3</ele>
        <time>2017-03-22T10:23:12.000Z</time>
      </trkpt>
      <trkpt lat="43.77431" lon="0.90803">
        <ele>144.3</ele>
        <time>2017-03-22T10:23:20.000Z</time>
      </trkpt>
      <trkpt lat="43.7744" lon="0.90796">
        <ele>144.2</ele>
        <time>2017-03-22T10:23:29.000Z</time>
      </trkpt>
      <trkpt lat="43.77449" lon="0.90794">
        <ele>144.2</ele>
        <time>2017-03-22T10:23:35.000Z</time>
      </trkpt>
      <trkpt lat="43.77458" lon="0.90789">
        <ele>144</ele>
        <time>2017-03-22T10:23:45.000Z</time>
      </trkpt>
      <trkpt lat="43.77458" lon="0.90775">
        <ele>144</ele>
        <time>2017-03-22T10:23:54.000Z</time>
      </trkpt>
      <trkpt lat="43.77462" lon="0.90764">
        <ele>144.1</ele>
        <time>2017-03-22T10:24:4.000Z</time>
      </trkpt>
      <trkpt lat="43.77472" lon="0.9076">
        <ele>144.3</ele>
        <time>2017-03-22T10:24:13.000Z</time>
      </trkpt>
      <trkpt lat="43.77482" lon="0.90759">
        <ele>144.3</ele>
        <time>2017-03-22T10:24:20.000Z</time>
      </trkpt>
      <trkpt lat="43.77491" lon="0.90754">
        <ele>144</ele>
        <time>2017-03-22T10:24:29.000Z</time>
      </trkpt>
      <trkpt lat="43.775" lon="0.9075">
        <ele>143.6</ele>
        <time>2017-03-22T10:24:36.000Z</time>
      </trkpt>
      <trkpt lat="43.77509" lon="0.90742">
        <ele>143.2</ele>
        <time>2017-03-22T10:24:44.000Z</time>
      </trkpt>
      <trkpt lat="43.77515" lon="0.90732">
        <ele>142.9</ele>
        <time>2017-03-22T10:24:53.000Z</time>
      </trkpt>
      <trkpt lat="43.77519" lon="0.9072">
        <ele>142.7</ele>
        <time>2017-03-22T10:25:1.000Z</time>
      </trkpt>
      <trkpt lat="43.77521" lon="0.90707">
        <ele>142.5</ele>
        <time>2017-03-22T10:25:10.000Z</time>
      </trkpt>
      <trkpt lat="43.77525" lon="0.90695">
        <ele>142.4</ele>
        <time>2017-03-22T10:25:20.000Z</time>
      </trkpt>
      <trkpt lat="43.7753" lon="0.90683">
        <ele>142.4</ele>
        <time>2017-03-22T10:25:29.000Z</time>
      </trkpt>
      <trkpt lat="43.77529" lon="0.90671">
        <ele>142.5</ele>
        <time>2017-03-22T10:25:38.000Z</time>
      </trkpt>
      <trkpt lat="43.77531" lon="0.90658">
        <ele>142.6</ele>
        <time>2017-03-22T10:25:44.000Z</time>
      </trkpt>
      <trkpt lat="43.77532" lon="0.90644">
        <ele>142.6</ele>
        <time>2017-03-22T10:25:53.000Z</time>
      </trkpt>
      <trkpt lat="43.77533" lon="0.90631">
        <ele>142.5</ele>
        <time>2017-03-22T10:26:3.000Z</time>
      </trkpt>
      <trkpt lat="43.77539" lon="0.90619">
        <ele>142.5</ele>
        <time>2017-03-22T10:26:11.000Z</time>
      </trkpt>
      <trkpt lat="43.77547" lon="0.9061">
        <ele>142.3</ele>
        <time>2017-03-22T10:26:22.000Z</time>
      </trkpt>
      <trkpt lat="43.77551" lon="0.90599">
        <ele>142</ele>
        <time>2017-03-22T10:26:39.000Z</time>
      </trkpt>
      <trkpt lat="43.7756" lon="0.90581">
        <ele>141</ele>
        <time>2017-03-22T10:27:0.000Z</time>
      </trkpt>
      <trkpt lat="43.77564" lon="0.9057">
        <ele>140.7</ele>
        <time>2017-03-22T10:27:11.000Z</time>
      </trkpt>
      <trkpt lat="43.77573" lon="0.90574">
        <ele>140.5</ele>
        <time>2017-03-22T10:27:21.000Z</time>
      </trkpt>
      <trkpt lat="43.7758" lon="0.90582">
        <ele>140.6</ele>
        <time>2017-03-22T10:27:35.000Z</time>
      </trkpt>
      <trkpt lat="43.77581" lon="0.90595">
        <ele>141.2</ele>
        <time>2017-03-22T10:28:6.000Z</time>
      </trkpt>
      <trkpt lat="43.77589" lon="0.90601">
        <ele>141.4</ele>
        <time>2017-03-22T10:28:17.000Z</time>
      </trkpt>
      <trkpt lat="43.77594" lon="0.90612">
        <ele>141.4</ele>
        <time>2017-03-22T10:28:27.000Z</time>
      </trkpt>
      <trkpt lat="43.77595" lon="0.90625">
        <ele>141.4</ele>
        <time>2017-03-22T10:28:38.000Z</time>
      </trkpt>
      <trkpt lat="43.77597" lon="0.90638">
        <ele>141.2</ele>
        <time>2017-03-22T10:28:50.000Z</time>
      </trkpt>
      <trkpt lat="43.77596" lon="0.90651">
        <ele>140.8</ele>
        <time>2017-03-22T10:29:1.000Z</time>
      </trkpt>
      <trkpt lat="43.77596" lon="0.90664">
        <ele>140.1</ele>
        <time>2017-03-22T10:29:10.000Z</time>
      </trkpt>
      <trkpt lat="43.77596" lon="0.90678">
        <ele>138.9</ele>
        <time>2017-03-22T10:29:20.000Z</time>
      </trkpt>
      <trkpt lat="43.77596" lon="0.9069">
        <ele>137.9</ele>
        <time>2017-03-22T10:29:29.000Z</time>
      </trkpt>
      <trkpt lat="43.77601" lon="0.90702">
        <ele>137.2</ele>
        <time>2017-03-22T10:29:36.000Z</time>
      </trkpt>
      <trkpt lat="43.776" lon="0.90715">
        <ele>136.5</ele>
        <time>2017-03-22T10:29:45.000Z</time>
      </trkpt>
      <trkpt lat="43.77601" lon="0.90728">
        <ele>136</ele>
        <time>2017-03-22T10:29:54.000Z</time>
      </trkpt>
      <trkpt lat="43.776" lon="0.90741">
        <ele>135.5</ele>
        <time>2017-03-22T10:30:5.000Z</time>
      </trkpt>
      <trkpt lat="43.77595" lon="0.90751">
        <ele>135.2</ele>
        <time>2017-03-22T10:30:27.000Z</time>
      </trkpt>
      <trkpt lat="43.77595" lon="0.90764">
        <ele>135.1</ele>
        <time>2017-03-22T10:30:37.000Z</time>
      </trkpt>
      <trkpt lat="43.77593" lon="0.90777">
        <ele>135.4</ele>
        <time>2017-03-22T10:30:47.000Z</time>
      </trkpt>
      <trkpt lat="43.77594" lon="0.9079">
        <ele>136.2</ele>
        <time>2017-03-22T10:30:58.000Z</time>
      </trkpt>
      <trkpt lat="43.7759" lon="0.90801">
        <ele>137.2</ele>
        <time>2017-03-22T10:31:8.000Z</time>
      </trkpt>
      <trkpt lat="43.77585" lon="0.90814">
        <ele>138</ele>
        <time>2017-03-22T10:31:17.000Z</time>
      </trkpt>
      <trkpt lat="43.77579" lon="0.90824">
        <ele>138.8</ele>
        <time>2017-03-22T10:31:26.000Z</time>
      </trkpt>
      <trkpt lat="43.77574" lon="0.90835">
        <ele>139.5</ele>
        <time>2017-03-22T10:31:36.000Z</time>
      </trkpt>
      <trkpt lat="43.77574" lon="0.90848">
        <ele>140.2</ele>
        <time>2017-03-22T10:31:50.000Z</time>
      </trkpt>
      <trkpt lat="43.77581" lon="0.90855">
        <ele>141.2</ele>
        <time>2017-03-22T10:32:25.000Z</time>
      </trkpt>
      <trkpt lat="43.7759" lon="0.90859">
        <ele>141.6</ele>
        <time>2017-03-22T10:32:40.000Z</time>
      </trkpt>
      <trkpt lat="43.776" lon="0.9086">
        <ele>141.6</ele>
        <time>2017-03-22T10:32:49.000Z</time>
      </trkpt>
      <trkpt lat="43.7761" lon="0.90859">
        <ele>141.3</ele>
        <time>2017-03-22T10:33:1.000Z</time>
      </trkpt>
      <trkpt lat="43.77619" lon="0.90857">
        <ele>141.4</ele>
        <time>2017-03-22T10:33:15.000Z</time>
      </trkpt>
      <trkpt lat="43.77628" lon="0.90861">
        <ele>142.4</ele>
        <time>2017-03-22T10:33:30.000Z</time>
      </trkpt>
      <trkpt lat="43.77638" lon="0.90865">
        <ele>143.1</ele>
        <time>2017-03-22T10:33:41.000Z</time>
      </trkpt>
      <trkpt lat="43.77646" lon="0.90868">
        <ele>143.5</ele>
        <time>2017-03-22T10:33:47.000Z</time>
      </trkpt>
      <trkpt lat="43.77655" lon="0.90874">
        <ele>144</ele>
        <time>2017-03-22T10:33:58.000Z</time>
      </trkpt>
      <trkpt lat="43.77664" lon="0.9088">
        <ele>144.3</ele>
        <time>2017-03-22T10:34:8.000Z</time>
      </trkpt>
      <trkpt lat="43.77672" lon="0.90886">
        <ele>144.7</ele>
        <time>2017-03-22T10:34:16.000Z</time>
      </trkpt>
      <trkpt lat="43.77682" lon="0.90892">
        <ele>145.1</ele>
        <time>2017-03-22T10:34:23.000Z</time>
      </trkpt>
      <trkpt lat="43.77691" lon="0.90896">
        <ele>145.8</ele>
        <time>2017-03-22T10:34:33.000Z</time>
      </trkpt>
      <trkpt lat="43.777" lon="0.909">
        <ele>146.9</ele>
        <time>2017-03-22T10:34:44.000Z</time>
      </trkpt>
      <trkpt lat="43.77708" lon="0.90908">
        <ele>148.3</ele>
        <time>2017-03-22T10:34:58.000Z</time>
      </trkpt>
      <trkpt lat="43.77716" lon="0.90914">
        <ele>150.3</ele>
        <time>2017-03-22T10:35:13.000Z</time>
      </trkpt>
      <trkpt lat="43.77724" lon="0.9092">
        <ele>151.4</ele>
        <time>2017-03-22T10:35:21.000Z</time>
      </trkpt>
      <trkpt lat="43.77733" lon="0.90923">
        <ele>152</ele>
        <time>2017-03-22T10:35:26.000Z</time>
      </trkpt>
      <trkpt lat="43.77743" lon="0.90926">
        <ele>152.7</ele>
        <time>2017-03-22T10:35:35.000Z</time>
      </trkpt>
      <trkpt lat="43.77752" lon="0.90929">
        <ele>153.2</ele>
        <time>2017-03-22T10:35:40.000Z</time>
      </trkpt>
      <trkpt lat="43.7776" lon="0.90934">
        <ele>153.9</ele>
        <time>2017-03-22T10:35:50.000Z</time>
      </trkpt>
      <trkpt lat="43.77767" lon="0.90944">
        <ele>154.9</ele>
        <time>2017-03-22T10:36:5.000Z</time>
      </trkpt>
      <trkpt lat="43.77777" lon="0.90946">
        <ele>155.6</ele>
        <time>2017-03-22T10:36:15.000Z</time>
      </trkpt>
      <trkpt lat="43.77786" lon="0.90948">
        <ele>156.5</ele>
        <time>2017-03-22T10:36:26.000Z</time>
      </trkpt>
      <trkpt lat="43.77796" lon="0.90951">
        <ele>156.9</ele>
        <time>2017-03-22T10:36:32.000Z</time>
      </trkpt>
      <trkpt lat="43.77805" lon="0.90954">
        <ele>157.5</ele>
        <time>2017-03-22T10:36:38.000Z</time>
      </trkpt>
      <trkpt lat="43.77814" lon="0.90958">
        <ele>158.2</ele>
        <time>2017-03-22T10:36:50.000Z</time>
      </trkpt>
      <trkpt lat="43.77824" lon="0.90959">
        <ele>159.1</ele>
        <time>2017-03-22T10:37:1.000Z</time>
      </trkpt>
      <trkpt lat="43.77833" lon="0.9096">
        <ele>159.9</ele>
        <time>2017-03-22T10:37:11.000Z</time>
      </trkpt>
      <trkpt lat="43.77843" lon="0.90963">
        <ele>160.6</ele>
        <time>2017-03-22T10:37:20.000Z</time>
      </trkpt>
      <trkpt lat="43.77852" lon="0.90966">
        <ele>161.2</ele>
        <time>2017-03-22T10:37:30.000Z</time>
      </trkpt>
      <trkpt lat="43.77861" lon="0.90971">
        <ele>162.2</ele>
        <time>2017-03-22T10:37:47.000Z</time>
      </trkpt>
      <trkpt lat="43.77863" lon="0.90983">
        <ele>162.4</ele>
        <time>2017-03-22T10:37:56.000Z</time>
      </trkpt>
      <trkpt lat="43.77861" lon="0.90996">
        <ele>162.6</ele>
        <time>2017-03-22T10:38:3.000Z</time>
      </trkpt>
      <trkpt lat="43.77857" lon="0.91007">
        <ele>162.8</ele>
        <time>2017-03-22T10:38:10.000Z</time>
      </trkpt>
      <trkpt lat="43.77851" lon="0.91018">
        <ele>162.9</ele>
        <time>2017-03-22T10:38:18.000Z</time>
      </trkpt>
      <trkpt lat="43.77852" lon="0.91031">
        <ele>162.9</ele>
        <time>2017-03-22T10:38:30.000Z</time>
      </trkpt>
      <trkpt lat="43.77849" lon="0.91044">
        <ele>163.1</ele>
        <time>2017-03-22T10:38:41.000Z</time>
      </trkpt>
      <trkpt lat="43.77844" lon="0.91056">
        <ele>163.3</ele>
        <time>2017-03-22T10:38:48.000Z</time>
      </trkpt>
      <trkpt lat="43.77841" lon="0.91068">
        <ele>163.4</ele>
        <time>2017-03-22T10:38:55.000Z</time>
      </trkpt>
      <trkpt lat="43.77842" lon="0.91082">
        <ele>163.7</ele>
        <time>2017-03-22T10:39:4.000Z</time>
      </trkpt>
      <trkpt lat="43.77845" lon="0.91094">
        <ele>163.8</ele>
        <time>2017-03-22T10:39:13.000Z</time>
      </trkpt>
      <trkpt lat="43.77842" lon="0.91108">
        <ele>164</ele>
        <time>2017-03-22T10:39:21.000Z</time>
      </trkpt>
      <trkpt lat="43.77843" lon="0.91122">
        <ele>164.2</ele>
        <time>2017-03-22T10:39:28.000Z</time>
      </trkpt>
      <trkpt lat="43.77843" lon="0.91135">
        <ele>164.3</ele>
        <time>2017-03-22T10:39:36.000Z</time>
      </trkpt>
      <trkpt lat="43.77841" lon="0.91147">
        <ele>164.4</ele>
        <time>2017-03-22T10:39:44.000Z</time>
      </trkpt>
      <trkpt lat="43.77837" lon="0.91161">
        <ele>164.4</ele>
        <time>2017-03-22T10:39:55.000Z</time>
      </trkpt>
      <trkpt lat="43.7783" lon="0.91171">
        <ele>164.4</ele>
        <time>2017-03-22T10:40:2.000Z</time>
      </trkpt>
      <trkpt lat="43.77825" lon="0.91183">
        <ele>164.4</ele>
        <time>2017-03-22T10:40:11.000Z</time>
      </trkpt>
      <trkpt lat="43.77825" lon="0.91196">
        <ele>164.4</ele>
        <time>2017-03-22T10:40:20.000Z</time>
      </trkpt>
      <trkpt lat="43.77832" lon="0.91207">
        <ele>163.1</ele>
        <time>2017-03-22T10:41:1.000Z</time>
      </trkpt>
      <trkpt lat="43.77842" lon="0.91207">
        <ele>163.1</ele>
        <time>2017-03-22T10:41:8.000Z</time>
      </trkpt>
      <trkpt lat="43.77851" lon="0.91206">
        <ele>163.1</ele>
        <time>2017-03-22T10:41:14.000Z</time>
      </trkpt>
      <trkpt lat="43.7786" lon="0.91201">
        <ele>163.1</ele>
        <time>2017-03-22T10:41:23.000Z</time>
      </trkpt>
      <trkpt lat="43.77864" lon="0.9119">
        <ele>163.1</ele>
        <time>2017-03-22T10:41:44.000Z</time>
      </trkpt>
      <trkpt lat="43.77873" lon="0.91184">
        <ele>163.1</ele>
        <time>2017-03-22T10:41:58.000Z</time>
      </trkpt>
      <trkpt lat="43.77881" lon="0.91176">
        <ele>163.1</ele>
        <time>2017-03-22T10:42:8.000Z</time>
      </trkpt>
      <trkpt lat="43.77886" lon="0.91164">
        <ele>162.9</ele>
        <time>2017-03-22T10:42:16.000Z</time>
      </trkpt>
      <trkpt lat="43.77887" lon="0.91151">
        <ele>162.6</ele>
        <time>2017-03-22T10:42:26.000Z</time>
      </trkpt>
      <trkpt lat="43.77893" lon="0.91141">
        <ele>162.5</ele>
        <time>2017-03-22T10:42:34.000Z</time>
      </trkpt>
      <trkpt lat="43.77901" lon="0.91132">
        <ele>162.2</ele>
        <time>2017-03-22T10:42:45.000Z</time>
      </trkpt>
      <trkpt lat="43.77907" lon="0.91122">
        <ele>162</ele>
        <time>2017-03-22T10:42:53.000Z</time>
      </trkpt>
      <trkpt lat="43.77915" lon="0.91114">
        <ele>161.8</ele>
        <time>2017-03-22T10:42:59.000Z</time>
      </trkpt>
      <trkpt lat="43.77923" lon="0.91106">
        <ele>161.4</ele>
        <time>2017-03-22T10:43:8.000Z</time>
      </trkpt>
      <trkpt lat="43.77928" lon="0.91095">
        <ele>160.8</ele>
        <time>2017-03-22T10:43:17.000Z</time>
      </trkpt>
      <trkpt lat="43.77933" lon="0.91083">
        <ele>160.1</ele>
        <time>2017-03-22T10:43:26.000Z</time>
      </trkpt>
      <trkpt lat="43.77938" lon="0.91071">
        <ele>159.4</ele>
        <time>2017-03-22T10:43:36.000Z</time>
      </trkpt>
      <trkpt lat="43.77943" lon="0.9106">
        <ele>158.9</ele>
        <time>2017-03-22T10:43:44.000Z</time>
      </trkpt>
      <trkpt lat="43.7795" lon="0.9105">
        <ele>158.5</ele>
        <time>2017-03-22T10:43:53.000Z</time>
      </trkpt>
      <trkpt lat="43.77955" lon="0.9104">
        <ele>158.1</ele>
        <time>2017-03-22T10:44:1.000Z</time>
      </trkpt>
      <trkpt lat="43.77962" lon="0.91028">
        <ele>157.6</ele>
        <time>2017-03-22T10:44:9.000Z</time>
      </trkpt>
      <trkpt lat="43.77966" lon="0.91016">
        <ele>157.1</ele>
        <time>2017-03-22T10:44:18.000Z</time>
      </trkpt>
      <trkpt lat="43.77972" lon="0.91006">
        <ele>156.6</ele>
        <time>2017-03-22T10:44:25.000Z</time>
      </trkpt>
      <trkpt lat="43.77976" lon="0.90993">
        <ele>156</ele>
        <time>2017-03-22T10:44:33.000Z</time>
      </trkpt>
      <trkpt lat="43.77982" lon="0.90983">
        <ele>155.5</ele>
        <time>2017-03-22T10:44:40.000Z</time>
      </trkpt>
      <trkpt lat="43.77987" lon="0.90971">
        <ele>154.8</ele>
        <time>2017-03-22T10:44:49.000Z</time>
      </trkpt>
      <trkpt lat="43.77993" lon="0.90959">
        <ele>154.3</ele>
        <time>2017-03-22T10:44:56.000Z</time>
      </trkpt>
      <trkpt lat="43.77995" lon="0.90947">
        <ele>153.7</ele>
        <time>2017-03-22T10:45:3.000Z</time>
      </trkpt>
      <trkpt lat="43.77999" lon="0.90933">
        <ele>152.5</ele>
        <time>2017-03-22T10:45:12.000Z</time>
      </trkpt>
      <trkpt lat="43.78001" lon="0.90921">
        <ele>151.5</ele>
        <time>2017-03-22T10:45:20.000Z</time>
      </trkpt>
      <trkpt lat="43.78006" lon="0.90908">
        <ele>150.6</ele>
        <time>2017-03-22T10:45:28.000Z</time>
      </trkpt>
      <trkpt lat="43.7801" lon="0.90896">
        <ele>149.7</ele>
        <time>2017-03-22T10:45:36.000Z</time>
      </trkpt>
      <trkpt lat="43.78017" lon="0.90888">
        <ele>148.7</ele>
        <time>2017-03-22T10:45:43.000Z</time>
      </trkpt>
      <trkpt lat="43.78023" lon="0.90879">
        <ele>147.9</ele>
        <time>2017-03-22T10:45:50.000Z</time>
      </trkpt>
      <trkpt lat="43.78028" lon="0.90866">
        <ele>146.9</ele>
        <time>2017-03-22T10:46:0.000Z</time>
      </trkpt>
      <trkpt lat="43.78033" lon="0.90856">
        <ele>146</ele>
        <time>2017-03-22T10:46:9.000Z</time>
      </trkpt>
      <trkpt lat="43.78041" lon="0.90846">
        <ele>145.4</ele>
        <time>2017-03-22T10:46:17.000Z</time>
      </trkpt>
      <trkpt lat="43.78046" lon="0.90834">
        <ele>144.9</ele>
        <time>2017-03-22T10:46:25.000Z</time>
      </trkpt>
      <trkpt lat="43.78054" lon="0.90828">
        <ele>144.2</ele>
        <time>2017-03-22T10:46:34.000Z</time>
      </trkpt>
      <trkpt lat="43.78058" lon="0.90815">
        <ele>143.4</ele>
        <time>2017-03-22T10:46:45.000Z</time>
      </trkpt>
      <trkpt lat="43.78066" lon="0.90805">
        <ele>142.6</ele>
        <time>2017-03-22T10:46:54.000Z</time>
      </trkpt>
      <trkpt lat="43.78071" lon="0.90795">
        <ele>141.8</ele>
        <time>2017-03-22T10:47:3.000Z</time>
      </trkpt>
      <trkpt lat="43.78077" lon="0.90785">
        <ele>140.9</ele>
        <time>2017-03-22T10:47:11.000Z</time>
      </trkpt>
      <trkpt lat="43.78077" lon="0.90773">
        <ele>140.5</ele>
        <time>2017-03-22T10:47:16.000Z</time>
      </trkpt>
      <trkpt lat="43.78083" lon="0.90763">
        <ele>139.7</ele>
        <time>2017-03-22T10:47:25.000Z</time>
      </trkpt>
      <trkpt lat="43.78088" lon="0.90751">
        <ele>138.5</ele>
        <time>2017-03-22T10:47:34.000Z</time>
      </trkpt>
      <trkpt lat="43.78093" lon="0.9074">
        <ele>137.7</ele>
        <time>2017-03-22T10:47:41.000Z</time>
      </trkpt>
      <trkpt lat="43.78102" lon="0.90735">
        <ele>137</ele>
        <time>2017-03-22T10:47:50.000Z</time>
      </trkpt>
      <trkpt lat="43.78109" lon="0.90728">
        <ele>136.2</ele>
        <time>2017-03-22T10:47:58.000Z</time>
      </trkpt>
      <trkpt lat="43.78116" lon="0.90718">
        <ele>135.6</ele>
        <time>2017-03-22T10:48:6.000Z</time>
      </trkpt>
      <trkpt lat="43.78124" lon="0.90709">
        <ele>135.1</ele>
        <time>2017-03-22T10:48:13.000Z</time>
      </trkpt>
      <trkpt lat="43.78128" lon="0.90698">
        <ele>133.9</ele>
        <time>2017-03-22T10:48:25.000Z</time>
      </trkpt>
      <trkpt lat="43.78136" lon="0.9069">
        <ele>132.9</ele>
        <time>2017-03-22T10:48:35.000Z</time>
      </trkpt>
      <trkpt lat="43.78144" lon="0.90684">
        <ele>132.2</ele>
        <time>2017-03-22T10:48:43.000Z</time>
      </trkpt>
      <trkpt lat="43.78151" lon="0.90676">
        <ele>131.7</ele>
        <time>2017-03-22T10:48:50.000Z</time>
      </trkpt>
      <trkpt lat="43.78157" lon="0.90664">
        <ele>131.1</ele>
        <time>2017-03-22T10:48:58.000Z</time>
      </trkpt>
      <trkpt lat="43.78163" lon="0.90655">
        <ele>130.3</ele>
        <time>2017-03-22T10:49:6.000Z</time>
      </trkpt>
      <trkpt lat="43.78167" lon="0.90643">
        <ele>129.4</ele>
        <time>2017-03-22T10:49:15.000Z</time>
      </trkpt>
      <trkpt lat="43.78174" lon="0.90634">
        <ele>128.7</ele>
        <time>2017-03-22T10:49:24.000Z</time>
      </trkpt>
      <trkpt lat="43.78181" lon="0.90625">
        <ele>127.9</ele>
        <time>2017-03-22T10:49:36.000Z</time>
      </trkpt>
      <trkpt lat="43.78188" lon="0.90617">
        <ele>127.3</ele>
        <time>2017-03-22T10:49:45.000Z</time>
      </trkpt>
      <trkpt lat="43.78194" lon="0.90607">
        <ele>126.7</ele>
        <time>2017-03-22T10:49:55.000Z</time>
      </trkpt>
      <trkpt lat="43.78202" lon="0.90599">
        <ele>126.2</ele>
        <time>2017-03-22T10:50:3.000Z</time>
      </trkpt>
      <trkpt lat="43.78209" lon="0.90588">
        <ele>125.9</ele>
        <time>2017-03-22T10:50:10.000Z</time>
      </trkpt>
      <trkpt lat="43.78216" lon="0.90581">
        <ele>125.6</ele>
        <time>2017-03-22T10:50:15.000Z</time>
      </trkpt>
      <trkpt lat="43.78225" lon="0.90575">
        <ele>125.1</ele>
        <time>2017-03-22T10:50:23.000Z</time>
      </trkpt>
      <trkpt lat="43.78233" lon="0.9057">
        <ele>124.5</ele>
        <time>2017-03-22T10:50:31.000Z</time>
      </trkpt>
      <trkpt lat="43.78243" lon="0.90566">
        <ele>123.9</ele>
        <time>2017-03-22T10:50:39.000Z</time>
      </trkpt>
      <trkpt lat="43.78247" lon="0.90554">
        <ele>123.4</ele>
        <time>2017-03-22T10:50:46.000Z</time>
      </trkpt>
      <trkpt lat="43.78251" lon="0.90541">
        <ele>122.9</ele>
        <time>2017-03-22T10:50:52.000Z</time>
      </trkpt>
      <trkpt lat="43.78253" lon="0.90528">
        <ele>122.4</ele>
        <time>2017-03-22T10:50:58.000Z</time>
      </trkpt>
      <trkpt lat="43.78255" lon="0.90514">
        <ele>122</ele>
        <time>2017-03-22T10:51:5.000Z</time>
      </trkpt>
      <trkpt lat="43.78258" lon="0.90502">
        <ele>121.3</ele>
        <time>2017-03-22T10:51:13.000Z</time>
      </trkpt>
      <trkpt lat="43.78264" lon="0.90492">
        <ele>120.9</ele>
        <time>2017-03-22T10:51:20.000Z</time>
      </trkpt>
      <trkpt lat="43.78269" lon="0.9048">
        <ele>120.3</ele>
        <time>2017-03-22T10:51:28.000Z</time>
      </trkpt>
      <trkpt lat="43.78274" lon="0.90469">
        <ele>120</ele>
        <time>2017-03-22T10:51:33.000Z</time>
      </trkpt>
      <trkpt lat="43.78277" lon="0.90457">
        <ele>119.4</ele>
        <time>2017-03-22T10:51:42.000Z</time>
      </trkpt>
      <trkpt lat="43.78284" lon="0.90449">
        <ele>118.9</ele>
        <time>2017-03-22T10:51:50.000Z</time>
      </trkpt>
      <trkpt lat="43.7829" lon="0.90439">
        <ele>118.2</ele>
        <time>2017-03-22T10:51:58.000Z</time>
      </trkpt>
      <trkpt lat="43.78296" lon="0.9043">
        <ele>117.7</ele>
        <time>2017-03-22T10:52:5.000Z</time>
      </trkpt>
      <trkpt lat="43.78302" lon="0.90421">
        <ele>117.3</ele>
        <time>2017-03-22T10:52:12.000Z</time>
      </trkpt>
      <trkpt lat="43.7831" lon="0.90411">
        <ele>116.8</ele>
        <time>2017-03-22T10:52:21.000Z</time>
      </trkpt>
      <trkpt lat="43.78315" lon="0.904">
        <ele>116.1</ele>
        <time>2017-03-22T10:52:29.000Z</time>
      </trkpt>
      <trkpt lat="43.78321" lon="0.90389">
        <ele>115.6</ele>
        <time>2017-03-22T10:52:36.000Z</time>
      </trkpt>
      <trkpt lat="43.78326" lon="0.90378">
        <ele>115.2</ele>
        <time>2017-03-22T10:52:43.000Z</time>
      </trkpt>
      <trkpt lat="43.78332" lon="0.90367">
        <ele>114.6</ele>
        <time>2017-03-22T10:52:51.000Z</time>
      </trkpt>
      <trkpt lat="43.78337" lon="0.90355">
        <ele>113.9</ele>
        <time>2017-03-22T10:53:0.000Z</time>
      </trkpt>
      <trkpt lat="43.78344" lon="0.90345">
        <ele>113.3</ele>
        <time>2017-03-22T10:53:9.000Z</time>
      </trkpt>
      <trkpt lat="43.7835" lon="0.90334">
        <ele>112.9</ele>
        <time>2017-03-22T10:53:17.000Z</time>
      </trkpt>
      <trkpt lat="43.78355" lon="0.90324">
        <ele>112.4</ele>
        <time>2017-03-22T10:53:25.000Z</time>
      </trkpt>
      <trkpt lat="43.78361" lon="0.90313">
        <ele>111.8</ele>
        <time>2017-03-22T10:53:37.000Z</time>
      </trkpt>
      <trkpt lat="43.78367" lon="0.90304">
        <ele>111.3</ele>
        <time>2017-03-22T10:53:43.000Z</time>
      </trkpt>
      <trkpt lat="43.78374" lon="0.90293">
        <ele>110.9</ele>
        <time>2017-03-22T10:53:51.000Z</time>
      </trkpt>
      <trkpt lat="43.7838" lon="0.90283">
        <ele>110.3</ele>
        <time>2017-03-22T10:53:58.000Z</time>
      </trkpt>
      <trkpt lat="43.78388" lon="0.90277">
        <ele>109.8</ele>
        <time>2017-03-22T10:54:6.000Z</time>
      </trkpt>
      <trkpt lat="43.78393" lon="0.90266">
        <ele>109.3</ele>
        <time>2017-03-22T10:54:14.000Z</time>
      </trkpt>
      <trkpt lat="43.78401" lon="0.90261">
        <ele>109</ele>
        <time>2017-03-22T10:54:22.000Z</time>
      </trkpt>
      <trkpt lat="43.78409" lon="0.90254">
        <ele>108.6</ele>
        <time>2017-03-22T10:54:29.000Z</time>
      </trkpt>
      <trkpt lat="43.78414" lon="0.90243">
        <ele>108.1</ele>
        <time>2017-03-22T10:54:37.000Z</time>
      </trkpt>
      <trkpt lat="43.78419" lon="0.90231">
        <ele>107.7</ele>
        <time>2017-03-22T10:54:44.000Z</time>
      </trkpt>
      <trkpt lat="43.78422" lon="0.90219">
        <ele>107.3</ele>
        <time>2017-03-22T10:54:51.000Z</time>
      </trkpt>
      <trkpt lat="43.78428" lon="0.90209">
        <ele>106.8</ele>
        <time>2017-03-22T10:54:58.000Z</time>
      </trkpt>
      <trkpt lat="43.78434" lon="0.90199">
        <ele>106.4</ele>
        <time>2017-03-22T10:55:5.000Z</time>
      </trkpt>
      <trkpt lat="43.78442" lon="0.90192">
        <ele>106</ele>
        <time>2017-03-22T10:55:12.000Z</time>
      </trkpt>
      <trkpt lat="43.7845" lon="0.90184">
        <ele>105.7</ele>
        <time>2017-03-22T10:55:19.000Z</time>
      </trkpt>
      <trkpt lat="43.78455" lon="0.90172">
        <ele>105.3</ele>
        <time>2017-03-22T10:55:28.000Z</time>
      </trkpt>
      <trkpt lat="43.78461" lon="0.90163">
        <ele>105</ele>
        <time>2017-03-22T10:55:36.000Z</time>
      </trkpt>
      <trkpt lat="43.78468" lon="0.90154">
        <ele>104.6</ele>
        <time>2017-03-22T10:55:42.000Z</time>
      </trkpt>
      <trkpt lat="43.78473" lon="0.90143">
        <ele>104.2</ele>
        <time>2017-03-22T10:55:51.000Z</time>
      </trkpt>
      <trkpt lat="43.78479" lon="0.90132">
        <ele>103.7</ele>
        <time>2017-03-22T10:55:59.000Z</time>
      </trkpt>
      <trkpt lat="43.78485" lon="0.90119">
        <ele>102.9</ele>
        <time>2017-03-22T10:56:8.000Z</time>
      </trkpt>
      <trkpt lat="43.78491" lon="0.9011">
        <ele>102.3</ele>
        <time>2017-03-22T10:56:17.000Z</time>
      </trkpt>
      <trkpt lat="43.78498" lon="0.90101">
        <ele>101.6</ele>
        <time>2017-03-22T10:56:24.000Z</time>
      </trkpt>
      <trkpt lat="43.78505" lon="0.90092">
        <ele>101.1</ele>
        <time>2017-03-22T10:56:31.000Z</time>
      </trkpt>
      <trkpt lat="43.78513" lon="0.90085">
        <ele>100.6</ele>
        <time>2017-03-22T10:56:40.000Z</time>
      </trkpt>
      <trkpt lat="43.7852" lon="0.90075">
        <ele>100.2</ele>
        <time>2017-03-22T10:56:49.000Z</time>
      </trkpt>
      <trkpt lat="43.78524" lon="0.90063">
        <ele>99.6</ele>
        <time>2017-03-22T10:56:59.000Z</time>
      </trkpt>
      <trkpt lat="43.78531" lon="0.90053">
        <ele>99.1</ele>
        <time>2017-03-22T10:57:9.000Z</time>
      </trkpt>
      <trkpt lat="43.78538" lon="0.90044">
        <ele>98.5</ele>
        <time>2017-03-22T10:57:18.000Z</time>
      </trkpt>
      <trkpt lat="43.78545" lon="0.90037">
        <ele>98.2</ele>
        <time>2017-03-22T10:57:26.000Z</time>
      </trkpt>
      <trkpt lat="43.78553" lon="0.90028">
        <ele>97.9</ele>
        <time>2017-03-22T10:57:36.000Z</time>
      </trkpt>
      <trkpt lat="43.78559" lon="0.90018">
        <ele>97.2</ele>
        <time>2017-03-22T10:57:47.000Z</time>
      </trkpt>
      <trkpt lat="43.78563" lon="0.90006">
        <ele>96.9</ele>
        <time>2017-03-22T10:57:55.000Z</time>
      </trkpt>
      <trkpt lat="43.78566" lon="0.89994">
        <ele>96</ele>
        <time>2017-03-22T10:58:7.000Z</time>
      </trkpt>
      <trkpt lat="43.7857" lon="0.89972">
        <ele>95.2</ele>
        <time>2017-03-22T10:58:31.000Z</time>
      </trkpt>
      <trkpt lat="43.78573" lon="0.89961">
        <ele>95</ele>
        <time>2017-03-22T10:58:41.000Z</time>
      </trkpt>
      <trkpt lat="43.78571" lon="0.89974">
        <ele>94.9</ele>
        <time>2017-03-22T10:58:54.000Z</time>
      </trkpt>
      <trkpt lat="43.7858" lon="0.89971">
        <ele>94</ele>
        <time>2017-03-22T10:59:42.000Z</time>
      </trkpt>
      <trkpt lat="43.7858" lon="0.89984">
        <ele>93.8</ele>
        <time>2017-03-22T10:59:59.000Z</time>
      </trkpt>
      <trkpt lat="43.7859" lon="0.89987">
        <ele>93.5</ele>
        <time>2017-03-22T11:00:11.000Z</time>
      </trkpt>
      <trkpt lat="43.78599" lon="0.89987">
        <ele>93.5</ele>
        <time>2017-03-22T11:00:16.000Z</time>
      </trkpt>
      <trkpt lat="43.78608" lon="0.89987">
        <ele>93.4</ele>
        <time>2017-03-22T11:00:21.000Z</time>
      </trkpt>
      <trkpt lat="43.78618" lon="0.89984">
        <ele>93.4</ele>
        <time>2017-03-22T11:00:26.000Z</time>
      </trkpt>
      <trkpt lat="43.78627" lon="0.89989">
        <ele>93.4</ele>
        <time>2017-03-22T11:00:31.000Z</time>
      </trkpt>
      <trkpt lat="43.78637" lon="0.89984">
        <ele>93.5</ele>
        <time>2017-03-22T11:00:36.000Z</time>
      </trkpt>
      <trkpt lat="43.78642" lon="0.89995">
        <ele>93.6</ele>
        <time>2017-03-22T11:00:47.000Z</time>
      </trkpt>
      <trkpt lat="43.78651" lon="0.90001">
        <ele>93.6</ele>
        <time>2017-03-22T11:01:2.000Z</time>
      </trkpt>
      <trkpt lat="43.7866" lon="0.90007">
        <ele>93.6</ele>
        <time>2017-03-22T11:01:11.000Z</time>
      </trkpt>
      <trkpt lat="43.78668" lon="0.90012">
        <ele>93.8</ele>
        <time>2017-03-22T11:01:20.000Z</time>
      </trkpt>
      <trkpt lat="43.78678" lon="0.90014">
        <ele>93.9</ele>
        <time>2017-03-22T11:01:28.000Z</time>
      </trkpt>
      <trkpt lat="43.78687" lon="0.90022">
        <ele>93.9</ele>
        <time>2017-03-22T11:01:37.000Z</time>
      </trkpt>
      <trkpt lat="43.78696" lon="0.90025">
        <ele>93.8</ele>
        <time>2017-03-22T11:01:46.000Z</time>
      </trkpt>
      <trkpt lat="43.78705" lon="0.90029">
        <ele>93.8</ele>
        <time>2017-03-22T11:01:54.000Z</time>
      </trkpt>
      <trkpt lat="43.78715" lon="0.90033">
        <ele>93.7</ele>
        <time>2017-03-22T11:02:2.000Z</time>
      </trkpt>
      <trkpt lat="43.78724" lon="0.90037">
        <ele>93.8</ele>
        <time>2017-03-22T11:02:11.000Z</time>
      </trkpt>
      <trkpt lat="43.78733" lon="0.90039">
        <ele>93.8</ele>
        <time>2017-03-22T11:02:20.000Z</time>
      </trkpt>
      <trkpt lat="43.78742" lon="0.90041">
        <ele>93.7</ele>
        <time>2017-03-22T11:02:28.000Z</time>
      </trkpt>
      <trkpt lat="43.78752" lon="0.90045">
        <ele>93.8</ele>
        <time>2017-03-22T11:02:36.000Z</time>
      </trkpt>
      <trkpt lat="43.78761" lon="0.90049">
        <ele>93.8</ele>
        <time>2017-03-22T11:02:45.000Z</time>
      </trkpt>
      <trkpt lat="43.78771" lon="0.90053">
        <ele>93.8</ele>
        <time>2017-03-22T11:02:51.000Z</time>
      </trkpt>
      <trkpt lat="43.7878" lon="0.90056">
        <ele>93.8</ele>
        <time>2017-03-22T11:02:57.000Z</time>
      </trkpt>
      <trkpt lat="43.78788" lon="0.90062">
        <ele>93.7</ele>
        <time>2017-03-22T11:03:6.000Z</time>
      </trkpt>
      <trkpt lat="43.78798" lon="0.90062">
        <ele>93.8</ele>
        <time>2017-03-22T11:03:13.000Z</time>
      </trkpt>
      <trkpt lat="43.78807" lon="0.90064">
        <ele>93.8</ele>
        <time>2017-03-22T11:03:20.000Z</time>
      </trkpt>
      <trkpt lat="43.78817" lon="0.90066">
        <ele>93.9</ele>
        <time>2017-03-22T11:03:28.000Z</time>
      </trkpt>
      <trkpt lat="43.78825" lon="0.9007">
        <ele>93.9</ele>
        <time>2017-03-22T11:03:36.000Z</time>
      </trkpt>
      <trkpt lat="43.78834" lon="0.90075">
        <ele>93.9</ele>
        <time>2017-03-22T11:03:44.000Z</time>
      </trkpt>
      <trkpt lat="43.78843" lon="0.90079">
        <ele>93.9</ele>
        <time>2017-03-22T11:03:54.000Z</time>
      </trkpt>
      <trkpt lat="43.78852" lon="0.90084">
        <ele>93.8</ele>
        <time>2017-03-22T11:04:3.000Z</time>
      </trkpt>
      <trkpt lat="43.78861" lon="0.90087">
        <ele>93.7</ele>
        <time>2017-03-22T11:04:9.000Z</time>
      </trkpt>
      <trkpt lat="43.78871" lon="0.9009">
        <ele>93.7</ele>
        <time>2017-03-22T11:04:15.000Z</time>
      </trkpt>
      <trkpt lat="43.78879" lon="0.90094">
        <ele>93.7</ele>
        <time>2017-03-22T11:04:22.000Z</time>
      </trkpt>
      <trkpt lat="43.78889" lon="0.90099">
        <ele>93.6</ele>
        <time>2017-03-22T11:04:31.000Z</time>
      </trkpt>
      <trkpt lat="43.78899" lon="0.90102">
        <ele>93.5</ele>
        <time>2017-03-22T11:04:39.000Z</time>
      </trkpt>
      <trkpt lat="43.78908" lon="0.90105">
        <ele>93.5</ele>
        <time>2017-03-22T11:04:45.000Z</time>
      </trkpt>
      <trkpt lat="43.78917" lon="0.90109">
        <ele>93.5</ele>
        <time>2017-03-22T11:04:51.000Z</time>
      </trkpt>
      <trkpt lat="43.78926" lon="0.90111">
        <ele>93.4</ele>
        <time>2017-03-22T11:04:59.000Z</time>
      </trkpt>
      <trkpt lat="43.78935" lon="0.90115">
        <ele>93.3</ele>
        <time>2017-03-22T11:05:10.000Z</time>
      </trkpt>
      <trkpt lat="43.78944" lon="0.9012">
        <ele>93.2</ele>
        <time>2017-03-22T11:05:17.000Z</time>
      </trkpt>
      <trkpt lat="43.78953" lon="0.90124">
        <ele>93.1</ele>
        <time>2017-03-22T11:05:24.000Z</time>
      </trkpt>
      <trkpt lat="43.78962" lon="0.90128">
        <ele>93.1</ele>
        <time>2017-03-22T11:05:31.000Z</time>
      </trkpt>
      <trkpt lat="43.78972" lon="0.9013">
        <ele>93</ele>
        <time>2017-03-22T11:05:38.000Z</time>
      </trkpt>
      <trkpt lat="43.78981" lon="0.90132">
        <ele>93</ele>
        <time>2017-03-22T11:05:45.000Z</time>
      </trkpt>
      <trkpt lat="43.78989" lon="0.90137">
        <ele>93.1</ele>
        <time>2017-03-22T11:05:53.000Z</time>
      </trkpt>
      <trkpt lat="43.78999" lon="0.9014">
        <ele>93.2</ele>
        <time>2017-03-22T11:06:1.000Z</time>
      </trkpt>
      <trkpt lat="43.79009" lon="0.90143">
        <ele>93.4</ele>
        <time>2017-03-22T11:06:8.000Z</time>
      </trkpt>
      <trkpt lat="43.79018" lon="0.90146">
        <ele>93.5</ele>
        <time>2017-03-22T11:06:17.000Z</time>
      </trkpt>
      <trkpt lat="43.79027" lon="0.90151">
        <ele>93.6</ele>
        <time>2017-03-22T11:06:24.000Z</time>
      </trkpt>
      <trkpt lat="43.79036" lon="0.90155">
        <ele>93.7</ele>
        <time>2017-03-22T11:06:32.000Z</time>
      </trkpt>
      <trkpt lat="43.79045" lon="0.90157">
        <ele>93.8</ele>
        <time>2017-03-22T11:06:37.000Z</time>
      </trkpt>
      <trkpt lat="43.79054" lon="0.9016">
        <ele>93.9</ele>
        <time>2017-03-22T11:06:44.000Z</time>
      </trkpt>
      <trkpt lat="43.79061" lon="0.90168">
        <ele>94.3</ele>
        <time>2017-03-22T11:07:0.000Z</time>
      </trkpt>
      <trkpt lat="43.79069" lon="0.90174">
        <ele>94.7</ele>
        <time>2017-03-22T11:07:10.000Z</time>
      </trkpt>
      <trkpt lat="43.79078" lon="0.90178">
        <ele>95</ele>
        <time>2017-03-22T11:07:18.000Z</time>
      </trkpt>
      <trkpt lat="43.79087" lon="0.90186">
        <ele>95.4</ele>
        <time>2017-03-22T11:07:27.000Z</time>
      </trkpt>
      <trkpt lat="43.79096" lon="0.90186">
        <ele>95.6</ele>
        <time>2017-03-22T11:07:31.000Z</time>
      </trkpt>
      <trkpt lat="43.79105" lon="0.90191">
        <ele>96</ele>
        <time>2017-03-22T11:07:38.000Z</time>
      </trkpt>
      <trkpt lat="43.79115" lon="0.90194">
        <ele>96.3</ele>
        <time>2017-03-22T11:07:45.000Z</time>
      </trkpt>
      <trkpt lat="43.79124" lon="0.90197">
        <ele>96.8</ele>
        <time>2017-03-22T11:07:54.000Z</time>
      </trkpt>
      <trkpt lat="43.79133" lon="0.902">
        <ele>97.2</ele>
        <time>2017-03-22T11:08:2.000Z</time>
      </trkpt>
      <trkpt lat="43.79143" lon="0.90203">
        <ele>97.7</ele>
        <time>2017-03-22T11:08:10.000Z</time>
      </trkpt>
      <trkpt lat="43.79152" lon="0.90206">
        <ele>98.3</ele>
        <time>2017-03-22T11:08:19.000Z</time>
      </trkpt>
      <trkpt lat="43.79163" lon="0.90208">
        <ele>99</ele>
        <time>2017-03-22T11:08:26.000Z</time>
      </trkpt>
      <trkpt lat="43.79172" lon="0.90208">
        <ele>99.4</ele>
        <time>2017-03-22T11:08:32.000Z</time>
      </trkpt>
      <trkpt lat="43.79176" lon="0.90219">
        <ele>100.5</ele>
        <time>2017-03-22T11:08:45.000Z</time>
      </trkpt>
      <trkpt lat="43.79186" lon="0.90222">
        <ele>101.4</ele>
        <time>2017-03-22T11:08:53.000Z</time>
      </trkpt>
      <trkpt lat="43.79195" lon="0.90224">
        <ele>101.9</ele>
        <time>2017-03-22T11:08:59.000Z</time>
      </trkpt>
      <trkpt lat="43.79204" lon="0.90225">
        <ele>102.4</ele>
        <time>2017-03-22T11:09:4.000Z</time>
      </trkpt>
      <trkpt lat="43.79213" lon="0.90227">
        <ele>103</ele>
        <time>2017-03-22T11:09:10.000Z</time>
      </trkpt>
      <trkpt lat="43.79222" lon="0.90228">
        <ele>103.6</ele>
        <time>2017-03-22T11:09:15.000Z</time>
      </trkpt>
      <trkpt lat="43.79231" lon="0.9023">
        <ele>104.4</ele>
        <time>2017-03-22T11:09:22.000Z</time>
      </trkpt>
      <trkpt lat="43.79241" lon="0.90231">
        <ele>105.1</ele>
        <time>2017-03-22T11:09:28.000Z</time>
      </trkpt>
      <trkpt lat="43.7925" lon="0.90233">
        <ele>105.8</ele>
        <time>2017-03-22T11:09:34.000Z</time>
      </trkpt>
      <trkpt lat="43.7926" lon="0.90239">
        <ele>107</ele>
        <time>2017-03-22T11:09:44.000Z</time>
      </trkpt>
      <trkpt lat="43.79267" lon="0.90248">
        <ele>108.2</ele>
        <time>2017-03-22T11:09:56.000Z</time>
      </trkpt>
      <trkpt lat="43.79274" lon="0.90257">
        <ele>109.1</ele>
        <time>2017-03-22T11:10:4.000Z</time>
      </trkpt>
      <trkpt lat="43.79285" lon="0.90272">
        <ele>149.4</ele>
        <time>2017-03-22T11:10:12.000Z</time>
      </trkpt>
      <trkpt lat="43.79289" lon="0.90281">
        <ele>150.6</ele>
        <time>2017-03-22T11:10:19.000Z</time>
      </trkpt>
      <trkpt lat="43.79296" lon="0.90292">
        <ele>152.3</ele>
        <time>2017-03-22T11:10:44.000Z</time>
      </trkpt>
      <trkpt lat="43.79306" lon="0.90301">
        <ele>153.7</ele>
        <time>2017-03-22T11:11:2.000Z</time>
      </trkpt>
      <trkpt lat="43.79309" lon="0.90316">
        <ele>155.6</ele>
        <time>2017-03-22T11:11:13.000Z</time>
      </trkpt>
      <trkpt lat="43.79315" lon="0.90327">
        <ele>157.2</ele>
        <time>2017-03-22T11:11:25.000Z</time>
      </trkpt>
      <trkpt lat="43.79314" lon="0.90343">
        <ele>158</ele>
        <time>2017-03-22T11:11:36.000Z</time>
      </trkpt>
      <trkpt lat="43.79319" lon="0.90356">
        <ele>157.9</ele>
        <time>2017-03-22T11:11:51.000Z</time>
      </trkpt>
      <trkpt lat="43.7932" lon="0.90368">
        <ele>157.9</ele>
        <time>2017-03-22T11:12:0.000Z</time>
      </trkpt>
      <trkpt lat="43.79323" lon="0.90379">
        <ele>157.7</ele>
        <time>2017-03-22T11:12:6.000Z</time>
      </trkpt>
      <trkpt lat="43.79323" lon="0.90388">
        <ele>157.7</ele>
        <time>2017-03-22T11:12:14.000Z</time>
      </trkpt>
      <trkpt lat="43.79327" lon="0.90402">
        <ele>157.4</ele>
        <time>2017-03-22T11:12:22.000Z</time>
      </trkpt>
      <trkpt lat="43.79331" lon="0.90417">
        <ele>157.1</ele>
        <time>2017-03-22T11:12:31.000Z</time>
      </trkpt>
      <trkpt lat="43.79334" lon="0.90428">
        <ele>157.2</ele>
        <time>2017-03-22T11:12:38.000Z</time>
      </trkpt>
      <trkpt lat="43.79334" lon="0.90438">
        <ele>157.5</ele>
        <time>2017-03-22T11:12:44.000Z</time>
      </trkpt>
      <trkpt lat="43.79338" lon="0.90448">
        <ele>157.7</ele>
        <time>2017-03-22T11:12:50.000Z</time>
      </trkpt>
      <trkpt lat="43.79338" lon="0.90456">
        <ele>157.9</ele>
        <time>2017-03-22T11:12:58.000Z</time>
      </trkpt>
      <trkpt lat="43.79341" lon="0.90466">
        <ele>158.2</ele>
        <time>2017-03-22T11:13:30.000Z</time>
      </trkpt>
      <trkpt lat="43.79342" lon="0.90472">
        <ele>158.4</ele>
        <time>2017-03-22T11:13:44.000Z</time>
      </trkpt>
      <trkpt lat="43.79342" lon="0.90474">
        <ele>158.5</ele>
        <time>2017-03-22T11:14:43.000Z</time>
      </trkpt>
      <trkpt lat="43.79343" lon="0.90479">
        <ele>158.6</ele>
        <time>2017-03-22T11:14:48.000Z</time>
      </trkpt>
      <trkpt lat="43.79342" lon="0.90485">
        <ele>125</ele>
        <time>2017-03-22T11:15:15.000Z</time>
      </trkpt>
      <trkpt lat="43.79348" lon="0.9049">
        <ele>159.1</ele>
        <time>2017-03-22T11:16:2.000Z</time>
      </trkpt>
      <trkpt lat="43.79348" lon="0.90499">
        <ele>159.5</ele>
        <time>2017-03-22T11:16:14.000Z</time>
      </trkpt>
      <trkpt lat="43.79353" lon="0.90509">
        <ele>159.8</ele>
        <time>2017-03-22T11:16:15.672Z</time>
      </trkpt>
      <trkpt lat="43.79358" lon="0.90505">
        <ele>123.9</ele>
        <time>2017-03-22T11:16:22.000Z</time>
      </trkpt>
      <trkpt lat="43.7936" lon="0.90519">
        <ele>123.7</ele>
        <time>2017-03-22T11:16:30.000Z</time>
      </trkpt>
      <trkpt lat="43.79366" lon="0.90531">
        <ele>123.3</ele>
        <time>2017-03-22T11:16:37.000Z</time>
      </trkpt>
      <trkpt lat="43.79373" lon="0.90539">
        <ele>123.1</ele>
        <time>2017-03-22T11:16:41.000Z</time>
      </trkpt>
      <trkpt lat="43.79381" lon="0.90545">
        <ele>122.9</ele>
        <time>2017-03-22T11:16:46.000Z</time>
      </trkpt>
      <trkpt lat="43.7939" lon="0.9055">
        <ele>122.7</ele>
        <time>2017-03-22T11:16:52.000Z</time>
      </trkpt>
      <trkpt lat="43.794" lon="0.90552">
        <ele>122.8</ele>
        <time>2017-03-22T11:16:58.000Z</time>
      </trkpt>
      <trkpt lat="43.79408" lon="0.90555">
        <ele>122.9</ele>
        <time>2017-03-22T11:17:6.000Z</time>
      </trkpt>
      <trkpt lat="43.79419" lon="0.90557">
        <ele>123</ele>
        <time>2017-03-22T11:17:15.000Z</time>
      </trkpt>
      <trkpt lat="43.79429" lon="0.90558">
        <ele>123.1</ele>
        <time>2017-03-22T11:17:26.000Z</time>
      </trkpt>
      <trkpt lat="43.79438" lon="0.90555">
        <ele>123.2</ele>
        <time>2017-03-22T11:17:37.000Z</time>
      </trkpt>
      <trkpt lat="43.79447" lon="0.90553">
        <ele>123.2</ele>
        <time>2017-03-22T11:17:43.000Z</time>
      </trkpt>
      <trkpt lat="43.79457" lon="0.90554">
        <ele>123.4</ele>
        <time>2017-03-22T11:17:49.000Z</time>
      </trkpt>
      <trkpt lat="43.79466" lon="0.90552">
        <ele>123.5</ele>
        <time>2017-03-22T11:17:55.000Z</time>
      </trkpt>
      <trkpt lat="43.79476" lon="0.9055">
        <ele>123.6</ele>
        <time>2017-03-22T11:18:2.000Z</time>
      </trkpt>
      <trkpt lat="43.79486" lon="0.90548">
        <ele>123.6</ele>
        <time>2017-03-22T11:18:10.000Z</time>
      </trkpt>
      <trkpt lat="43.79496" lon="0.90547">
        <ele>123.6</ele>
        <time>2017-03-22T11:18:17.000Z</time>
      </trkpt>
      <trkpt lat="43.79505" lon="0.90543">
        <ele>123.5</ele>
        <time>2017-03-22T11:18:25.000Z</time>
      </trkpt>
      <trkpt lat="43.79514" lon="0.90539">
        <ele>123.5</ele>
        <time>2017-03-22T11:18:32.000Z</time>
      </trkpt>
      <trkpt lat="43.79523" lon="0.90536">
        <ele>123.4</ele>
        <time>2017-03-22T11:18:41.000Z</time>
      </trkpt>
      <trkpt lat="43.79534" lon="0.90536">
        <ele>123.3</ele>
        <time>2017-03-22T11:18:46.000Z</time>
      </trkpt>
      <trkpt lat="43.79544" lon="0.90537">
        <ele>123.3</ele>
        <time>2017-03-22T11:18:50.000Z</time>
      </trkpt>
      <trkpt lat="43.79554" lon="0.90538">
        <ele>123.2</ele>
        <time>2017-03-22T11:18:57.000Z</time>
      </trkpt>
      <trkpt lat="43.79564" lon="0.90539">
        <ele>123.1</ele>
        <time>2017-03-22T11:19:5.000Z</time>
      </trkpt>
      <trkpt lat="43.79575" lon="0.9054">
        <ele>123</ele>
        <time>2017-03-22T11:19:16.000Z</time>
      </trkpt>
      <trkpt lat="43.79585" lon="0.90543">
        <ele>123</ele>
        <time>2017-03-22T11:19:21.000Z</time>
      </trkpt>
      <trkpt lat="43.79594" lon="0.90546">
        <ele>122.7</ele>
        <time>2017-03-22T11:19:46.000Z</time>
      </trkpt>
      <trkpt lat="43.79603" lon="0.90543">
        <ele>122.6</ele>
        <time>2017-03-22T11:19:54.000Z</time>
      </trkpt>
      <trkpt lat="43.79612" lon="0.90545">
        <ele>121.9</ele>
        <time>2017-03-22T11:20:11.000Z</time>
      </trkpt>
      <trkpt lat="43.79621" lon="0.9055">
        <ele>121.5</ele>
        <time>2017-03-22T11:20:21.000Z</time>
      </trkpt>
      <trkpt lat="43.79627" lon="0.9056">
        <ele>121.1</ele>
        <time>2017-03-22T11:20:30.000Z</time>
      </trkpt>
      <trkpt lat="43.79635" lon="0.90567">
        <ele>120.8</ele>
        <time>2017-03-22T11:20:39.000Z</time>
      </trkpt>
      <trkpt lat="43.79644" lon="0.90565">
        <ele>120.5</ele>
        <time>2017-03-22T11:20:43.000Z</time>
      </trkpt>
      <trkpt lat="43.79652" lon="0.90573">
        <ele>120.1</ele>
        <time>2017-03-22T11:20:53.000Z</time>
      </trkpt>
      <trkpt lat="43.79659" lon="0.90582">
        <ele>119.8</ele>
        <time>2017-03-22T11:21:3.000Z</time>
      </trkpt>
      <trkpt lat="43.79668" lon="0.90588">
        <ele>119.7</ele>
        <time>2017-03-22T11:21:11.000Z</time>
      </trkpt>
      <trkpt lat="43.79677" lon="0.90592">
        <ele>119.6</ele>
        <time>2017-03-22T11:21:20.000Z</time>
      </trkpt>
      <trkpt lat="43.79687" lon="0.9059">
        <ele>119.3</ele>
        <time>2017-03-22T11:21:35.000Z</time>
      </trkpt>
      <trkpt lat="43.79694" lon="0.9058">
        <ele>118.7</ele>
        <time>2017-03-22T11:21:45.000Z</time>
      </trkpt>
      <trkpt lat="43.79702" lon="0.90572">
        <ele>118.1</ele>
        <time>2017-03-22T11:21:51.000Z</time>
      </trkpt>
      <trkpt lat="43.79702" lon="0.90559">
        <ele>116.4</ele>
        <time>2017-03-22T11:22:2.000Z</time>
      </trkpt>
      <trkpt lat="43.79706" lon="0.90548">
        <ele>113.7</ele>
        <time>2017-03-22T11:22:16.000Z</time>
      </trkpt>
      <trkpt lat="43.79713" lon="0.90538">
        <ele>112.3</ele>
        <time>2017-03-22T11:22:22.000Z</time>
      </trkpt>
      <trkpt lat="43.79722" lon="0.90529">
        <ele>111.1</ele>
        <time>2017-03-22T11:22:28.000Z</time>
      </trkpt>
      <trkpt lat="43.79721" lon="0.90515">
        <ele>106.1</ele>
        <time>2017-03-22T11:22:50.000Z</time>
      </trkpt>
      <trkpt lat="43.79725" lon="0.90504">
        <ele>104.1</ele>
        <time>2017-03-22T11:23:0.000Z</time>
      </trkpt>
      <trkpt lat="43.79734" lon="0.90493">
        <ele>103.5</ele>
        <time>2017-03-22T11:23:3.000Z</time>
      </trkpt>
      <trkpt lat="43.79742" lon="0.90487">
        <ele>102.1</ele>
        <time>2017-03-22T11:23:10.000Z</time>
      </trkpt>
      <trkpt lat="43.79745" lon="0.90474">
        <ele>99.8</ele>
        <time>2017-03-22T11:23:22.000Z</time>
      </trkpt>
      <trkpt lat="43.79751" lon="0.90463">
        <ele>98.5</ele>
        <time>2017-03-22T11:23:29.000Z</time>
      </trkpt>
      <trkpt lat="43.79759" lon="0.90456">
        <ele>97.5</ele>
        <time>2017-03-22T11:23:35.000Z</time>
      </trkpt>
      <trkpt lat="43.79765" lon="0.90445">
        <ele>96.4</ele>
        <time>2017-03-22T11:23:42.000Z</time>
      </trkpt>
      <trkpt lat="43.79768" lon="0.90433">
        <ele>95.3</ele>
        <time>2017-03-22T11:23:50.000Z</time>
      </trkpt>
      <trkpt lat="43.79767" lon="0.9042">
        <ele>93.7</ele>
        <time>2017-03-22T11:24:2.000Z</time>
      </trkpt>
      <trkpt lat="43.79769" lon="0.90407">
        <ele>91.9</ele>
        <time>2017-03-22T11:24:17.000Z</time>
      </trkpt>
      <trkpt lat="43.79772" lon="0.90394">
        <ele>90.1</ele>
        <time>2017-03-22T11:24:31.000Z</time>
      </trkpt>
      <trkpt lat="43.79771" lon="0.90382">
        <ele>89</ele>
        <time>2017-03-22T11:24:41.000Z</time>
      </trkpt>
      <trkpt lat="43.79767" lon="0.90369">
        <ele>86.5</ele>
        <time>2017-03-22T11:25:5.000Z</time>
      </trkpt>
      <trkpt lat="43.79772" lon="0.90358">
        <ele>84.7</ele>
        <time>2017-03-22T11:25:20.000Z</time>
      </trkpt>
      <trkpt lat="43.79773" lon="0.90345">
        <ele>83.1</ele>
        <time>2017-03-22T11:25:34.000Z</time>
      </trkpt>
      <trkpt lat="43.79776" lon="0.90332">
        <ele>82.2</ele>
        <time>2017-03-22T11:25:41.000Z</time>
      </trkpt>
      <trkpt lat="43.7978" lon="0.9032">
        <ele>81.3</ele>
        <time>2017-03-22T11:25:48.000Z</time>
      </trkpt>
      <trkpt lat="43.79786" lon="0.90309">
        <ele>80.2</ele>
        <time>2017-03-22T11:25:56.000Z</time>
      </trkpt>
      <trkpt lat="43.79792" lon="0.903">
        <ele>79.1</ele>
        <time>2017-03-22T11:26:7.000Z</time>
      </trkpt>
      <trkpt lat="43.79799" lon="0.90292">
        <ele>78.2</ele>
        <time>2017-03-22T11:26:22.000Z</time>
      </trkpt>
      <trkpt lat="43.79799" lon="0.90279">
        <ele>77.8</ele>
        <time>2017-03-22T11:26:33.000Z</time>
      </trkpt>
      <trkpt lat="43.79798" lon="0.90266">
        <ele>77.5</ele>
        <time>2017-03-22T11:26:45.000Z</time>
      </trkpt>
      <trkpt lat="43.79798" lon="0.9025">
        <ele>77.5</ele>
        <time>2017-03-22T11:26:53.000Z</time>
      </trkpt>
      <trkpt lat="43.79797" lon="0.90237">
        <ele>77.4</ele>
        <time>2017-03-22T11:27:4.000Z</time>
      </trkpt>
      <trkpt lat="43.79795" lon="0.90225">
        <ele>77.4</ele>
        <time>2017-03-22T11:27:12.000Z</time>
      </trkpt>
      <trkpt lat="43.79793" lon="0.9021">
        <ele>77.4</ele>
        <time>2017-03-22T11:27:18.000Z</time>
      </trkpt>
      <trkpt lat="43.79794" lon="0.90197">
        <ele>77.4</ele>
        <time>2017-03-22T11:27:24.000Z</time>
      </trkpt>
      <trkpt lat="43.79795" lon="0.90184">
        <ele>77.4</ele>
        <time>2017-03-22T11:27:27.000Z</time>
      </trkpt>
      <trkpt lat="43.79801" lon="0.90174">
        <ele>77.4</ele>
        <time>2017-03-22T11:27:36.000Z</time>
      </trkpt>
      <trkpt lat="43.7981" lon="0.90175">
        <ele>77.4</ele>
        <time>2017-03-22T11:27:46.000Z</time>
      </trkpt>
      <trkpt lat="43.79813" lon="0.90163">
        <ele>77.4</ele>
        <time>2017-03-22T11:27:53.000Z</time>
      </trkpt>
      <trkpt lat="43.79817" lon="0.9015">
        <ele>77.4</ele>
        <time>2017-03-22T11:28:1.000Z</time>
      </trkpt>
      <trkpt lat="43.79821" lon="0.90137">
        <ele>77.4</ele>
        <time>2017-03-22T11:28:8.000Z</time>
      </trkpt>
      <trkpt lat="43.79824" lon="0.90125">
        <ele>77.4</ele>
        <time>2017-03-22T11:28:13.000Z</time>
      </trkpt>
      <trkpt lat="43.79832" lon="0.90118">
        <ele>77.4</ele>
        <time>2017-03-22T11:28:20.000Z</time>
      </trkpt>
      <trkpt lat="43.79841" lon="0.90106">
        <ele>77.4</ele>
        <time>2017-03-22T11:28:30.000Z</time>
      </trkpt>
      <trkpt lat="43.79842" lon="0.90093">
        <ele>77.4</ele>
        <time>2017-03-22T11:28:43.000Z</time>
      </trkpt>
      <trkpt lat="43.7985" lon="0.90087">
        <ele>77.4</ele>
        <time>2017-03-22T11:28:56.000Z</time>
      </trkpt>
      <trkpt lat="43.79855" lon="0.90075">
        <ele>77.4</ele>
        <time>2017-03-22T11:29:5.000Z</time>
      </trkpt>
      <trkpt lat="43.79861" lon="0.90064">
        <ele>77.4</ele>
        <time>2017-03-22T11:29:15.000Z</time>
      </trkpt>
      <trkpt lat="43.79869" lon="0.90057">
        <ele>77.4</ele>
        <time>2017-03-22T11:29:21.000Z</time>
      </trkpt>
      <trkpt lat="43.79879" lon="0.90053">
        <ele>77.3</ele>
        <time>2017-03-22T11:29:30.000Z</time>
      </trkpt>
      <trkpt lat="43.7989" lon="0.90057">
        <ele>77.3</ele>
        <time>2017-03-22T11:29:40.000Z</time>
      </trkpt>
      <trkpt lat="43.79896" lon="0.90066">
        <ele>77.3</ele>
        <time>2017-03-22T11:29:46.000Z</time>
      </trkpt>
      <trkpt lat="43.79906" lon="0.90062">
        <ele>77.2</ele>
        <time>2017-03-22T11:29:59.000Z</time>
      </trkpt>
      <trkpt lat="43.79915" lon="0.90062">
        <ele>77.2</ele>
        <time>2017-03-22T11:30:10.000Z</time>
      </trkpt>
      <trkpt lat="43.79926" lon="0.90062">
        <ele>77.1</ele>
        <time>2017-03-22T11:30:17.000Z</time>
      </trkpt>
      <trkpt lat="43.79937" lon="0.90066">
        <ele>77.1</ele>
        <time>2017-03-22T11:30:22.000Z</time>
      </trkpt>
      <trkpt lat="43.79946" lon="0.90062">
        <ele>77.1</ele>
        <time>2017-03-22T11:30:34.000Z</time>
      </trkpt>
      <trkpt lat="43.79955" lon="0.90057">
        <ele>77.1</ele>
        <time>2017-03-22T11:30:45.000Z</time>
      </trkpt>
      <trkpt lat="43.79962" lon="0.90049">
        <ele>77.1</ele>
        <time>2017-03-22T11:30:55.000Z</time>
      </trkpt>
      <trkpt lat="43.79972" lon="0.90046">
        <ele>77.1</ele>
        <time>2017-03-22T11:31:5.000Z</time>
      </trkpt>
      <trkpt lat="43.79983" lon="0.90046">
        <ele>77.1</ele>
        <time>2017-03-22T11:31:13.000Z</time>
      </trkpt>
      <trkpt lat="43.79991" lon="0.90043">
        <ele>77.1</ele>
        <time>2017-03-22T11:31:20.000Z</time>
      </trkpt>
      <trkpt lat="43.80001" lon="0.90042">
        <ele>77.1</ele>
        <time>2017-03-22T11:31:28.000Z</time>
      </trkpt>
      <trkpt lat="43.8001" lon="0.90043">
        <ele>77.1</ele>
        <time>2017-03-22T11:31:36.000Z</time>
      </trkpt>
      <trkpt lat="43.80021" lon="0.90042">
        <ele>77</ele>
        <time>2017-03-22T11:31:45.000Z</time>
      </trkpt>
      <trkpt lat="43.8003" lon="0.90039">
        <ele>77</ele>
        <time>2017-03-22T11:31:56.000Z</time>
      </trkpt>
      <trkpt lat="43.80039" lon="0.90037">
        <ele>77</ele>
        <time>2017-03-22T11:32:3.000Z</time>
      </trkpt>
      <trkpt lat="43.80048" lon="0.90031">
        <ele>77</ele>
        <time>2017-03-22T11:32:12.000Z</time>
      </trkpt>
      <trkpt lat="43.80062" lon="0.90025">
        <ele>77</ele>
        <time>2017-03-22T11:32:17.000Z</time>
      </trkpt>
      <trkpt lat="43.80073" lon="0.90017">
        <ele>77</ele>
        <time>2017-03-22T11:32:24.000Z</time>
      </trkpt>
      <trkpt lat="43.80084" lon="0.90012">
        <ele>77</ele>
        <time>2017-03-22T11:32:31.000Z</time>
      </trkpt>
      <trkpt lat="43.80093" lon="0.90013">
        <ele>76.8</ele>
        <time>2017-03-22T11:32:42.000Z</time>
      </trkpt>
      <trkpt lat="43.80103" lon="0.90018">
        <ele>76.7</ele>
        <time>2017-03-22T11:32:52.000Z</time>
      </trkpt>
      <trkpt lat="43.80113" lon="0.90023">
        <ele>76.7</ele>
        <time>2017-03-22T11:33:1.000Z</time>
      </trkpt>
      <trkpt lat="43.80122" lon="0.90026">
        <ele>76.8</ele>
        <time>2017-03-22T11:33:8.000Z</time>
      </trkpt>
      <trkpt lat="43.80131" lon="0.90029">
        <ele>76.9</ele>
        <time>2017-03-22T11:33:15.000Z</time>
      </trkpt>
      <trkpt lat="43.80141" lon="0.90032">
        <ele>77</ele>
        <time>2017-03-22T11:33:24.000Z</time>
      </trkpt>
      <trkpt lat="43.8015" lon="0.90037">
        <ele>77.1</ele>
        <time>2017-03-22T11:33:33.000Z</time>
      </trkpt>
      <trkpt lat="43.80158" lon="0.90042">
        <ele>77.3</ele>
        <time>2017-03-22T11:33:42.000Z</time>
      </trkpt>
      <trkpt lat="43.80166" lon="0.90049">
        <ele>77.5</ele>
        <time>2017-03-22T11:33:52.000Z</time>
      </trkpt>
      <trkpt lat="43.8017" lon="0.90061">
        <ele>77.7</ele>
        <time>2017-03-22T11:34:1.000Z</time>
      </trkpt>
      <trkpt lat="43.80171" lon="0.90073">
        <ele>77.9</ele>
        <time>2017-03-22T11:34:10.000Z</time>
      </trkpt>
      <trkpt lat="43.80173" lon="0.90086">
        <ele>78.2</ele>
        <time>2017-03-22T11:34:21.000Z</time>
      </trkpt>
      <trkpt lat="43.80174" lon="0.90099">
        <ele>78.4</ele>
        <time>2017-03-22T11:34:31.000Z</time>
      </trkpt>
      <trkpt lat="43.80174" lon="0.90113">
        <ele>78.6</ele>
        <time>2017-03-22T11:34:40.000Z</time>
      </trkpt>
      <trkpt lat="43.80174" lon="0.90125">
        <ele>78.9</ele>
        <time>2017-03-22T11:34:50.000Z</time>
      </trkpt>
      <trkpt lat="43.80171" lon="0.90137">
        <ele>79</ele>
        <time>2017-03-22T11:34:55.000Z</time>
      </trkpt>
      <trkpt lat="43.80173" lon="0.9015">
        <ele>79.2</ele>
        <time>2017-03-22T11:35:3.000Z</time>
      </trkpt>
      <trkpt lat="43.80179" lon="0.90161">
        <ele>79.1</ele>
        <time>2017-03-22T11:35:13.000Z</time>
      </trkpt>
      <trkpt lat="43.80186" lon="0.90169">
        <ele>79.3</ele>
        <time>2017-03-22T11:35:21.000Z</time>
      </trkpt>
      <trkpt lat="43.80196" lon="0.90173">
        <ele>79.5</ele>
        <time>2017-03-22T11:35:30.000Z</time>
      </trkpt>
      <trkpt lat="43.80205" lon="0.90179">
        <ele>79.7</ele>
        <time>2017-03-22T11:35:39.000Z</time>
      </trkpt>
      <trkpt lat="43.80215" lon="0.90181">
        <ele>79.9</ele>
        <time>2017-03-22T11:35:47.000Z</time>
      </trkpt>
      <trkpt lat="43.80225" lon="0.90179">
        <ele>80</ele>
        <time>2017-03-22T11:35:54.000Z</time>
      </trkpt>
      <trkpt lat="43.80234" lon="0.9018">
        <ele>80.3</ele>
        <time>2017-03-22T11:36:4.000Z</time>
      </trkpt>
      <trkpt lat="43.80243" lon="0.90176">
        <ele>80.5</ele>
        <time>2017-03-22T11:36:14.000Z</time>
      </trkpt>
      <trkpt lat="43.80251" lon="0.90169">
        <ele>80.8</ele>
        <time>2017-03-22T11:36:27.000Z</time>
      </trkpt>
      <trkpt lat="43.80258" lon="0.90161">
        <ele>81</ele>
        <time>2017-03-22T11:36:37.000Z</time>
      </trkpt>
      <trkpt lat="43.80267" lon="0.90156">
        <ele>81.4</ele>
        <time>2017-03-22T11:36:51.000Z</time>
      </trkpt>
      <trkpt lat="43.80275" lon="0.90161">
        <ele>81.6</ele>
        <time>2017-03-22T11:37:2.000Z</time>
      </trkpt>
      <trkpt lat="43.80284" lon="0.90167">
        <ele>81.8</ele>
        <time>2017-03-22T11:37:12.000Z</time>
      </trkpt>
      <trkpt lat="43.8029" lon="0.90176">
        <ele>81.8</ele>
        <time>2017-03-22T11:37:21.000Z</time>
      </trkpt>
      <trkpt lat="43.80302" lon="0.90181">
        <ele>81.8</ele>
        <time>2017-03-22T11:37:23.000Z</time>
      </trkpt>
      <trkpt lat="43.8031" lon="0.90187">
        <ele>82</ele>
        <time>2017-03-22T11:37:27.000Z</time>
      </trkpt>
      <trkpt lat="43.80317" lon="0.90196">
        <ele>82.2</ele>
        <time>2017-03-22T11:37:38.000Z</time>
      </trkpt>
      <trkpt lat="43.80326" lon="0.902">
        <ele>80.3</ele>
        <time>2017-03-22T11:37:49.000Z</time>
      </trkpt>
      <trkpt lat="43.80335" lon="0.90206">
        <ele>81.3</ele>
        <time>2017-03-22T11:38:0.000Z</time>
      </trkpt>
      <trkpt lat="43.80343" lon="0.90212">
        <ele>83.2</ele>
        <time>2017-03-22T11:38:24.000Z</time>
      </trkpt>
      <trkpt lat="43.80352" lon="0.90211">
        <ele>83.6</ele>
        <time>2017-03-22T11:38:34.000Z</time>
      </trkpt>
      <trkpt lat="43.80362" lon="0.90215">
        <ele>83.8</ele>
        <time>2017-03-22T11:38:38.000Z</time>
      </trkpt>
      <trkpt lat="43.80371" lon="0.90223">
        <ele>84</ele>
        <time>2017-03-22T11:38:44.000Z</time>
      </trkpt>
      <trkpt lat="43.8038" lon="0.90226">
        <ele>84.3</ele>
        <time>2017-03-22T11:38:56.000Z</time>
      </trkpt>
      <trkpt lat="43.80386" lon="0.90237">
        <ele>84.8</ele>
        <time>2017-03-22T11:39:20.000Z</time>
      </trkpt>
      <trkpt lat="43.80381" lon="0.90248">
        <ele>85</ele>
        <time>2017-03-22T11:39:29.000Z</time>
      </trkpt>
      <trkpt lat="43.80378" lon="0.90261">
        <ele>85.2</ele>
        <time>2017-03-22T11:39:37.000Z</time>
      </trkpt>
      <trkpt lat="43.80372" lon="0.90271">
        <ele>85.4</ele>
        <time>2017-03-22T11:39:44.000Z</time>
      </trkpt>
      <trkpt lat="43.8037" lon="0.90284">
        <ele>85.6</ele>
        <time>2017-03-22T11:39:52.000Z</time>
      </trkpt>
      <trkpt lat="43.80365" lon="0.90295">
        <ele>86</ele>
        <time>2017-03-22T11:40:6.000Z</time>
      </trkpt>
      <trkpt lat="43.8036" lon="0.90313">
        <ele>86.5</ele>
        <time>2017-03-22T11:40:22.000Z</time>
      </trkpt>
      <trkpt lat="43.80359" lon="0.90327">
        <ele>86.8</ele>
        <time>2017-03-22T11:40:32.000Z</time>
      </trkpt>
      <trkpt lat="43.80356" lon="0.9034">
        <ele>87.1</ele>
        <time>2017-03-22T11:40:41.000Z</time>
      </trkpt>
      <trkpt lat="43.80355" lon="0.90353">
        <ele>87.3</ele>
        <time>2017-03-22T11:40:48.000Z</time>
      </trkpt>
      <trkpt lat="43.80357" lon="0.90367">
        <ele>87.4</ele>
        <time>2017-03-22T11:40:54.000Z</time>
      </trkpt>
      <trkpt lat="43.80359" lon="0.90381">
        <ele>87.6</ele>
        <time>2017-03-22T11:41:0.000Z</time>
      </trkpt>
      <trkpt lat="43.80358" lon="0.90394">
        <ele>87.7</ele>
        <time>2017-03-22T11:41:6.000Z</time>
      </trkpt>
      <trkpt lat="43.80359" lon="0.90407">
        <ele>87.9</ele>
        <time>2017-03-22T11:41:14.000Z</time>
      </trkpt>
      <trkpt lat="43.8036" lon="0.9042">
        <ele>88.1</ele>
        <time>2017-03-22T11:41:22.000Z</time>
      </trkpt>
      <trkpt lat="43.80359" lon="0.90433">
        <ele>88.3</ele>
        <time>2017-03-22T11:41:29.000Z</time>
      </trkpt>
      <trkpt lat="43.8036" lon="0.90446">
        <ele>88.5</ele>
        <time>2017-03-22T11:41:36.000Z</time>
      </trkpt>
      <trkpt lat="43.80359" lon="0.90458">
        <ele>88.6</ele>
        <time>2017-03-22T11:41:43.000Z</time>
      </trkpt>
      <trkpt lat="43.80359" lon="0.90471">
        <ele>88.8</ele>
        <time>2017-03-22T11:41:50.000Z</time>
      </trkpt>
      <trkpt lat="43.80359" lon="0.90485">
        <ele>89</ele>
        <time>2017-03-22T11:41:59.000Z</time>
      </trkpt>
      <trkpt lat="43.80359" lon="0.90498">
        <ele>89.2</ele>
        <time>2017-03-22T11:42:6.000Z</time>
      </trkpt>
      <trkpt lat="43.80358" lon="0.90511">
        <ele>89.6</ele>
        <time>2017-03-22T11:42:15.000Z</time>
      </trkpt>
      <trkpt lat="43.80359" lon="0.90524">
        <ele>89.9</ele>
        <time>2017-03-22T11:42:24.000Z</time>
      </trkpt>
      <trkpt lat="43.80359" lon="0.90537">
        <ele>90.3</ele>
        <time>2017-03-22T11:42:33.000Z</time>
      </trkpt>
      <trkpt lat="43.8036" lon="0.9055">
        <ele>90.5</ele>
        <time>2017-03-22T11:42:40.000Z</time>
      </trkpt>
      <trkpt lat="43.80361" lon="0.90562">
        <ele>90.7</ele>
        <time>2017-03-22T11:42:48.000Z</time>
      </trkpt>
      <trkpt lat="43.80361" lon="0.90576">
        <ele>90.9</ele>
        <time>2017-03-22T11:42:57.000Z</time>
      </trkpt>
      <trkpt lat="43.8036" lon="0.90589">
        <ele>91.2</ele>
        <time>2017-03-22T11:43:5.000Z</time>
      </trkpt>
      <trkpt lat="43.8036" lon="0.90602">
        <ele>91.4</ele>
        <time>2017-03-22T11:43:13.000Z</time>
      </trkpt>
      <trkpt lat="43.80361" lon="0.90616">
        <ele>91.6</ele>
        <time>2017-03-22T11:43:21.000Z</time>
      </trkpt>
      <trkpt lat="43.8036" lon="0.90629">
        <ele>91.9</ele>
        <time>2017-03-22T11:43:30.000Z</time>
      </trkpt>
      <trkpt lat="43.80361" lon="0.90643">
        <ele>92.2</ele>
        <time>2017-03-22T11:43:38.000Z</time>
      </trkpt>
      <trkpt lat="43.80362" lon="0.90656">
        <ele>92.8</ele>
        <time>2017-03-22T11:43:48.000Z</time>
      </trkpt>
      <trkpt lat="43.80363" lon="0.9067">
        <ele>93.4</ele>
        <time>2017-03-22T11:43:58.000Z</time>
      </trkpt>
      <trkpt lat="43.80362" lon="0.90682">
        <ele>93.9</ele>
        <time>2017-03-22T11:44:5.000Z</time>
      </trkpt>
      <trkpt lat="43.80361" lon="0.90696">
        <ele>94.4</ele>
        <time>2017-03-22T11:44:14.000Z</time>
      </trkpt>
      <trkpt lat="43.80363" lon="0.9071">
        <ele>94.8</ele>
        <time>2017-03-22T11:44:22.000Z</time>
      </trkpt>
      <trkpt lat="43.80363" lon="0.90723">
        <ele>95</ele>
        <time>2017-03-22T11:44:29.000Z</time>
      </trkpt>
      <trkpt lat="43.80365" lon="0.90736">
        <ele>95.4</ele>
        <time>2017-03-22T11:44:36.000Z</time>
      </trkpt>
      <trkpt lat="43.80366" lon="0.90749">
        <ele>95.8</ele>
        <time>2017-03-22T11:44:44.000Z</time>
      </trkpt>
      <trkpt lat="43.80366" lon="0.90763">
        <ele>96.2</ele>
        <time>2017-03-22T11:44:52.000Z</time>
      </trkpt>
      <trkpt lat="43.80365" lon="0.90776">
        <ele>96.5</ele>
        <time>2017-03-22T11:45:0.000Z</time>
      </trkpt>
      <trkpt lat="43.80366" lon="0.90789">
        <ele>96.8</ele>
        <time>2017-03-22T11:45:9.000Z</time>
      </trkpt>
      <trkpt lat="43.80367" lon="0.90802">
        <ele>97.1</ele>
        <time>2017-03-22T11:45:18.000Z</time>
      </trkpt>
      <trkpt lat="43.80368" lon="0.90816">
        <ele>97.4</ele>
        <time>2017-03-22T11:45:26.000Z</time>
      </trkpt>
      <trkpt lat="43.80367" lon="0.9083">
        <ele>97.5</ele>
        <time>2017-03-22T11:45:32.000Z</time>
      </trkpt>
      <trkpt lat="43.80369" lon="0.90843">
        <ele>97.8</ele>
        <time>2017-03-22T11:45:40.000Z</time>
      </trkpt>
      <trkpt lat="43.8037" lon="0.90857">
        <ele>98.2</ele>
        <time>2017-03-22T11:45:49.000Z</time>
      </trkpt>
      <trkpt lat="43.80372" lon="0.9087">
        <ele>98.4</ele>
        <time>2017-03-22T11:45:56.000Z</time>
      </trkpt>
      <trkpt lat="43.80373" lon="0.90882">
        <ele>98.6</ele>
        <time>2017-03-22T11:46:2.000Z</time>
      </trkpt>
      <trkpt lat="43.80372" lon="0.90895">
        <ele>98.8</ele>
        <time>2017-03-22T11:46:10.000Z</time>
      </trkpt>
      <trkpt lat="43.80372" lon="0.90908">
        <ele>99</ele>
        <time>2017-03-22T11:46:19.000Z</time>
      </trkpt>
      <trkpt lat="43.80372" lon="0.90923">
        <ele>99.2</ele>
        <time>2017-03-22T11:46:27.000Z</time>
      </trkpt>
      <trkpt lat="43.80372" lon="0.90936">
        <ele>99.4</ele>
        <time>2017-03-22T11:46:35.000Z</time>
      </trkpt>
      <trkpt lat="43.80373" lon="0.9095">
        <ele>99.6</ele>
        <time>2017-03-22T11:46:42.000Z</time>
      </trkpt>
      <trkpt lat="43.80374" lon="0.90963">
        <ele>99.8</ele>
        <time>2017-03-22T11:46:50.000Z</time>
      </trkpt>
      <trkpt lat="43.80373" lon="0.90977">
        <ele>100</ele>
        <time>2017-03-22T11:46:58.000Z</time>
      </trkpt>
      <trkpt lat="43.80375" lon="0.90991">
        <ele>100.1</ele>
        <time>2017-03-22T11:47:6.000Z</time>
      </trkpt>
      <trkpt lat="43.80374" lon="0.91004">
        <ele>100.3</ele>
        <time>2017-03-22T11:47:14.000Z</time>
      </trkpt>
      <trkpt lat="43.80375" lon="0.91018">
        <ele>100.5</ele>
        <time>2017-03-22T11:47:22.000Z</time>
      </trkpt>
      <trkpt lat="43.80375" lon="0.91031">
        <ele>100.7</ele>
        <time>2017-03-22T11:47:29.000Z</time>
      </trkpt>
      <trkpt lat="43.80378" lon="0.91045">
        <ele>100.9</ele>
        <time>2017-03-22T11:47:37.000Z</time>
      </trkpt>
      <trkpt lat="43.80377" lon="0.91057">
        <ele>101</ele>
        <time>2017-03-22T11:47:44.000Z</time>
      </trkpt>
      <trkpt lat="43.80376" lon="0.9107">
        <ele>101.2</ele>
        <time>2017-03-22T11:47:52.000Z</time>
      </trkpt>
      <trkpt lat="43.80376" lon="0.91084">
        <ele>101.4</ele>
        <time>2017-03-22T11:48:0.000Z</time>
      </trkpt>
      <trkpt lat="43.80378" lon="0.91098">
        <ele>101.6</ele>
        <time>2017-03-22T11:48:8.000Z</time>
      </trkpt>
      <trkpt lat="43.80378" lon="0.91112">
        <ele>101.8</ele>
        <time>2017-03-22T11:48:17.000Z</time>
      </trkpt>
      <trkpt lat="43.80378" lon="0.91125">
        <ele>102</ele>
        <time>2017-03-22T11:48:25.000Z</time>
      </trkpt>
      <trkpt lat="43.80378" lon="0.91139">
        <ele>102.2</ele>
        <time>2017-03-22T11:48:33.000Z</time>
      </trkpt>
      <trkpt lat="43.80379" lon="0.91152">
        <ele>102.3</ele>
        <time>2017-03-22T11:48:40.000Z</time>
      </trkpt>
      <trkpt lat="43.80378" lon="0.91166">
        <ele>102.5</ele>
        <time>2017-03-22T11:48:47.000Z</time>
      </trkpt>
      <trkpt lat="43.80377" lon="0.91178">
        <ele>102.6</ele>
        <time>2017-03-22T11:48:54.000Z</time>
      </trkpt>
      <trkpt lat="43.80377" lon="0.91191">
        <ele>102.8</ele>
        <time>2017-03-22T11:49:1.000Z</time>
      </trkpt>
      <trkpt lat="43.80377" lon="0.91204">
        <ele>103</ele>
        <time>2017-03-22T11:49:9.000Z</time>
      </trkpt>
      <trkpt lat="43.80379" lon="0.91216">
        <ele>103.1</ele>
        <time>2017-03-22T11:49:16.000Z</time>
      </trkpt>
      <trkpt lat="43.80379" lon="0.91231">
        <ele>103.3</ele>
        <time>2017-03-22T11:49:24.000Z</time>
      </trkpt>
      <trkpt lat="43.80378" lon="0.91244">
        <ele>103.5</ele>
        <time>2017-03-22T11:49:31.000Z</time>
      </trkpt>
      <trkpt lat="43.8038" lon="0.91258">
        <ele>103.6</ele>
        <time>2017-03-22T11:49:39.000Z</time>
      </trkpt>
      <trkpt lat="43.8038" lon="0.91272">
        <ele>103.8</ele>
        <time>2017-03-22T11:49:47.000Z</time>
      </trkpt>
      <trkpt lat="43.80382" lon="0.91285">
        <ele>104</ele>
        <time>2017-03-22T11:49:54.000Z</time>
      </trkpt>
      <trkpt lat="43.80379" lon="0.91298">
        <ele>104.2</ele>
        <time>2017-03-22T11:50:2.000Z</time>
      </trkpt>
      <trkpt lat="43.80379" lon="0.91312">
        <ele>104.4</ele>
        <time>2017-03-22T11:50:10.000Z</time>
      </trkpt>
      <trkpt lat="43.80381" lon="0.91325">
        <ele>104.6</ele>
        <time>2017-03-22T11:50:18.000Z</time>
      </trkpt>
      <trkpt lat="43.80384" lon="0.91338">
        <ele>104.8</ele>
        <time>2017-03-22T11:50:27.000Z</time>
      </trkpt>
      <trkpt lat="43.80385" lon="0.91352">
        <ele>104.8</ele>
        <time>2017-03-22T11:50:36.000Z</time>
      </trkpt>
      <trkpt lat="43.80387" lon="0.91364">
        <ele>104.9</ele>
        <time>2017-03-22T11:50:44.000Z</time>
      </trkpt>
      <trkpt lat="43.80389" lon="0.91378">
        <ele>105.1</ele>
        <time>2017-03-22T11:50:52.000Z</time>
      </trkpt>
      <trkpt lat="43.80388" lon="0.91391">
        <ele>105.2</ele>
        <time>2017-03-22T11:50:59.000Z</time>
      </trkpt>
      <trkpt lat="43.8039" lon="0.91404">
        <ele>105.4</ele>
        <time>2017-03-22T11:51:6.000Z</time>
      </trkpt>
      <trkpt lat="43.80391" lon="0.91416">
        <ele>105.5</ele>
        <time>2017-03-22T11:51:12.000Z</time>
      </trkpt>
      <trkpt lat="43.80397" lon="0.91427">
        <ele>105.6</ele>
        <time>2017-03-22T11:51:20.000Z</time>
      </trkpt>
      <trkpt lat="43.804" lon="0.91439">
        <ele>105.6</ele>
        <time>2017-03-22T11:51:27.000Z</time>
      </trkpt>
      <trkpt lat="43.80402" lon="0.91453">
        <ele>105.7</ele>
        <time>2017-03-22T11:51:34.000Z</time>
      </trkpt>
      <trkpt lat="43.80407" lon="0.91464">
        <ele>105.8</ele>
        <time>2017-03-22T11:51:42.000Z</time>
      </trkpt>
      <trkpt lat="43.80411" lon="0.91477">
        <ele>105.9</ele>
        <time>2017-03-22T11:51:49.000Z</time>
      </trkpt>
      <trkpt lat="43.80418" lon="0.91487">
        <ele>106</ele>
        <time>2017-03-22T11:51:57.000Z</time>
      </trkpt>
      <trkpt lat="43.80425" lon="0.91496">
        <ele>106</ele>
        <time>2017-03-22T11:52:6.000Z</time>
      </trkpt>
      <trkpt lat="43.80435" lon="0.915">
        <ele>106.1</ele>
        <time>2017-03-22T11:52:13.000Z</time>
      </trkpt>
      <trkpt lat="43.80444" lon="0.91503">
        <ele>106.2</ele>
        <time>2017-03-22T11:52:20.000Z</time>
      </trkpt>
      <trkpt lat="43.80452" lon="0.91511">
        <ele>106.3</ele>
        <time>2017-03-22T11:52:26.000Z</time>
      </trkpt>
      <trkpt lat="43.80461" lon="0.91517">
        <ele>106.4</ele>
        <time>2017-03-22T11:52:32.000Z</time>
      </trkpt>
      <trkpt lat="43.80469" lon="0.91525">
        <ele>106.6</ele>
        <time>2017-03-22T11:52:41.000Z</time>
      </trkpt>
      <trkpt lat="43.80477" lon="0.91531">
        <ele>106.9</ele>
        <time>2017-03-22T11:52:54.000Z</time>
      </trkpt>
      <trkpt lat="43.80486" lon="0.91538">
        <ele>107.1</ele>
        <time>2017-03-22T11:53:5.000Z</time>
      </trkpt>
      <trkpt lat="43.80494" lon="0.91546">
        <ele>107.2</ele>
        <time>2017-03-22T11:53:12.000Z</time>
      </trkpt>
      <trkpt lat="43.80502" lon="0.91554">
        <ele>107.3</ele>
        <time>2017-03-22T11:53:19.000Z</time>
      </trkpt>
      <trkpt lat="43.80508" lon="0.91565">
        <ele>107.4</ele>
        <time>2017-03-22T11:53:27.000Z</time>
      </trkpt>
      <trkpt lat="43.80514" lon="0.91567">
        <ele>119</ele>
        <time>2017-03-22T11:53:30.356Z</time>
      </trkpt>
      <trkpt lat="43.80521" lon="0.91574">
        <ele>119.9</ele>
        <time>2017-03-22T11:53:33.000Z</time>
      </trkpt>
      <trkpt lat="43.80529" lon="0.91582">
        <ele>121.1</ele>
        <time>2017-03-22T11:53:42.000Z</time>
      </trkpt>
      <trkpt lat="43.80538" lon="0.91589">
        <ele>122.3</ele>
        <time>2017-03-22T11:53:52.000Z</time>
      </trkpt>
      <trkpt lat="43.80542" lon="0.91599">
        <ele>123.8</ele>
        <time>2017-03-22T11:54:0.000Z</time>
      </trkpt>
      <trkpt lat="43.80545" lon="0.91609">
        <ele>125.1</ele>
        <time>2017-03-22T11:54:8.000Z</time>
      </trkpt>
      <trkpt lat="43.80551" lon="0.91618">
        <ele>126.6</ele>
        <time>2017-03-22T11:54:12.000Z</time>
      </trkpt>
      <trkpt lat="43.80557" lon="0.91625">
        <ele>128.2</ele>
        <time>2017-03-22T11:54:22.000Z</time>
      </trkpt>
      <trkpt lat="43.80564" lon="0.91633">
        <ele>110.3</ele>
        <time>2017-03-22T11:54:26.000Z</time>
      </trkpt>
      <trkpt lat="43.80573" lon="0.91635">
        <ele>111</ele>
        <time>2017-03-22T11:54:32.000Z</time>
      </trkpt>
      <trkpt lat="43.80583" lon="0.91639">
        <ele>112</ele>
        <time>2017-03-22T11:54:39.000Z</time>
      </trkpt>
      <trkpt lat="43.80587" lon="0.9165">
        <ele>113</ele>
        <time>2017-03-22T11:54:46.000Z</time>
      </trkpt>
      <trkpt lat="43.80594" lon="0.91658">
        <ele>114.5</ele>
        <time>2017-03-22T11:54:55.000Z</time>
      </trkpt>
      <trkpt lat="43.80602" lon="0.91666">
        <ele>116.1</ele>
        <time>2017-03-22T11:55:4.000Z</time>
      </trkpt>
      <trkpt lat="43.80608" lon="0.91676">
        <ele>117.8</ele>
        <time>2017-03-22T11:55:14.000Z</time>
      </trkpt>
      <trkpt lat="43.80615" lon="0.91684">
        <ele>120.5</ele>
        <time>2017-03-22T11:55:27.000Z</time>
      </trkpt>
      <trkpt lat="43.80622" lon="0.91693">
        <ele>122.4</ele>
        <time>2017-03-22T11:55:36.000Z</time>
      </trkpt>
      <trkpt lat="43.80629" lon="0.91701">
        <ele>123.5</ele>
        <time>2017-03-22T11:55:42.000Z</time>
      </trkpt>
      <trkpt lat="43.80639" lon="0.91704">
        <ele>125.5</ele>
        <time>2017-03-22T11:55:53.000Z</time>
      </trkpt>
      <trkpt lat="43.8065" lon="0.91709">
        <ele>127.6</ele>
        <time>2017-03-22T11:56:4.000Z</time>
      </trkpt>
      <trkpt lat="43.80659" lon="0.91708">
        <ele>128.6</ele>
        <time>2017-03-22T11:56:9.000Z</time>
      </trkpt>
      <trkpt lat="43.80668" lon="0.91705">
        <ele>138.6</ele>
        <time>2017-03-22T11:56:20.000Z</time>
      </trkpt>
      <trkpt lat="43.80677" lon="0.91702">
        <ele>140</ele>
        <time>2017-03-22T11:56:27.000Z</time>
      </trkpt>
      <trkpt lat="43.80689" lon="0.917">
        <ele>142.3</ele>
        <time>2017-03-22T11:56:33.000Z</time>
      </trkpt>
      <trkpt lat="43.80699" lon="0.91705">
        <ele>144.6</ele>
        <time>2017-03-22T11:56:42.000Z</time>
      </trkpt>
      <trkpt lat="43.80709" lon="0.91702">
        <ele>146.4</ele>
        <time>2017-03-22T11:56:50.000Z</time>
      </trkpt>
      <trkpt lat="43.80717" lon="0.91702">
        <ele>148.1</ele>
        <time>2017-03-22T11:58:11.000Z</time>
      </trkpt>
      <trkpt lat="43.80723" lon="0.91701">
        <ele>149</ele>
        <time>2017-03-22T11:58:22.000Z</time>
      </trkpt>
      <trkpt lat="43.80728" lon="0.91694">
        <ele>136.3</ele>
        <time>2017-03-22T11:58:37.000Z</time>
      </trkpt>
      <trkpt lat="43.80736" lon="0.91683">
        <ele>136.7</ele>
        <time>2017-03-22T11:58:53.000Z</time>
      </trkpt>
      <trkpt lat="43.80736" lon="0.91697">
        <ele>137.8</ele>
        <time>2017-03-22T11:59:45.000Z</time>
      </trkpt>
      <trkpt lat="43.80745" lon="0.91695">
        <ele>137.8</ele>
        <time>2017-03-22T12:00:0.000Z</time>
      </trkpt>
      <trkpt lat="43.80755" lon="0.91696">
        <ele>138</ele>
        <time>2017-03-22T12:00:12.000Z</time>
      </trkpt>
      <trkpt lat="43.80764" lon="0.91694">
        <ele>138.3</ele>
        <time>2017-03-22T12:00:24.000Z</time>
      </trkpt>
      <trkpt lat="43.80772" lon="0.91686">
        <ele>139</ele>
        <time>2017-03-22T12:00:35.000Z</time>
      </trkpt>
      <trkpt lat="43.80782" lon="0.91683">
        <ele>140.2</ele>
        <time>2017-03-22T12:00:48.000Z</time>
      </trkpt>
      <trkpt lat="43.8079" lon="0.91677">
        <ele>141.9</ele>
        <time>2017-03-22T12:01:2.000Z</time>
      </trkpt>
      <trkpt lat="43.80799" lon="0.91673">
        <ele>143.5</ele>
        <time>2017-03-22T12:01:13.000Z</time>
      </trkpt>
      <trkpt lat="43.80808" lon="0.91675">
        <ele>145</ele>
        <time>2017-03-22T12:01:22.000Z</time>
      </trkpt>
      <trkpt lat="43.80817" lon="0.9167">
        <ele>146.7</ele>
        <time>2017-03-22T12:01:32.000Z</time>
      </trkpt>
      <trkpt lat="43.80825" lon="0.91663">
        <ele>148.9</ele>
        <time>2017-03-22T12:01:46.000Z</time>
      </trkpt>
      <trkpt lat="43.80831" lon="0.91652">
        <ele>150.6</ele>
        <time>2017-03-22T12:01:56.000Z</time>
      </trkpt>
      <trkpt lat="43.80836" lon="0.91641">
        <ele>152.4</ele>
        <time>2017-03-22T12:02:7.000Z</time>
      </trkpt>
      <trkpt lat="43.80844" lon="0.91636">
        <ele>155.2</ele>
        <time>2017-03-22T12:02:23.000Z</time>
      </trkpt>
      <trkpt lat="43.80854" lon="0.91632">
        <ele>157.8</ele>
        <time>2017-03-22T12:02:37.000Z</time>
      </trkpt>
      <trkpt lat="43.80862" lon="0.91623">
        <ele>160.6</ele>
        <time>2017-03-22T12:02:54.000Z</time>
      </trkpt>
      <trkpt lat="43.80872" lon="0.91621">
        <ele>162.4</ele>
        <time>2017-03-22T12:03:5.000Z</time>
      </trkpt>
      <trkpt lat="43.80878" lon="0.9163">
        <ele>164.2</ele>
        <time>2017-03-22T12:03:16.000Z</time>
      </trkpt>
      <trkpt lat="43.80886" lon="0.91622">
        <ele>165.5</ele>
        <time>2017-03-22T12:03:25.000Z</time>
      </trkpt>
      <trkpt lat="43.80884" lon="0.91609">
        <ele>167.3</ele>
        <time>2017-03-22T12:03:36.000Z</time>
      </trkpt>
      <trkpt lat="43.80884" lon="0.91597">
        <ele>169.4</ele>
        <time>2017-03-22T12:03:49.000Z</time>
      </trkpt>
      <trkpt lat="43.80893" lon="0.91601">
        <ele>172.5</ele>
        <time>2017-03-22T12:04:9.000Z</time>
      </trkpt>
      <trkpt lat="43.80898" lon="0.91613">
        <ele>174.2</ele>
        <time>2017-03-22T12:04:21.000Z</time>
      </trkpt>
      <trkpt lat="43.80907" lon="0.91613">
        <ele>175.9</ele>
        <time>2017-03-22T12:04:32.000Z</time>
      </trkpt>
      <trkpt lat="43.80905" lon="0.916">
        <ele>178.7</ele>
        <time>2017-03-22T12:04:53.000Z</time>
      </trkpt>
      <trkpt lat="43.809" lon="0.9159">
        <ele>179.5</ele>
        <time>2017-03-22T12:05:6.000Z</time>
      </trkpt>
      <trkpt lat="43.80895" lon="0.91579">
        <ele>179.9</ele>
        <time>2017-03-22T12:05:21.000Z</time>
      </trkpt>
      <trkpt lat="43.80897" lon="0.91575">
        <ele>180.5</ele>
        <time>2017-03-22T12:07:48.000Z</time>
      </trkpt>
      <trkpt lat="43.80902" lon="0.91585">
        <ele>199.6</ele>
        <time>2017-03-22T12:41:51.000Z</time>
      </trkpt>
      <trkpt lat="43.80905" lon="0.91598">
        <ele>201.5</ele>
        <time>2017-03-22T12:42:0.000Z</time>
      </trkpt>
      <trkpt lat="43.80914" lon="0.91598">
        <ele>202.3</ele>
        <time>2017-03-22T12:42:15.000Z</time>
      </trkpt>
      <trkpt lat="43.80923" lon="0.916">
        <ele>202.5</ele>
        <time>2017-03-22T12:42:22.000Z</time>
      </trkpt>
      <trkpt lat="43.80916" lon="0.91611">
        <ele>202.6</ele>
        <time>2017-03-22T12:42:32.000Z</time>
      </trkpt>
      <trkpt lat="43.80916" lon="0.91623">
        <ele>202.6</ele>
        <time>2017-03-22T12:42:42.000Z</time>
      </trkpt>
      <trkpt lat="43.80912" lon="0.91635">
        <ele>202.5</ele>
        <time>2017-03-22T12:42:53.000Z</time>
      </trkpt>
      <trkpt lat="43.8091" lon="0.91648">
        <ele>203.2</ele>
        <time>2017-03-22T12:43:5.000Z</time>
      </trkpt>
      <trkpt lat="43.80911" lon="0.91661">
        <ele>203.6</ele>
        <time>2017-03-22T12:43:13.000Z</time>
      </trkpt>
      <trkpt lat="43.80905" lon="0.91672">
        <ele>203.9</ele>
        <time>2017-03-22T12:43:19.000Z</time>
      </trkpt>
      <trkpt lat="43.80905" lon="0.91685">
        <ele>204.1</ele>
        <time>2017-03-22T12:43:24.000Z</time>
      </trkpt>
      <trkpt lat="43.80906" lon="0.917">
        <ele>204.4</ele>
        <time>2017-03-22T12:43:29.000Z</time>
      </trkpt>
      <trkpt lat="43.80909" lon="0.91711">
        <ele>204.8</ele>
        <time>2017-03-22T12:43:39.000Z</time>
      </trkpt>
      <trkpt lat="43.80919" lon="0.91714">
        <ele>205.3</ele>
        <time>2017-03-22T12:43:50.000Z</time>
      </trkpt>
      <trkpt lat="43.80928" lon="0.91711">
        <ele>205.5</ele>
        <time>2017-03-22T12:43:54.000Z</time>
      </trkpt>
      <trkpt lat="43.80934" lon="0.91721">
        <ele>205.7</ele>
        <time>2017-03-22T12:44:2.000Z</time>
      </trkpt>
      <trkpt lat="43.80931" lon="0.91733">
        <ele>205.9</ele>
        <time>2017-03-22T12:44:7.000Z</time>
      </trkpt>
      <trkpt lat="43.80932" lon="0.91746">
        <ele>206</ele>
        <time>2017-03-22T12:44:12.000Z</time>
      </trkpt>
      <trkpt lat="43.80929" lon="0.91757">
        <ele>206.1</ele>
        <time>2017-03-22T12:44:18.000Z</time>
      </trkpt>
      <trkpt lat="43.80923" lon="0.91768">
        <ele>206.2</ele>
        <time>2017-03-22T12:44:25.000Z</time>
      </trkpt>
      <trkpt lat="43.80923" lon="0.91781">
        <ele>206.4</ele>
        <time>2017-03-22T12:44:37.000Z</time>
      </trkpt>
      <trkpt lat="43.8092" lon="0.91794">
        <ele>206.5</ele>
        <time>2017-03-22T12:44:45.000Z</time>
      </trkpt>
      <trkpt lat="43.80918" lon="0.91808">
        <ele>206.6</ele>
        <time>2017-03-22T12:44:52.000Z</time>
      </trkpt>
      <trkpt lat="43.80915" lon="0.91819">
        <ele>206.7</ele>
        <time>2017-03-22T12:45:2.000Z</time>
      </trkpt>
      <trkpt lat="43.80913" lon="0.91833">
        <ele>206.8</ele>
        <time>2017-03-22T12:45:11.000Z</time>
      </trkpt>
      <trkpt lat="43.80905" lon="0.91838">
        <ele>207.2</ele>
        <time>2017-03-22T12:45:30.000Z</time>
      </trkpt>
      <trkpt lat="43.80895" lon="0.91837">
        <ele>207.3</ele>
        <time>2017-03-22T12:45:35.000Z</time>
      </trkpt>
      <trkpt lat="43.80886" lon="0.91831">
        <ele>207.5</ele>
        <time>2017-03-22T12:45:45.000Z</time>
      </trkpt>
      <trkpt lat="43.80876" lon="0.91832">
        <ele>207</ele>
        <time>2017-03-22T12:45:56.000Z</time>
      </trkpt>
      <trkpt lat="43.8087" lon="0.91841">
        <ele>205.7</ele>
        <time>2017-03-22T12:46:15.000Z</time>
      </trkpt>
      <trkpt lat="43.80867" lon="0.91854">
        <ele>203</ele>
        <time>2017-03-22T12:46:42.000Z</time>
      </trkpt>
      <trkpt lat="43.80863" lon="0.91865">
        <ele>202.6</ele>
        <time>2017-03-22T12:46:46.000Z</time>
      </trkpt>
      <trkpt lat="43.80857" lon="0.91874">
        <ele>202.1</ele>
        <time>2017-03-22T12:46:51.000Z</time>
      </trkpt>
      <trkpt lat="43.80857" lon="0.91887">
        <ele>201.3</ele>
        <time>2017-03-22T12:46:58.000Z</time>
      </trkpt>
      <trkpt lat="43.80855" lon="0.919">
        <ele>200.5</ele>
        <time>2017-03-22T12:47:5.000Z</time>
      </trkpt>
      <trkpt lat="43.80848" lon="0.91912">
        <ele>199.7</ele>
        <time>2017-03-22T12:47:13.000Z</time>
      </trkpt>
      <trkpt lat="43.80847" lon="0.91925">
        <ele>198.9</ele>
        <time>2017-03-22T12:47:24.000Z</time>
      </trkpt>
      <trkpt lat="43.8084" lon="0.91935">
        <ele>198.5</ele>
        <time>2017-03-22T12:47:34.000Z</time>
      </trkpt>
      <trkpt lat="43.80832" lon="0.91943">
        <ele>198.3</ele>
        <time>2017-03-22T12:47:42.000Z</time>
      </trkpt>
      <trkpt lat="43.80825" lon="0.9195">
        <ele>198.2</ele>
        <time>2017-03-22T12:47:50.000Z</time>
      </trkpt>
      <trkpt lat="43.80817" lon="0.91958">
        <ele>198.2</ele>
        <time>2017-03-22T12:47:57.000Z</time>
      </trkpt>
      <trkpt lat="43.8081" lon="0.91967">
        <ele>198.2</ele>
        <time>2017-03-22T12:48:6.000Z</time>
      </trkpt>
      <trkpt lat="43.80801" lon="0.91974">
        <ele>198.2</ele>
        <time>2017-03-22T12:48:14.000Z</time>
      </trkpt>
      <trkpt lat="43.80792" lon="0.91981">
        <ele>198.3</ele>
        <time>2017-03-22T12:48:21.000Z</time>
      </trkpt>
      <trkpt lat="43.80784" lon="0.91988">
        <ele>198.4</ele>
        <time>2017-03-22T12:48:29.000Z</time>
      </trkpt>
      <trkpt lat="43.80776" lon="0.91996">
        <ele>198.6</ele>
        <time>2017-03-22T12:48:37.000Z</time>
      </trkpt>
      <trkpt lat="43.80769" lon="0.92004">
        <ele>199.1</ele>
        <time>2017-03-22T12:48:47.000Z</time>
      </trkpt>
      <trkpt lat="43.80763" lon="0.92015">
        <ele>199.4</ele>
        <time>2017-03-22T12:48:57.000Z</time>
      </trkpt>
      <trkpt lat="43.80756" lon="0.92024">
        <ele>199.6</ele>
        <time>2017-03-22T12:49:4.000Z</time>
      </trkpt>
      <trkpt lat="43.80749" lon="0.92034">
        <ele>199.8</ele>
        <time>2017-03-22T12:49:11.000Z</time>
      </trkpt>
      <trkpt lat="43.80742" lon="0.92042">
        <ele>200</ele>
        <time>2017-03-22T12:49:18.000Z</time>
      </trkpt>
      <trkpt lat="43.80734" lon="0.92051">
        <ele>200.1</ele>
        <time>2017-03-22T12:49:25.000Z</time>
      </trkpt>
      <trkpt lat="43.80728" lon="0.92061">
        <ele>200.3</ele>
        <time>2017-03-22T12:49:33.000Z</time>
      </trkpt>
      <trkpt lat="43.80722" lon="0.92072">
        <ele>200.5</ele>
        <time>2017-03-22T12:49:41.000Z</time>
      </trkpt>
      <trkpt lat="43.80717" lon="0.92083">
        <ele>200.7</ele>
        <time>2017-03-22T12:49:49.000Z</time>
      </trkpt>
      <trkpt lat="43.80709" lon="0.92091">
        <ele>200.8</ele>
        <time>2017-03-22T12:49:56.000Z</time>
      </trkpt>
      <trkpt lat="43.80704" lon="0.92102">
        <ele>200.9</ele>
        <time>2017-03-22T12:50:6.000Z</time>
      </trkpt>
      <trkpt lat="43.80698" lon="0.92113">
        <ele>201</ele>
        <time>2017-03-22T12:50:15.000Z</time>
      </trkpt>
      <trkpt lat="43.80692" lon="0.92122">
        <ele>201.1</ele>
        <time>2017-03-22T12:50:23.000Z</time>
      </trkpt>
      <trkpt lat="43.80686" lon="0.92131">
        <ele>201.2</ele>
        <time>2017-03-22T12:50:31.000Z</time>
      </trkpt>
      <trkpt lat="43.80679" lon="0.9214">
        <ele>201.3</ele>
        <time>2017-03-22T12:50:38.000Z</time>
      </trkpt>
      <trkpt lat="43.80672" lon="0.92148">
        <ele>201.5</ele>
        <time>2017-03-22T12:50:46.000Z</time>
      </trkpt>
      <trkpt lat="43.80665" lon="0.92158">
        <ele>201.9</ele>
        <time>2017-03-22T12:50:55.000Z</time>
      </trkpt>
      <trkpt lat="43.80658" lon="0.92166">
        <ele>202.3</ele>
        <time>2017-03-22T12:51:5.000Z</time>
      </trkpt>
      <trkpt lat="43.80652" lon="0.92176">
        <ele>202.5</ele>
        <time>2017-03-22T12:51:19.000Z</time>
      </trkpt>
      <trkpt lat="43.80647" lon="0.92187">
        <ele>202.8</ele>
        <time>2017-03-22T12:51:41.000Z</time>
      </trkpt>
      <trkpt lat="43.8064" lon="0.92196">
        <ele>203.3</ele>
        <time>2017-03-22T12:51:50.000Z</time>
      </trkpt>
      <trkpt lat="43.80622" lon="0.92219">
        <ele>205</ele>
        <time>2017-03-22T12:52:13.000Z</time>
      </trkpt>
      <trkpt lat="43.80616" lon="0.92228">
        <ele>205.8</ele>
        <time>2017-03-22T12:52:18.000Z</time>
      </trkpt>
      <trkpt lat="43.80607" lon="0.92235">
        <ele>206.2</ele>
        <time>2017-03-22T12:52:23.000Z</time>
      </trkpt>
      <trkpt lat="43.80598" lon="0.92243">
        <ele>206.6</ele>
        <time>2017-03-22T12:52:28.000Z</time>
      </trkpt>
      <trkpt lat="43.8059" lon="0.9225">
        <ele>207.1</ele>
        <time>2017-03-22T12:52:33.000Z</time>
      </trkpt>
      <trkpt lat="43.80583" lon="0.92257">
        <ele>207.6</ele>
        <time>2017-03-22T12:52:39.000Z</time>
      </trkpt>
      <trkpt lat="43.80576" lon="0.92267">
        <ele>208.2</ele>
        <time>2017-03-22T12:52:47.000Z</time>
      </trkpt>
      <trkpt lat="43.80568" lon="0.92275">
        <ele>208.9</ele>
        <time>2017-03-22T12:52:55.000Z</time>
      </trkpt>
      <trkpt lat="43.80561" lon="0.92284">
        <ele>209.5</ele>
        <time>2017-03-22T12:53:3.000Z</time>
      </trkpt>
      <trkpt lat="43.80552" lon="0.92291">
        <ele>210.2</ele>
        <time>2017-03-22T12:53:11.000Z</time>
      </trkpt>
      <trkpt lat="43.80543" lon="0.92301">
        <ele>210.7</ele>
        <time>2017-03-22T12:53:17.000Z</time>
      </trkpt>
      <trkpt lat="43.8054" lon="0.92313">
        <ele>211.9</ele>
        <time>2017-03-22T12:53:31.000Z</time>
      </trkpt>
      <trkpt lat="43.80535" lon="0.92325">
        <ele>212.6</ele>
        <time>2017-03-22T12:53:41.000Z</time>
      </trkpt>
      <trkpt lat="43.80531" lon="0.92311">
        <ele>213</ele>
        <time>2017-03-22T12:53:48.000Z</time>
      </trkpt>
      <trkpt lat="43.8053" lon="0.92299">
        <ele>213.3</ele>
        <time>2017-03-22T12:53:53.000Z</time>
      </trkpt>
      <trkpt lat="43.8053" lon="0.92313">
        <ele>214</ele>
        <time>2017-03-22T12:54:4.000Z</time>
      </trkpt>
      <trkpt lat="43.80534" lon="0.92325">
        <ele>214.2</ele>
        <time>2017-03-22T12:54:10.000Z</time>
      </trkpt>
      <trkpt lat="43.80535" lon="0.92339">
        <ele>214.4</ele>
        <time>2017-03-22T12:54:18.000Z</time>
      </trkpt>
      <trkpt lat="43.80534" lon="0.92352">
        <ele>214.5</ele>
        <time>2017-03-22T12:54:28.000Z</time>
      </trkpt>
      <trkpt lat="43.80532" lon="0.92364">
        <ele>214.6</ele>
        <time>2017-03-22T12:54:34.000Z</time>
      </trkpt>
      <trkpt lat="43.80526" lon="0.92375">
        <ele>214.7</ele>
        <time>2017-03-22T12:54:42.000Z</time>
      </trkpt>
      <trkpt lat="43.80526" lon="0.92388">
        <ele>214.9</ele>
        <time>2017-03-22T12:54:52.000Z</time>
      </trkpt>
      <trkpt lat="43.80524" lon="0.92402">
        <ele>215</ele>
        <time>2017-03-22T12:54:59.000Z</time>
      </trkpt>
      <trkpt lat="43.80521" lon="0.92414">
        <ele>215.3</ele>
        <time>2017-03-22T12:55:6.000Z</time>
      </trkpt>
      <trkpt lat="43.80519" lon="0.92428">
        <ele>215.6</ele>
        <time>2017-03-22T12:55:15.000Z</time>
      </trkpt>
      <trkpt lat="43.80516" lon="0.92442">
        <ele>215.8</ele>
        <time>2017-03-22T12:55:27.000Z</time>
      </trkpt>
      <trkpt lat="43.80514" lon="0.92455">
        <ele>216</ele>
        <time>2017-03-22T12:55:35.000Z</time>
      </trkpt>
      <trkpt lat="43.80511" lon="0.92467">
        <ele>216.3</ele>
        <time>2017-03-22T12:55:43.000Z</time>
      </trkpt>
      <trkpt lat="43.80507" lon="0.9248">
        <ele>216.6</ele>
        <time>2017-03-22T12:55:54.000Z</time>
      </trkpt>
      <trkpt lat="43.80505" lon="0.92493">
        <ele>216.8</ele>
        <time>2017-03-22T12:56:2.000Z</time>
      </trkpt>
      <trkpt lat="43.80502" lon="0.92506">
        <ele>216.9</ele>
        <time>2017-03-22T12:56:9.000Z</time>
      </trkpt>
      <trkpt lat="43.80499" lon="0.92519">
        <ele>217</ele>
        <time>2017-03-22T12:56:16.000Z</time>
      </trkpt>
      <trkpt lat="43.80498" lon="0.92533">
        <ele>217.1</ele>
        <time>2017-03-22T12:56:25.000Z</time>
      </trkpt>
      <trkpt lat="43.80497" lon="0.92546">
        <ele>217.2</ele>
        <time>2017-03-22T12:56:34.000Z</time>
      </trkpt>
      <trkpt lat="43.80496" lon="0.92558">
        <ele>217.4</ele>
        <time>2017-03-22T12:56:43.000Z</time>
      </trkpt>
      <trkpt lat="43.80495" lon="0.92572">
        <ele>217.6</ele>
        <time>2017-03-22T12:56:51.000Z</time>
      </trkpt>
      <trkpt lat="43.80495" lon="0.92585">
        <ele>217.9</ele>
        <time>2017-03-22T12:56:59.000Z</time>
      </trkpt>
      <trkpt lat="43.80494" lon="0.92599">
        <ele>218.2</ele>
        <time>2017-03-22T12:57:6.000Z</time>
      </trkpt>
      <trkpt lat="43.80493" lon="0.92612">
        <ele>218.4</ele>
        <time>2017-03-22T12:57:13.000Z</time>
      </trkpt>
      <trkpt lat="43.80493" lon="0.92626">
        <ele>218.6</ele>
        <time>2017-03-22T12:57:20.000Z</time>
      </trkpt>
      <trkpt lat="43.80492" lon="0.92639">
        <ele>218.9</ele>
        <time>2017-03-22T12:57:26.000Z</time>
      </trkpt>
      <trkpt lat="43.80492" lon="0.92652">
        <ele>219.2</ele>
        <time>2017-03-22T12:57:32.000Z</time>
      </trkpt>
      <trkpt lat="43.80492" lon="0.92666">
        <ele>219.7</ele>
        <time>2017-03-22T12:57:40.000Z</time>
      </trkpt>
      <trkpt lat="43.80491" lon="0.92679">
        <ele>220.2</ele>
        <time>2017-03-22T12:57:48.000Z</time>
      </trkpt>
      <trkpt lat="43.80485" lon="0.92689">
        <ele>222.1</ele>
        <time>2017-03-22T12:58:25.000Z</time>
      </trkpt>
      <trkpt lat="43.80485" lon="0.92701">
        <ele>221.8</ele>
        <time>2017-03-22T12:58:30.000Z</time>
      </trkpt>
      <trkpt lat="43.80484" lon="0.92714">
        <ele>221.6</ele>
        <time>2017-03-22T12:58:36.000Z</time>
      </trkpt>
      <trkpt lat="43.80479" lon="0.92726">
        <ele>221.2</ele>
        <time>2017-03-22T12:59:7.000Z</time>
      </trkpt>
      <trkpt lat="43.80478" lon="0.92739">
        <ele>221.3</ele>
        <time>2017-03-22T12:59:16.000Z</time>
      </trkpt>
      <trkpt lat="43.80477" lon="0.92752">
        <ele>221.3</ele>
        <time>2017-03-22T12:59:24.000Z</time>
      </trkpt>
      <trkpt lat="43.80474" lon="0.92766">
        <ele>221.4</ele>
        <time>2017-03-22T12:59:33.000Z</time>
      </trkpt>
      <trkpt lat="43.80471" lon="0.92779">
        <ele>221.4</ele>
        <time>2017-03-22T12:59:41.000Z</time>
      </trkpt>
      <trkpt lat="43.80467" lon="0.92791">
        <ele>221.4</ele>
        <time>2017-03-22T12:59:49.000Z</time>
      </trkpt>
      <trkpt lat="43.80464" lon="0.92804">
        <ele>221.4</ele>
        <time>2017-03-22T12:59:58.000Z</time>
      </trkpt>
      <trkpt lat="43.8046" lon="0.92816">
        <ele>221.4</ele>
        <time>2017-03-22T13:00:6.000Z</time>
      </trkpt>
      <trkpt lat="43.80456" lon="0.92828">
        <ele>221.4</ele>
        <time>2017-03-22T13:00:15.000Z</time>
      </trkpt>
      <trkpt lat="43.80452" lon="0.92841">
        <ele>221.4</ele>
        <time>2017-03-22T13:00:23.000Z</time>
      </trkpt>
      <trkpt lat="43.80447" lon="0.92853">
        <ele>221.4</ele>
        <time>2017-03-22T13:00:31.000Z</time>
      </trkpt>
      <trkpt lat="43.80444" lon="0.92865">
        <ele>221.4</ele>
        <time>2017-03-22T13:00:38.000Z</time>
      </trkpt>
      <trkpt lat="43.80439" lon="0.92878">
        <ele>221.4</ele>
        <time>2017-03-22T13:00:46.000Z</time>
      </trkpt>
      <trkpt lat="43.80434" lon="0.92889">
        <ele>221.4</ele>
        <time>2017-03-22T13:00:54.000Z</time>
      </trkpt>
      <trkpt lat="43.80431" lon="0.92902">
        <ele>221.4</ele>
        <time>2017-03-22T13:01:3.000Z</time>
      </trkpt>
      <trkpt lat="43.80427" lon="0.92913">
        <ele>221.4</ele>
        <time>2017-03-22T13:01:10.000Z</time>
      </trkpt>
      <trkpt lat="43.80423" lon="0.92926">
        <ele>221.3</ele>
        <time>2017-03-22T13:01:19.000Z</time>
      </trkpt>
      <trkpt lat="43.8042" lon="0.92939">
        <ele>221.2</ele>
        <time>2017-03-22T13:01:27.000Z</time>
      </trkpt>
      <trkpt lat="43.80417" lon="0.92952">
        <ele>221.1</ele>
        <time>2017-03-22T13:01:34.000Z</time>
      </trkpt>
      <trkpt lat="43.80412" lon="0.92964">
        <ele>221.1</ele>
        <time>2017-03-22T13:01:42.000Z</time>
      </trkpt>
      <trkpt lat="43.80407" lon="0.92976">
        <ele>221.1</ele>
        <time>2017-03-22T13:01:50.000Z</time>
      </trkpt>
      <trkpt lat="43.80402" lon="0.92987">
        <ele>221.2</ele>
        <time>2017-03-22T13:01:58.000Z</time>
      </trkpt>
      <trkpt lat="43.80396" lon="0.92998">
        <ele>221.2</ele>
        <time>2017-03-22T13:02:5.000Z</time>
      </trkpt>
      <trkpt lat="43.8039" lon="0.9301">
        <ele>221.2</ele>
        <time>2017-03-22T13:02:12.000Z</time>
      </trkpt>
      <trkpt lat="43.80383" lon="0.9302">
        <ele>221.2</ele>
        <time>2017-03-22T13:02:19.000Z</time>
      </trkpt>
      <trkpt lat="43.80377" lon="0.93031">
        <ele>221.2</ele>
        <time>2017-03-22T13:02:27.000Z</time>
      </trkpt>
      <trkpt lat="43.8037" lon="0.93041">
        <ele>221.2</ele>
        <time>2017-03-22T13:02:35.000Z</time>
      </trkpt>
      <trkpt lat="43.80363" lon="0.9305">
        <ele>221.2</ele>
        <time>2017-03-22T13:02:43.000Z</time>
      </trkpt>
      <trkpt lat="43.80356" lon="0.93059">
        <ele>221.2</ele>
        <time>2017-03-22T13:02:50.000Z</time>
      </trkpt>
      <trkpt lat="43.80351" lon="0.93071">
        <ele>221.1</ele>
        <time>2017-03-22T13:02:58.000Z</time>
      </trkpt>
      <trkpt lat="43.80344" lon="0.9308">
        <ele>221</ele>
        <time>2017-03-22T13:03:6.000Z</time>
      </trkpt>
      <trkpt lat="43.80336" lon="0.93087">
        <ele>220.8</ele>
        <time>2017-03-22T13:03:18.000Z</time>
      </trkpt>
      <trkpt lat="43.80329" lon="0.93095">
        <ele>220.7</ele>
        <time>2017-03-22T13:03:27.000Z</time>
      </trkpt>
      <trkpt lat="43.80322" lon="0.93105">
        <ele>220.6</ele>
        <time>2017-03-22T13:03:37.000Z</time>
      </trkpt>
      <trkpt lat="43.80317" lon="0.93115">
        <ele>220.3</ele>
        <time>2017-03-22T13:03:46.000Z</time>
      </trkpt>
      <trkpt lat="43.80311" lon="0.93125">
        <ele>220.1</ele>
        <time>2017-03-22T13:03:54.000Z</time>
      </trkpt>
      <trkpt lat="43.80304" lon="0.93135">
        <ele>220</ele>
        <time>2017-03-22T13:04:2.000Z</time>
      </trkpt>
      <trkpt lat="43.80297" lon="0.93144">
        <ele>219.9</ele>
        <time>2017-03-22T13:04:10.000Z</time>
      </trkpt>
      <trkpt lat="43.80292" lon="0.93154">
        <ele>219.9</ele>
        <time>2017-03-22T13:04:18.000Z</time>
      </trkpt>
      <trkpt lat="43.80285" lon="0.93163">
        <ele>219.9</ele>
        <time>2017-03-22T13:04:26.000Z</time>
      </trkpt>
      <trkpt lat="43.80278" lon="0.93172">
        <ele>219.7</ele>
        <time>2017-03-22T13:04:33.000Z</time>
      </trkpt>
      <trkpt lat="43.80271" lon="0.93181">
        <ele>219.3</ele>
        <time>2017-03-22T13:04:42.000Z</time>
      </trkpt>
      <trkpt lat="43.80264" lon="0.9319">
        <ele>218.5</ele>
        <time>2017-03-22T13:04:55.000Z</time>
      </trkpt>
      <trkpt lat="43.80244" lon="0.93214">
        <ele>217</ele>
        <time>2017-03-22T13:05:23.000Z</time>
      </trkpt>
      <trkpt lat="43.80238" lon="0.93225">
        <ele>217.8</ele>
        <time>2017-03-22T13:05:29.000Z</time>
      </trkpt>
      <trkpt lat="43.80226" lon="0.93247">
        <ele>217</ele>
        <time>2017-03-22T13:05:42.000Z</time>
      </trkpt>
      <trkpt lat="43.8022" lon="0.93257">
        <ele>218.2</ele>
        <time>2017-03-22T13:05:50.000Z</time>
      </trkpt>
      <trkpt lat="43.80212" lon="0.93266">
        <ele>218.3</ele>
        <time>2017-03-22T13:05:56.000Z</time>
      </trkpt>
      <trkpt lat="43.80206" lon="0.93276">
        <ele>218.5</ele>
        <time>2017-03-22T13:06:3.000Z</time>
      </trkpt>
      <trkpt lat="43.80198" lon="0.93285">
        <ele>218.7</ele>
        <time>2017-03-22T13:06:11.000Z</time>
      </trkpt>
      <trkpt lat="43.80192" lon="0.93298">
        <ele>218.9</ele>
        <time>2017-03-22T13:06:19.000Z</time>
      </trkpt>
      <trkpt lat="43.80187" lon="0.93309">
        <ele>219</ele>
        <time>2017-03-22T13:06:26.000Z</time>
      </trkpt>
      <trkpt lat="43.8018" lon="0.93317">
        <ele>219</ele>
        <time>2017-03-22T13:06:32.000Z</time>
      </trkpt>
      <trkpt lat="43.80174" lon="0.93327">
        <ele>219</ele>
        <time>2017-03-22T13:06:39.000Z</time>
      </trkpt>
      <trkpt lat="43.80169" lon="0.93338">
        <ele>219.1</ele>
        <time>2017-03-22T13:06:47.000Z</time>
      </trkpt>
      <trkpt lat="43.80161" lon="0.93344">
        <ele>219</ele>
        <time>2017-03-22T13:06:56.000Z</time>
      </trkpt>
      <trkpt lat="43.80155" lon="0.93355">
        <ele>218.9</ele>
        <time>2017-03-22T13:07:9.000Z</time>
      </trkpt>
      <trkpt lat="43.80151" lon="0.93368">
        <ele>218.9</ele>
        <time>2017-03-22T13:07:53.000Z</time>
      </trkpt>
      <trkpt lat="43.80141" lon="0.93373">
        <ele>218.6</ele>
        <time>2017-03-22T13:08:1.000Z</time>
      </trkpt>
      <trkpt lat="43.80135" lon="0.93382">
        <ele>218.5</ele>
        <time>2017-03-22T13:08:12.000Z</time>
      </trkpt>
      <trkpt lat="43.8013" lon="0.93393">
        <ele>218.4</ele>
        <time>2017-03-22T13:08:24.000Z</time>
      </trkpt>
      <trkpt lat="43.80124" lon="0.93403">
        <ele>218.2</ele>
        <time>2017-03-22T13:08:35.000Z</time>
      </trkpt>
      <trkpt lat="43.80116" lon="0.93411">
        <ele>218.2</ele>
        <time>2017-03-22T13:08:45.000Z</time>
      </trkpt>
      <trkpt lat="43.80109" lon="0.9342">
        <ele>218.3</ele>
        <time>2017-03-22T13:08:53.000Z</time>
      </trkpt>
      <trkpt lat="43.80101" lon="0.93427">
        <ele>218.4</ele>
        <time>2017-03-22T13:09:0.000Z</time>
      </trkpt>
      <trkpt lat="43.80096" lon="0.93438">
        <ele>218.5</ele>
        <time>2017-03-22T13:09:8.000Z</time>
      </trkpt>
      <trkpt lat="43.80089" lon="0.93446">
        <ele>218.5</ele>
        <time>2017-03-22T13:09:16.000Z</time>
      </trkpt>
      <trkpt lat="43.80082" lon="0.93455">
        <ele>218.4</ele>
        <time>2017-03-22T13:09:24.000Z</time>
      </trkpt>
      <trkpt lat="43.80075" lon="0.93463">
        <ele>218.4</ele>
        <time>2017-03-22T13:09:30.000Z</time>
      </trkpt>
      <trkpt lat="43.80069" lon="0.93474">
        <ele>218.3</ele>
        <time>2017-03-22T13:09:39.000Z</time>
      </trkpt>
      <trkpt lat="43.80062" lon="0.93481">
        <ele>218.2</ele>
        <time>2017-03-22T13:09:47.000Z</time>
      </trkpt>
      <trkpt lat="43.80054" lon="0.93489">
        <ele>218.2</ele>
        <time>2017-03-22T13:09:55.000Z</time>
      </trkpt>
      <trkpt lat="43.80046" lon="0.93497">
        <ele>218.1</ele>
        <time>2017-03-22T13:10:3.000Z</time>
      </trkpt>
      <trkpt lat="43.80039" lon="0.93506">
        <ele>218.1</ele>
        <time>2017-03-22T13:10:10.000Z</time>
      </trkpt>
      <trkpt lat="43.80031" lon="0.93514">
        <ele>218</ele>
        <time>2017-03-22T13:10:19.000Z</time>
      </trkpt>
      <trkpt lat="43.80024" lon="0.93521">
        <ele>218</ele>
        <time>2017-03-22T13:10:26.000Z</time>
      </trkpt>
      <trkpt lat="43.80015" lon="0.93528">
        <ele>217.9</ele>
        <time>2017-03-22T13:10:35.000Z</time>
      </trkpt>
      <trkpt lat="43.80008" lon="0.93535">
        <ele>217.8</ele>
        <time>2017-03-22T13:10:43.000Z</time>
      </trkpt>
      <trkpt lat="43.80001" lon="0.93543">
        <ele>217.8</ele>
        <time>2017-03-22T13:10:51.000Z</time>
      </trkpt>
      <trkpt lat="43.79994" lon="0.93552">
        <ele>217.7</ele>
        <time>2017-03-22T13:11:0.000Z</time>
      </trkpt>
      <trkpt lat="43.79987" lon="0.93561">
        <ele>217.6</ele>
        <time>2017-03-22T13:11:10.000Z</time>
      </trkpt>
      <trkpt lat="43.79979" lon="0.9357">
        <ele>217.5</ele>
        <time>2017-03-22T13:11:19.000Z</time>
      </trkpt>
      <trkpt lat="43.79972" lon="0.93578">
        <ele>217.4</ele>
        <time>2017-03-22T13:11:28.000Z</time>
      </trkpt>
      <trkpt lat="43.79964" lon="0.93587">
        <ele>217.3</ele>
        <time>2017-03-22T13:11:39.000Z</time>
      </trkpt>
      <trkpt lat="43.79956" lon="0.93595">
        <ele>217.2</ele>
        <time>2017-03-22T13:11:47.000Z</time>
      </trkpt>
      <trkpt lat="43.79948" lon="0.93603">
        <ele>217.1</ele>
        <time>2017-03-22T13:11:54.000Z</time>
      </trkpt>
      <trkpt lat="43.79941" lon="0.93612">
        <ele>217.1</ele>
        <time>2017-03-22T13:12:0.000Z</time>
      </trkpt>
      <trkpt lat="43.79935" lon="0.9362">
        <ele>217</ele>
        <time>2017-03-22T13:12:6.000Z</time>
      </trkpt>
      <trkpt lat="43.79928" lon="0.93631">
        <ele>216.9</ele>
        <time>2017-03-22T13:12:13.000Z</time>
      </trkpt>
      <trkpt lat="43.79923" lon="0.93641">
        <ele>216.8</ele>
        <time>2017-03-22T13:12:21.000Z</time>
      </trkpt>
      <trkpt lat="43.79921" lon="0.93654">
        <ele>216.6</ele>
        <time>2017-03-22T13:12:29.000Z</time>
      </trkpt>
      <trkpt lat="43.79916" lon="0.93665">
        <ele>216.4</ele>
        <time>2017-03-22T13:12:36.000Z</time>
      </trkpt>
      <trkpt lat="43.79911" lon="0.93677">
        <ele>216.2</ele>
        <time>2017-03-22T13:12:45.000Z</time>
      </trkpt>
      <trkpt lat="43.79908" lon="0.93689">
        <ele>216</ele>
        <time>2017-03-22T13:12:54.000Z</time>
      </trkpt>
      <trkpt lat="43.79904" lon="0.937">
        <ele>215.8</ele>
        <time>2017-03-22T13:13:3.000Z</time>
      </trkpt>
      <trkpt lat="43.799" lon="0.93713">
        <ele>215.7</ele>
        <time>2017-03-22T13:13:11.000Z</time>
      </trkpt>
      <trkpt lat="43.79896" lon="0.93726">
        <ele>215.4</ele>
        <time>2017-03-22T13:13:19.000Z</time>
      </trkpt>
      <trkpt lat="43.79892" lon="0.93738">
        <ele>215.2</ele>
        <time>2017-03-22T13:13:26.000Z</time>
      </trkpt>
      <trkpt lat="43.79889" lon="0.93752">
        <ele>215</ele>
        <time>2017-03-22T13:13:34.000Z</time>
      </trkpt>
      <trkpt lat="43.79885" lon="0.93765">
        <ele>214.8</ele>
        <time>2017-03-22T13:13:41.000Z</time>
      </trkpt>
      <trkpt lat="43.79879" lon="0.93775">
        <ele>214.6</ele>
        <time>2017-03-22T13:13:46.000Z</time>
      </trkpt>
      <trkpt lat="43.79874" lon="0.93786">
        <ele>214.5</ele>
        <time>2017-03-22T13:13:52.000Z</time>
      </trkpt>
      <trkpt lat="43.79871" lon="0.93798">
        <ele>214.2</ele>
        <time>2017-03-22T13:13:59.000Z</time>
      </trkpt>
      <trkpt lat="43.79867" lon="0.93811">
        <ele>214</ele>
        <time>2017-03-22T13:14:6.000Z</time>
      </trkpt>
      <trkpt lat="43.79862" lon="0.93824">
        <ele>213.7</ele>
        <time>2017-03-22T13:14:13.000Z</time>
      </trkpt>
      <trkpt lat="43.79856" lon="0.93834">
        <ele>213.4</ele>
        <time>2017-03-22T13:14:21.000Z</time>
      </trkpt>
      <trkpt lat="43.79854" lon="0.93847">
        <ele>213.1</ele>
        <time>2017-03-22T13:14:29.000Z</time>
      </trkpt>
      <trkpt lat="43.7985" lon="0.93859">
        <ele>212.7</ele>
        <time>2017-03-22T13:14:41.000Z</time>
      </trkpt>
      <trkpt lat="43.79844" lon="0.93869">
        <ele>212.5</ele>
        <time>2017-03-22T13:14:48.000Z</time>
      </trkpt>
      <trkpt lat="43.79838" lon="0.9388">
        <ele>212</ele>
        <time>2017-03-22T13:15:7.000Z</time>
      </trkpt>
      <trkpt lat="43.7983" lon="0.93887">
        <ele>211.7</ele>
        <time>2017-03-22T13:15:14.000Z</time>
      </trkpt>
      <trkpt lat="43.79824" lon="0.93896">
        <ele>211.3</ele>
        <time>2017-03-22T13:15:25.000Z</time>
      </trkpt>
      <trkpt lat="43.79816" lon="0.93905">
        <ele>211.1</ele>
        <time>2017-03-22T13:15:33.000Z</time>
      </trkpt>
      <trkpt lat="43.79809" lon="0.93913">
        <ele>210.8</ele>
        <time>2017-03-22T13:15:41.000Z</time>
      </trkpt>
      <trkpt lat="43.79802" lon="0.93923">
        <ele>210.6</ele>
        <time>2017-03-22T13:15:48.000Z</time>
      </trkpt>
      <trkpt lat="43.79795" lon="0.93932">
        <ele>210.4</ele>
        <time>2017-03-22T13:15:55.000Z</time>
      </trkpt>
      <trkpt lat="43.79788" lon="0.93942">
        <ele>210.2</ele>
        <time>2017-03-22T13:16:4.000Z</time>
      </trkpt>
      <trkpt lat="43.79782" lon="0.93952">
        <ele>210.1</ele>
        <time>2017-03-22T13:16:12.000Z</time>
      </trkpt>
      <trkpt lat="43.79775" lon="0.93962">
        <ele>209.9</ele>
        <time>2017-03-22T13:16:20.000Z</time>
      </trkpt>
      <trkpt lat="43.7977" lon="0.93973">
        <ele>209.2</ele>
        <time>2017-03-22T13:16:31.000Z</time>
      </trkpt>
      <trkpt lat="43.79764" lon="0.93984">
        <ele>208.7</ele>
        <time>2017-03-22T13:16:41.000Z</time>
      </trkpt>
      <trkpt lat="43.79758" lon="0.93995">
        <ele>208.5</ele>
        <time>2017-03-22T13:16:50.000Z</time>
      </trkpt>
      <trkpt lat="43.7975" lon="0.94005">
        <ele>208.4</ele>
        <time>2017-03-22T13:16:59.000Z</time>
      </trkpt>
      <trkpt lat="43.79743" lon="0.94012">
        <ele>208.3</ele>
        <time>2017-03-22T13:17:8.000Z</time>
      </trkpt>
      <trkpt lat="43.79736" lon="0.94021">
        <ele>208.1</ele>
        <time>2017-03-22T13:17:17.000Z</time>
      </trkpt>
      <trkpt lat="43.79729" lon="0.94031">
        <ele>208</ele>
        <time>2017-03-22T13:17:26.000Z</time>
      </trkpt>
      <trkpt lat="43.79723" lon="0.94043">
        <ele>207.4</ele>
        <time>2017-03-22T13:17:34.000Z</time>
      </trkpt>
      <trkpt lat="43.79716" lon="0.94052">
        <ele>207.9</ele>
        <time>2017-03-22T13:17:40.000Z</time>
      </trkpt>
      <trkpt lat="43.79709" lon="0.9406">
        <ele>208.2</ele>
        <time>2017-03-22T13:17:47.000Z</time>
      </trkpt>
      <trkpt lat="43.79703" lon="0.9407">
        <ele>207.3</ele>
        <time>2017-03-22T13:17:56.000Z</time>
      </trkpt>
      <trkpt lat="43.797" lon="0.94077">
        <ele>173.9</ele>
        <time>2017-03-22T13:18:6.000Z</time>
      </trkpt>
      <trkpt lat="43.79696" lon="0.94079">
        <ele>174.1</ele>
        <time>2017-03-22T13:18:12.000Z</time>
      </trkpt>
      <trkpt lat="43.79693" lon="0.94085">
        <ele>174</ele>
        <time>2017-03-22T13:18:19.000Z</time>
      </trkpt>
      <trkpt lat="43.79688" lon="0.94086">
        <ele>174.3</ele>
        <time>2017-03-22T13:18:25.000Z</time>
      </trkpt>
      <trkpt lat="43.79683" lon="0.94098">
        <ele>173.9</ele>
        <time>2017-03-22T13:18:48.000Z</time>
      </trkpt>
      <trkpt lat="43.79678" lon="0.94116">
        <ele>173.2</ele>
        <time>2017-03-22T13:18:53.000Z</time>
      </trkpt>
      <trkpt lat="43.79671" lon="0.94122">
        <ele>173.4</ele>
        <time>2017-03-22T13:19:22.000Z</time>
      </trkpt>
      <trkpt lat="43.79665" lon="0.9413">
        <ele>173.2</ele>
        <time>2017-03-22T13:19:25.000Z</time>
      </trkpt>
      <trkpt lat="43.79658" lon="0.94139">
        <ele>173.1</ele>
        <time>2017-03-22T13:19:27.000Z</time>
      </trkpt>
      <trkpt lat="43.79653" lon="0.94152">
        <ele>172.4</ele>
        <time>2017-03-22T13:19:29.000Z</time>
      </trkpt>
      <trkpt lat="43.79644" lon="0.94167">
        <ele>171.8</ele>
        <time>2017-03-22T13:19:32.000Z</time>
      </trkpt>
      <trkpt lat="43.79635" lon="0.94171">
        <ele>204.5</ele>
        <time>2017-03-22T13:19:34.000Z</time>
      </trkpt>
      <trkpt lat="43.79631" lon="0.94185">
        <ele>204.5</ele>
        <time>2017-03-22T13:19:36.000Z</time>
      </trkpt>
      <trkpt lat="43.79626" lon="0.94198">
        <ele>204.5</ele>
        <time>2017-03-22T13:19:38.000Z</time>
      </trkpt>
      <trkpt lat="43.79619" lon="0.94214">
        <ele>204.5</ele>
        <time>2017-03-22T13:19:41.000Z</time>
      </trkpt>
      <trkpt lat="43.79614" lon="0.94229">
        <ele>204.5</ele>
        <time>2017-03-22T13:19:44.000Z</time>
      </trkpt>
      <trkpt lat="43.7961" lon="0.94241">
        <ele>204.5</ele>
        <time>2017-03-22T13:19:46.000Z</time>
      </trkpt>
      <trkpt lat="43.79605" lon="0.94252">
        <ele>204.5</ele>
        <time>2017-03-22T13:19:48.000Z</time>
      </trkpt>
      <trkpt lat="43.796" lon="0.94263">
        <ele>204.4</ele>
        <time>2017-03-22T13:19:52.000Z</time>
      </trkpt>
      <trkpt lat="43.79597" lon="0.94276">
        <ele>204.4</ele>
        <time>2017-03-22T13:19:56.000Z</time>
      </trkpt>
      <trkpt lat="43.79594" lon="0.94289">
        <ele>204.4</ele>
        <time>2017-03-22T13:19:59.000Z</time>
      </trkpt>
      <trkpt lat="43.79589" lon="0.94303">
        <ele>204.3</ele>
        <time>2017-03-22T13:20:3.000Z</time>
      </trkpt>
      <trkpt lat="43.7958" lon="0.94307">
        <ele>204.1</ele>
        <time>2017-03-22T13:20:11.000Z</time>
      </trkpt>
      <trkpt lat="43.79571" lon="0.94313">
        <ele>203.6</ele>
        <time>2017-03-22T13:20:23.000Z</time>
      </trkpt>
      <trkpt lat="43.79562" lon="0.94317">
        <ele>203.1</ele>
        <time>2017-03-22T13:20:35.000Z</time>
      </trkpt>
      <trkpt lat="43.79554" lon="0.94326">
        <ele>202.9</ele>
        <time>2017-03-22T13:20:43.000Z</time>
      </trkpt>
      <trkpt lat="43.79548" lon="0.94337">
        <ele>202.7</ele>
        <time>2017-03-22T13:20:51.000Z</time>
      </trkpt>
      <trkpt lat="43.79543" lon="0.94349">
        <ele>202.3</ele>
        <time>2017-03-22T13:20:58.000Z</time>
      </trkpt>
      <trkpt lat="43.79537" lon="0.9436">
        <ele>201.9</ele>
        <time>2017-03-22T13:21:5.000Z</time>
      </trkpt>
      <trkpt lat="43.79531" lon="0.9437">
        <ele>201.5</ele>
        <time>2017-03-22T13:21:13.000Z</time>
      </trkpt>
      <trkpt lat="43.79525" lon="0.94381">
        <ele>201.1</ele>
        <time>2017-03-22T13:21:21.000Z</time>
      </trkpt>
      <trkpt lat="43.79519" lon="0.94393">
        <ele>200.8</ele>
        <time>2017-03-22T13:21:28.000Z</time>
      </trkpt>
      <trkpt lat="43.79516" lon="0.94404">
        <ele>200.4</ele>
        <time>2017-03-22T13:21:34.000Z</time>
      </trkpt>
      <trkpt lat="43.79511" lon="0.94415">
        <ele>199.9</ele>
        <time>2017-03-22T13:21:41.000Z</time>
      </trkpt>
      <trkpt lat="43.79502" lon="0.94422">
        <ele>199.5</ele>
        <time>2017-03-22T13:21:47.000Z</time>
      </trkpt>
      <trkpt lat="43.79495" lon="0.94431">
        <ele>162.7</ele>
        <time>2017-03-22T13:21:54.000Z</time>
      </trkpt>
      <trkpt lat="43.7949" lon="0.94447">
        <ele>162.3</ele>
        <time>2017-03-22T13:22:4.000Z</time>
      </trkpt>
      <trkpt lat="43.79483" lon="0.94453">
        <ele>162.5</ele>
        <time>2017-03-22T13:22:10.000Z</time>
      </trkpt>
      <trkpt lat="43.79475" lon="0.94463">
        <ele>162.5</ele>
        <time>2017-03-22T13:22:19.000Z</time>
      </trkpt>
      <trkpt lat="43.79469" lon="0.94472">
        <ele>162.5</ele>
        <time>2017-03-22T13:22:24.000Z</time>
      </trkpt>
      <trkpt lat="43.79464" lon="0.94478">
        <ele>162.4</ele>
        <time>2017-03-22T13:22:33.000Z</time>
      </trkpt>
      <trkpt lat="43.79458" lon="0.94491">
        <ele>162.1</ele>
        <time>2017-03-22T13:22:54.000Z</time>
      </trkpt>
      <trkpt lat="43.79455" lon="0.945">
        <ele>161.8</ele>
        <time>2017-03-22T13:23:2.000Z</time>
      </trkpt>
      <trkpt lat="43.79449" lon="0.94512">
        <ele>161.3</ele>
        <time>2017-03-22T13:23:11.000Z</time>
      </trkpt>
      <trkpt lat="43.79444" lon="0.94519">
        <ele>161.2</ele>
        <time>2017-03-22T13:23:17.000Z</time>
      </trkpt>
      <trkpt lat="43.79438" lon="0.9452">
        <ele>161.4</ele>
        <time>2017-03-22T13:23:22.000Z</time>
      </trkpt>
      <trkpt lat="43.79433" lon="0.94522">
        <ele>161.6</ele>
        <time>2017-03-22T13:23:29.000Z</time>
      </trkpt>
      <trkpt lat="43.79427" lon="0.94527">
        <ele>161.5</ele>
        <time>2017-03-22T13:23:36.000Z</time>
      </trkpt>
      <trkpt lat="43.79421" lon="0.94527">
        <ele>161.9</ele>
        <time>2017-03-22T13:23:42.000Z</time>
      </trkpt>
      <trkpt lat="43.79415" lon="0.94526">
        <ele>162.2</ele>
        <time>2017-03-22T13:23:51.000Z</time>
      </trkpt>
      <trkpt lat="43.79407" lon="0.94528">
        <ele>162.6</ele>
        <time>2017-03-22T13:24:9.000Z</time>
      </trkpt>
      <trkpt lat="43.79401" lon="0.94527">
        <ele>163</ele>
        <time>2017-03-22T13:24:16.000Z</time>
      </trkpt>
      <trkpt lat="43.79395" lon="0.94524">
        <ele>163.7</ele>
        <time>2017-03-22T13:24:23.000Z</time>
      </trkpt>
      <trkpt lat="43.7939" lon="0.94522">
        <ele>164.2</ele>
        <time>2017-03-22T13:24:29.000Z</time>
      </trkpt>
      <trkpt lat="43.79383" lon="0.94518">
        <ele>165.2</ele>
        <time>2017-03-22T13:24:36.000Z</time>
      </trkpt>
      <trkpt lat="43.79374" lon="0.9452">
        <ele>192.4</ele>
        <time>2017-03-22T13:24:44.000Z</time>
      </trkpt>
      <trkpt lat="43.79364" lon="0.94516">
        <ele>193</ele>
        <time>2017-03-22T13:24:54.000Z</time>
      </trkpt>
      <trkpt lat="43.79355" lon="0.94514">
        <ele>193.8</ele>
        <time>2017-03-22T13:25:2.000Z</time>
      </trkpt>
      <trkpt lat="43.79346" lon="0.94514">
        <ele>194.6</ele>
        <time>2017-03-22T13:25:10.000Z</time>
      </trkpt>
      <trkpt lat="43.79337" lon="0.94516">
        <ele>195.4</ele>
        <time>2017-03-22T13:25:18.000Z</time>
      </trkpt>
      <trkpt lat="43.79327" lon="0.94514">
        <ele>196.2</ele>
        <time>2017-03-22T13:25:26.000Z</time>
      </trkpt>
      <trkpt lat="43.79318" lon="0.94515">
        <ele>196.7</ele>
        <time>2017-03-22T13:25:32.000Z</time>
      </trkpt>
      <trkpt lat="43.79309" lon="0.94517">
        <ele>197.2</ele>
        <time>2017-03-22T13:25:39.000Z</time>
      </trkpt>
      <trkpt lat="43.793" lon="0.94511">
        <ele>197.8</ele>
        <time>2017-03-22T13:25:48.000Z</time>
      </trkpt>
      <trkpt lat="43.79294" lon="0.945">
        <ele>199</ele>
        <time>2017-03-22T13:26:17.000Z</time>
      </trkpt>
      <trkpt lat="43.7929" lon="0.94488">
        <ele>199</ele>
        <time>2017-03-22T13:26:24.000Z</time>
      </trkpt>
      <trkpt lat="43.79284" lon="0.94477">
        <ele>199.6</ele>
        <time>2017-03-22T13:26:35.000Z</time>
      </trkpt>
      <trkpt lat="43.79277" lon="0.94468">
        <ele>200.3</ele>
        <time>2017-03-22T13:26:44.000Z</time>
      </trkpt>
      <trkpt lat="43.79273" lon="0.94456">
        <ele>200.9</ele>
        <time>2017-03-22T13:26:51.000Z</time>
      </trkpt>
      <trkpt lat="43.79266" lon="0.94448">
        <ele>201.4</ele>
        <time>2017-03-22T13:26:59.000Z</time>
      </trkpt>
      <trkpt lat="43.79257" lon="0.94443">
        <ele>201.8</ele>
        <time>2017-03-22T13:27:8.000Z</time>
      </trkpt>
      <trkpt lat="43.7925" lon="0.94436">
        <ele>202</ele>
        <time>2017-03-22T13:27:16.000Z</time>
      </trkpt>
      <trkpt lat="43.79241" lon="0.94431">
        <ele>202</ele>
        <time>2017-03-22T13:27:23.000Z</time>
      </trkpt>
      <trkpt lat="43.79234" lon="0.94422">
        <ele>202</ele>
        <time>2017-03-22T13:27:30.000Z</time>
      </trkpt>
      <trkpt lat="43.79227" lon="0.94414">
        <ele>201.7</ele>
        <time>2017-03-22T13:27:39.000Z</time>
      </trkpt>
      <trkpt lat="43.79218" lon="0.94407">
        <ele>201.1</ele>
        <time>2017-03-22T13:27:47.000Z</time>
      </trkpt>
      <trkpt lat="43.7921" lon="0.944">
        <ele>200.2</ele>
        <time>2017-03-22T13:27:55.000Z</time>
      </trkpt>
      <trkpt lat="43.79202" lon="0.94394">
        <ele>199.4</ele>
        <time>2017-03-22T13:28:3.000Z</time>
      </trkpt>
      <trkpt lat="43.79195" lon="0.94385">
        <ele>198.6</ele>
        <time>2017-03-22T13:28:11.000Z</time>
      </trkpt>
      <trkpt lat="43.79187" lon="0.94377">
        <ele>198.1</ele>
        <time>2017-03-22T13:28:19.000Z</time>
      </trkpt>
      <trkpt lat="43.7918" lon="0.94368">
        <ele>197.7</ele>
        <time>2017-03-22T13:28:29.000Z</time>
      </trkpt>
      <trkpt lat="43.79172" lon="0.9436">
        <ele>197.5</ele>
        <time>2017-03-22T13:28:36.000Z</time>
      </trkpt>
      <trkpt lat="43.79163" lon="0.94352">
        <ele>197.3</ele>
        <time>2017-03-22T13:28:44.000Z</time>
      </trkpt>
      <trkpt lat="43.79155" lon="0.94346">
        <ele>197.3</ele>
        <time>2017-03-22T13:28:51.000Z</time>
      </trkpt>
      <trkpt lat="43.79147" lon="0.94339">
        <ele>197.7</ele>
        <time>2017-03-22T13:28:58.000Z</time>
      </trkpt>
      <trkpt lat="43.79139" lon="0.94332">
        <ele>198.4</ele>
        <time>2017-03-22T13:29:5.000Z</time>
      </trkpt>
      <trkpt lat="43.79132" lon="0.94324">
        <ele>199.3</ele>
        <time>2017-03-22T13:29:12.000Z</time>
      </trkpt>
      <trkpt lat="43.79124" lon="0.94316">
        <ele>200.2</ele>
        <time>2017-03-22T13:29:19.000Z</time>
      </trkpt>
      <trkpt lat="43.79116" lon="0.94308">
        <ele>201</ele>
        <time>2017-03-22T13:29:25.000Z</time>
      </trkpt>
      <trkpt lat="43.79108" lon="0.94301">
        <ele>201.8</ele>
        <time>2017-03-22T13:29:32.000Z</time>
      </trkpt>
      <trkpt lat="43.791" lon="0.94293">
        <ele>202.4</ele>
        <time>2017-03-22T13:29:40.000Z</time>
      </trkpt>
      <trkpt lat="43.79093" lon="0.94284">
        <ele>203</ele>
        <time>2017-03-22T13:29:48.000Z</time>
      </trkpt>
      <trkpt lat="43.79086" lon="0.94276">
        <ele>203.9</ele>
        <time>2017-03-22T13:29:59.000Z</time>
      </trkpt>
      <trkpt lat="43.79078" lon="0.94269">
        <ele>204.4</ele>
        <time>2017-03-22T13:30:5.000Z</time>
      </trkpt>
      <trkpt lat="43.7907" lon="0.94262">
        <ele>204.7</ele>
        <time>2017-03-22T13:30:11.000Z</time>
      </trkpt>
      <trkpt lat="43.79063" lon="0.94254">
        <ele>205.1</ele>
        <time>2017-03-22T13:30:17.000Z</time>
      </trkpt>
      <trkpt lat="43.79055" lon="0.94246">
        <ele>205.4</ele>
        <time>2017-03-22T13:30:25.000Z</time>
      </trkpt>
      <trkpt lat="43.79046" lon="0.94239">
        <ele>205.5</ele>
        <time>2017-03-22T13:30:31.000Z</time>
      </trkpt>
      <trkpt lat="43.79039" lon="0.94232">
        <ele>205.6</ele>
        <time>2017-03-22T13:30:36.000Z</time>
      </trkpt>
      <trkpt lat="43.79031" lon="0.94225">
        <ele>205.7</ele>
        <time>2017-03-22T13:30:43.000Z</time>
      </trkpt>
      <trkpt lat="43.79023" lon="0.94218">
        <ele>205.7</ele>
        <time>2017-03-22T13:30:52.000Z</time>
      </trkpt>
      <trkpt lat="43.79015" lon="0.94212">
        <ele>205.8</ele>
        <time>2017-03-22T13:30:59.000Z</time>
      </trkpt>
      <trkpt lat="43.79014" lon="0.94199">
        <ele>205.5</ele>
        <time>2017-03-22T13:31:25.000Z</time>
      </trkpt>
      <trkpt lat="43.79014" lon="0.94186">
        <ele>204.2</ele>
        <time>2017-03-22T13:33:53.000Z</time>
      </trkpt>
      <trkpt lat="43.7902" lon="0.94175">
        <ele>204.1</ele>
        <time>2017-03-22T13:34:4.000Z</time>
      </trkpt>
      <trkpt lat="43.79023" lon="0.94162">
        <ele>203.9</ele>
        <time>2017-03-22T13:34:12.000Z</time>
      </trkpt>
      <trkpt lat="43.79024" lon="0.94149">
        <ele>203.7</ele>
        <time>2017-03-22T13:34:20.000Z</time>
      </trkpt>
      <trkpt lat="43.79028" lon="0.94136">
        <ele>203.5</ele>
        <time>2017-03-22T13:34:29.000Z</time>
      </trkpt>
      <trkpt lat="43.79028" lon="0.94123">
        <ele>203.1</ele>
        <time>2017-03-22T13:34:37.000Z</time>
      </trkpt>
      <trkpt lat="43.79031" lon="0.9411">
        <ele>202.6</ele>
        <time>2017-03-22T13:34:45.000Z</time>
      </trkpt>
      <trkpt lat="43.79034" lon="0.94098">
        <ele>202.2</ele>
        <time>2017-03-22T13:34:53.000Z</time>
      </trkpt>
      <trkpt lat="43.79036" lon="0.94084">
        <ele>201.6</ele>
        <time>2017-03-22T13:35:2.000Z</time>
      </trkpt>
      <trkpt lat="43.79039" lon="0.94072">
        <ele>201.3</ele>
        <time>2017-03-22T13:35:10.000Z</time>
      </trkpt>
      <trkpt lat="43.79041" lon="0.94059">
        <ele>201</ele>
        <time>2017-03-22T13:35:18.000Z</time>
      </trkpt>
      <trkpt lat="43.79042" lon="0.94046">
        <ele>200.7</ele>
        <time>2017-03-22T13:35:27.000Z</time>
      </trkpt>
      <trkpt lat="43.79044" lon="0.94034">
        <ele>200.5</ele>
        <time>2017-03-22T13:35:34.000Z</time>
      </trkpt>
      <trkpt lat="43.79046" lon="0.9402">
        <ele>200.4</ele>
        <time>2017-03-22T13:35:43.000Z</time>
      </trkpt>
      <trkpt lat="43.79048" lon="0.94007">
        <ele>200.1</ele>
        <time>2017-03-22T13:35:51.000Z</time>
      </trkpt>
      <trkpt lat="43.79049" lon="0.93994">
        <ele>199.9</ele>
        <time>2017-03-22T13:35:59.000Z</time>
      </trkpt>
      <trkpt lat="43.79054" lon="0.93982">
        <ele>199.8</ele>
        <time>2017-03-22T13:36:7.000Z</time>
      </trkpt>
      <trkpt lat="43.79059" lon="0.93971">
        <ele>199.7</ele>
        <time>2017-03-22T13:36:15.000Z</time>
      </trkpt>
      <trkpt lat="43.79062" lon="0.93958">
        <ele>199.7</ele>
        <time>2017-03-22T13:36:25.000Z</time>
      </trkpt>
      <trkpt lat="43.79065" lon="0.93946">
        <ele>199.6</ele>
        <time>2017-03-22T13:36:34.000Z</time>
      </trkpt>
      <trkpt lat="43.79068" lon="0.93934">
        <ele>199.7</ele>
        <time>2017-03-22T13:36:42.000Z</time>
      </trkpt>
      <trkpt lat="43.79069" lon="0.9392">
        <ele>199.7</ele>
        <time>2017-03-22T13:36:50.000Z</time>
      </trkpt>
      <trkpt lat="43.79072" lon="0.93907">
        <ele>199.7</ele>
        <time>2017-03-22T13:36:58.000Z</time>
      </trkpt>
      <trkpt lat="43.79075" lon="0.93894">
        <ele>199.7</ele>
        <time>2017-03-22T13:37:7.000Z</time>
      </trkpt>
      <trkpt lat="43.79075" lon="0.93881">
        <ele>199.8</ele>
        <time>2017-03-22T13:37:15.000Z</time>
      </trkpt>
      <trkpt lat="43.79079" lon="0.93868">
        <ele>199.8</ele>
        <time>2017-03-22T13:37:23.000Z</time>
      </trkpt>
      <trkpt lat="43.79081" lon="0.93856">
        <ele>199.8</ele>
        <time>2017-03-22T13:37:31.000Z</time>
      </trkpt>
      <trkpt lat="43.79084" lon="0.93844">
        <ele>199.8</ele>
        <time>2017-03-22T13:37:39.000Z</time>
      </trkpt>
      <trkpt lat="43.79087" lon="0.9383">
        <ele>199.8</ele>
        <time>2017-03-22T13:37:47.000Z</time>
      </trkpt>
      <trkpt lat="43.7909" lon="0.93818">
        <ele>199.8</ele>
        <time>2017-03-22T13:37:55.000Z</time>
      </trkpt>
      <trkpt lat="43.79092" lon="0.93804">
        <ele>199.8</ele>
        <time>2017-03-22T13:38:4.000Z</time>
      </trkpt>
      <trkpt lat="43.79094" lon="0.93791">
        <ele>199.8</ele>
        <time>2017-03-22T13:38:12.000Z</time>
      </trkpt>
      <trkpt lat="43.79094" lon="0.93778">
        <ele>199.8</ele>
        <time>2017-03-22T13:38:21.000Z</time>
      </trkpt>
      <trkpt lat="43.79093" lon="0.93764">
        <ele>199.7</ele>
        <time>2017-03-22T13:38:29.000Z</time>
      </trkpt>
      <trkpt lat="43.79092" lon="0.93751">
        <ele>199.6</ele>
        <time>2017-03-22T13:38:36.000Z</time>
      </trkpt>
      <trkpt lat="43.79092" lon="0.93737">
        <ele>199.5</ele>
        <time>2017-03-22T13:38:45.000Z</time>
      </trkpt>
      <trkpt lat="43.79093" lon="0.93724">
        <ele>199.4</ele>
        <time>2017-03-22T13:38:54.000Z</time>
      </trkpt>
      <trkpt lat="43.79095" lon="0.93712">
        <ele>199.3</ele>
        <time>2017-03-22T13:39:2.000Z</time>
      </trkpt>
      <trkpt lat="43.79096" lon="0.93699">
        <ele>199.2</ele>
        <time>2017-03-22T13:39:10.000Z</time>
      </trkpt>
      <trkpt lat="43.79095" lon="0.93686">
        <ele>198.9</ele>
        <time>2017-03-22T13:39:18.000Z</time>
      </trkpt>
      <trkpt lat="43.79093" lon="0.93673">
        <ele>198.6</ele>
        <time>2017-03-22T13:39:26.000Z</time>
      </trkpt>
      <trkpt lat="43.79092" lon="0.9366">
        <ele>198</ele>
        <time>2017-03-22T13:39:34.000Z</time>
      </trkpt>
      <trkpt lat="43.79091" lon="0.93647">
        <ele>197.5</ele>
        <time>2017-03-22T13:39:43.000Z</time>
      </trkpt>
      <trkpt lat="43.7909" lon="0.93633">
        <ele>197.3</ele>
        <time>2017-03-22T13:39:51.000Z</time>
      </trkpt>
      <trkpt lat="43.79091" lon="0.9362">
        <ele>197.1</ele>
        <time>2017-03-22T13:39:59.000Z</time>
      </trkpt>
      <trkpt lat="43.79092" lon="0.93606">
        <ele>197</ele>
        <time>2017-03-22T13:40:7.000Z</time>
      </trkpt>
      <trkpt lat="43.79093" lon="0.93593">
        <ele>196.8</ele>
        <time>2017-03-22T13:40:15.000Z</time>
      </trkpt>
      <trkpt lat="43.79095" lon="0.93581">
        <ele>196.3</ele>
        <time>2017-03-22T13:40:23.000Z</time>
      </trkpt>
      <trkpt lat="43.79095" lon="0.93567">
        <ele>195.9</ele>
        <time>2017-03-22T13:40:31.000Z</time>
      </trkpt>
      <trkpt lat="43.79096" lon="0.93554">
        <ele>195.7</ele>
        <time>2017-03-22T13:40:38.000Z</time>
      </trkpt>
      <trkpt lat="43.79097" lon="0.9354">
        <ele>195.6</ele>
        <time>2017-03-22T13:40:46.000Z</time>
      </trkpt>
      <trkpt lat="43.79099" lon="0.93526">
        <ele>195.5</ele>
        <time>2017-03-22T13:40:53.000Z</time>
      </trkpt>
      <trkpt lat="43.79102" lon="0.93513">
        <ele>195.2</ele>
        <time>2017-03-22T13:41:0.000Z</time>
      </trkpt>
      <trkpt lat="43.79104" lon="0.935">
        <ele>194.7</ele>
        <time>2017-03-22T13:41:7.000Z</time>
      </trkpt>
      <trkpt lat="43.79108" lon="0.93487">
        <ele>194.3</ele>
        <time>2017-03-22T13:41:15.000Z</time>
      </trkpt>
      <trkpt lat="43.79111" lon="0.93474">
        <ele>193.9</ele>
        <time>2017-03-22T13:41:23.000Z</time>
      </trkpt>
      <trkpt lat="43.79113" lon="0.93461">
        <ele>193.7</ele>
        <time>2017-03-22T13:41:32.000Z</time>
      </trkpt>
      <trkpt lat="43.79114" lon="0.93448">
        <ele>193.6</ele>
        <time>2017-03-22T13:41:40.000Z</time>
      </trkpt>
      <trkpt lat="43.79116" lon="0.93434">
        <ele>193.4</ele>
        <time>2017-03-22T13:41:49.000Z</time>
      </trkpt>
      <trkpt lat="43.79119" lon="0.93422">
        <ele>193.2</ele>
        <time>2017-03-22T13:41:57.000Z</time>
      </trkpt>
      <trkpt lat="43.79122" lon="0.9341">
        <ele>193.1</ele>
        <time>2017-03-22T13:42:5.000Z</time>
      </trkpt>
      <trkpt lat="43.79125" lon="0.93397">
        <ele>192.9</ele>
        <time>2017-03-22T13:42:13.000Z</time>
      </trkpt>
      <trkpt lat="43.79127" lon="0.93383">
        <ele>192.5</ele>
        <time>2017-03-22T13:42:22.000Z</time>
      </trkpt>
      <trkpt lat="43.79129" lon="0.93371">
        <ele>191.9</ele>
        <time>2017-03-22T13:42:30.000Z</time>
      </trkpt>
      <trkpt lat="43.79131" lon="0.93359">
        <ele>191.6</ele>
        <time>2017-03-22T13:42:37.000Z</time>
      </trkpt>
      <trkpt lat="43.79135" lon="0.93347">
        <ele>191.3</ele>
        <time>2017-03-22T13:42:45.000Z</time>
      </trkpt>
      <trkpt lat="43.79138" lon="0.93334">
        <ele>191.2</ele>
        <time>2017-03-22T13:42:52.000Z</time>
      </trkpt>
      <trkpt lat="43.7914" lon="0.93322">
        <ele>191</ele>
        <time>2017-03-22T13:43:0.000Z</time>
      </trkpt>
      <trkpt lat="43.79143" lon="0.93308">
        <ele>190.6</ele>
        <time>2017-03-22T13:43:8.000Z</time>
      </trkpt>
      <trkpt lat="43.79144" lon="0.93294">
        <ele>190.4</ele>
        <time>2017-03-22T13:43:17.000Z</time>
      </trkpt>
      <trkpt lat="43.79147" lon="0.93281">
        <ele>190.2</ele>
        <time>2017-03-22T13:43:24.000Z</time>
      </trkpt>
      <trkpt lat="43.7915" lon="0.93268">
        <ele>190</ele>
        <time>2017-03-22T13:43:33.000Z</time>
      </trkpt>
      <trkpt lat="43.79154" lon="0.93256">
        <ele>189.8</ele>
        <time>2017-03-22T13:43:41.000Z</time>
      </trkpt>
      <trkpt lat="43.79157" lon="0.93243">
        <ele>189.7</ele>
        <time>2017-03-22T13:43:49.000Z</time>
      </trkpt>
      <trkpt lat="43.79161" lon="0.93231">
        <ele>189.1</ele>
        <time>2017-03-22T13:43:57.000Z</time>
      </trkpt>
      <trkpt lat="43.79164" lon="0.93218">
        <ele>188.5</ele>
        <time>2017-03-22T13:44:4.000Z</time>
      </trkpt>
      <trkpt lat="43.79167" lon="0.93205">
        <ele>187.6</ele>
        <time>2017-03-22T13:44:12.000Z</time>
      </trkpt>
      <trkpt lat="43.7917" lon="0.93191">
        <ele>186.8</ele>
        <time>2017-03-22T13:44:20.000Z</time>
      </trkpt>
      <trkpt lat="43.79174" lon="0.93179">
        <ele>186</ele>
        <time>2017-03-22T13:44:29.000Z</time>
      </trkpt>
      <trkpt lat="43.79177" lon="0.93166">
        <ele>185.2</ele>
        <time>2017-03-22T13:44:38.000Z</time>
      </trkpt>
      <trkpt lat="43.7918" lon="0.93153">
        <ele>184.5</ele>
        <time>2017-03-22T13:44:47.000Z</time>
      </trkpt>
      <trkpt lat="43.79183" lon="0.93141">
        <ele>183.8</ele>
        <time>2017-03-22T13:44:55.000Z</time>
      </trkpt>
      <trkpt lat="43.79186" lon="0.93129">
        <ele>183.4</ele>
        <time>2017-03-22T13:45:3.000Z</time>
      </trkpt>
      <trkpt lat="43.79188" lon="0.93117">
        <ele>182.6</ele>
        <time>2017-03-22T13:45:12.000Z</time>
      </trkpt>
      <trkpt lat="43.79189" lon="0.93103">
        <ele>182</ele>
        <time>2017-03-22T13:45:21.000Z</time>
      </trkpt>
      <trkpt lat="43.79194" lon="0.93091">
        <ele>181.4</ele>
        <time>2017-03-22T13:45:31.000Z</time>
      </trkpt>
      <trkpt lat="43.79195" lon="0.93077">
        <ele>181.1</ele>
        <time>2017-03-22T13:45:40.000Z</time>
      </trkpt>
      <trkpt lat="43.79198" lon="0.93064">
        <ele>181</ele>
        <time>2017-03-22T13:45:48.000Z</time>
      </trkpt>
      <trkpt lat="43.79203" lon="0.93052">
        <ele>180.9</ele>
        <time>2017-03-22T13:45:56.000Z</time>
      </trkpt>
      <trkpt lat="43.79206" lon="0.9304">
        <ele>180.8</ele>
        <time>2017-03-22T13:46:3.000Z</time>
      </trkpt>
      <trkpt lat="43.79208" lon="0.93027">
        <ele>180.8</ele>
        <time>2017-03-22T13:46:9.000Z</time>
      </trkpt>
      <trkpt lat="43.7921" lon="0.93014">
        <ele>180.7</ele>
        <time>2017-03-22T13:46:16.000Z</time>
      </trkpt>
      <trkpt lat="43.79212" lon="0.93001">
        <ele>180.5</ele>
        <time>2017-03-22T13:46:23.000Z</time>
      </trkpt>
      <trkpt lat="43.79215" lon="0.92988">
        <ele>180.3</ele>
        <time>2017-03-22T13:46:29.000Z</time>
      </trkpt>
      <trkpt lat="43.79209" lon="0.92999">
        <ele>180</ele>
        <time>2017-03-22T13:46:42.000Z</time>
      </trkpt>
      <trkpt lat="43.79206" lon="0.93011">
        <ele>179.8</ele>
        <time>2017-03-22T13:46:51.000Z</time>
      </trkpt>
      <trkpt lat="43.79201" lon="0.93024">
        <ele>179.6</ele>
        <time>2017-03-22T13:47:6.000Z</time>
      </trkpt>
      <trkpt lat="43.79192" lon="0.93028">
        <ele>179.6</ele>
        <time>2017-03-22T13:47:17.000Z</time>
      </trkpt>
      <trkpt lat="43.79182" lon="0.93028">
        <ele>179.5</ele>
        <time>2017-03-22T13:47:27.000Z</time>
      </trkpt>
      <trkpt lat="43.79173" lon="0.93027">
        <ele>179.3</ele>
        <time>2017-03-22T13:47:36.000Z</time>
      </trkpt>
      <trkpt lat="43.79163" lon="0.93025">
        <ele>179.2</ele>
        <time>2017-03-22T13:47:45.000Z</time>
      </trkpt>
      <trkpt lat="43.79154" lon="0.93024">
        <ele>179</ele>
        <time>2017-03-22T13:47:54.000Z</time>
      </trkpt>
      <trkpt lat="43.79145" lon="0.93021">
        <ele>179</ele>
        <time>2017-03-22T13:48:2.000Z</time>
      </trkpt>
      <trkpt lat="43.79136" lon="0.93018">
        <ele>179.1</ele>
        <time>2017-03-22T13:48:11.000Z</time>
      </trkpt>
      <trkpt lat="43.79126" lon="0.93016">
        <ele>179.2</ele>
        <time>2017-03-22T13:48:18.000Z</time>
      </trkpt>
      <trkpt lat="43.79116" lon="0.93014">
        <ele>179.2</ele>
        <time>2017-03-22T13:48:26.000Z</time>
      </trkpt>
      <trkpt lat="43.79107" lon="0.93012">
        <ele>179.2</ele>
        <time>2017-03-22T13:48:36.000Z</time>
      </trkpt>
      <trkpt lat="43.79098" lon="0.93009">
        <ele>179.7</ele>
        <time>2017-03-22T13:49:20.000Z</time>
      </trkpt>
      <trkpt lat="43.79089" lon="0.93007">
        <ele>179.6</ele>
        <time>2017-03-22T13:49:29.000Z</time>
      </trkpt>
      <trkpt lat="43.79079" lon="0.93008">
        <ele>179.7</ele>
        <time>2017-03-22T13:49:41.000Z</time>
      </trkpt>
      <trkpt lat="43.79068" lon="0.93006">
        <ele>179.9</ele>
        <time>2017-03-22T13:49:49.000Z</time>
      </trkpt>
      <trkpt lat="43.79059" lon="0.93003">
        <ele>180.3</ele>
        <time>2017-03-22T13:49:57.000Z</time>
      </trkpt>
      <trkpt lat="43.79049" lon="0.93001">
        <ele>180.6</ele>
        <time>2017-03-22T13:50:5.000Z</time>
      </trkpt>
      <trkpt lat="43.79039" lon="0.93002">
        <ele>180.9</ele>
        <time>2017-03-22T13:50:15.000Z</time>
      </trkpt>
      <trkpt lat="43.7903" lon="0.93003">
        <ele>180.9</ele>
        <time>2017-03-22T13:50:22.000Z</time>
      </trkpt>
      <trkpt lat="43.79021" lon="0.93005">
        <ele>180.7</ele>
        <time>2017-03-22T13:50:29.000Z</time>
      </trkpt>
      <trkpt lat="43.79011" lon="0.93005">
        <ele>180.4</ele>
        <time>2017-03-22T13:50:35.000Z</time>
      </trkpt>
      <trkpt lat="43.79001" lon="0.93005">
        <ele>179.9</ele>
        <time>2017-03-22T13:50:42.000Z</time>
      </trkpt>
      <trkpt lat="43.78991" lon="0.93007">
        <ele>179.3</ele>
        <time>2017-03-22T13:50:50.000Z</time>
      </trkpt>
      <trkpt lat="43.78982" lon="0.93008">
        <ele>178.7</ele>
        <time>2017-03-22T13:50:57.000Z</time>
      </trkpt>
      <trkpt lat="43.78972" lon="0.9301">
        <ele>177.8</ele>
        <time>2017-03-22T13:51:6.000Z</time>
      </trkpt>
      <trkpt lat="43.78963" lon="0.93013">
        <ele>177</ele>
        <time>2017-03-22T13:51:14.000Z</time>
      </trkpt>
      <trkpt lat="43.78953" lon="0.93016">
        <ele>176.1</ele>
        <time>2017-03-22T13:51:22.000Z</time>
      </trkpt>
      <trkpt lat="43.78942" lon="0.93018">
        <ele>175.3</ele>
        <time>2017-03-22T13:51:30.000Z</time>
      </trkpt>
      <trkpt lat="43.78932" lon="0.93021">
        <ele>174.6</ele>
        <time>2017-03-22T13:51:38.000Z</time>
      </trkpt>
      <trkpt lat="43.78923" lon="0.93022">
        <ele>174</ele>
        <time>2017-03-22T13:51:45.000Z</time>
      </trkpt>
      <trkpt lat="43.78913" lon="0.93023">
        <ele>173.2</ele>
        <time>2017-03-22T13:51:54.000Z</time>
      </trkpt>
      <trkpt lat="43.78904" lon="0.93023">
        <ele>172.5</ele>
        <time>2017-03-22T13:52:1.000Z</time>
      </trkpt>
      <trkpt lat="43.78894" lon="0.93024">
        <ele>171.9</ele>
        <time>2017-03-22T13:52:9.000Z</time>
      </trkpt>
      <trkpt lat="43.78884" lon="0.93024">
        <ele>171.4</ele>
        <time>2017-03-22T13:52:17.000Z</time>
      </trkpt>
      <trkpt lat="43.78875" lon="0.93024">
        <ele>170.8</ele>
        <time>2017-03-22T13:52:25.000Z</time>
      </trkpt>
      <trkpt lat="43.78866" lon="0.93024">
        <ele>170.3</ele>
        <time>2017-03-22T13:52:33.000Z</time>
      </trkpt>
      <trkpt lat="43.78857" lon="0.9302">
        <ele>169.7</ele>
        <time>2017-03-22T13:52:46.000Z</time>
      </trkpt>
      <trkpt lat="43.78867" lon="0.93013">
        <ele>167.1</ele>
        <time>2017-03-22T13:53:35.000Z</time>
      </trkpt>
      <trkpt lat="43.78875" lon="0.93009">
        <ele>166</ele>
        <time>2017-03-22T13:53:51.000Z</time>
      </trkpt>
      <trkpt lat="43.78885" lon="0.93007">
        <ele>164.9</ele>
        <time>2017-03-22T13:54:4.000Z</time>
      </trkpt>
      <trkpt lat="43.78894" lon="0.93003">
        <ele>162.9</ele>
        <time>2017-03-22T13:54:19.000Z</time>
      </trkpt>
      <trkpt lat="43.78903" lon="0.93">
        <ele>161.9</ele>
        <time>2017-03-22T13:54:28.000Z</time>
      </trkpt>
      <trkpt lat="43.78912" lon="0.92998">
        <ele>161.1</ele>
        <time>2017-03-22T13:54:40.000Z</time>
      </trkpt>
      <trkpt lat="43.78912" lon="0.92985">
        <ele>157.8</ele>
        <time>2017-03-22T13:56:13.000Z</time>
      </trkpt>
      <trkpt lat="43.78902" lon="0.92982">
        <ele>157</ele>
        <time>2017-03-22T13:56:26.000Z</time>
      </trkpt>
      <trkpt lat="43.78893" lon="0.92977">
        <ele>155.8</ele>
        <time>2017-03-22T13:56:37.000Z</time>
      </trkpt>
      <trkpt lat="43.78885" lon="0.92972">
        <ele>154.8</ele>
        <time>2017-03-22T13:56:45.000Z</time>
      </trkpt>
      <trkpt lat="43.78876" lon="0.92968">
        <ele>152.9</ele>
        <time>2017-03-22T13:56:58.000Z</time>
      </trkpt>
      <trkpt lat="43.7887" lon="0.92957">
        <ele>151.1</ele>
        <time>2017-03-22T13:57:10.000Z</time>
      </trkpt>
      <trkpt lat="43.78865" lon="0.92945">
        <ele>148.9</ele>
        <time>2017-03-22T13:57:20.000Z</time>
      </trkpt>
      <trkpt lat="43.7886" lon="0.92935">
        <ele>146.9</ele>
        <time>2017-03-22T13:57:28.000Z</time>
      </trkpt>
      <trkpt lat="43.78855" lon="0.92924">
        <ele>144.2</ele>
        <time>2017-03-22T13:57:38.000Z</time>
      </trkpt>
      <trkpt lat="43.78852" lon="0.92911">
        <ele>141.9</ele>
        <time>2017-03-22T13:57:48.000Z</time>
      </trkpt>
      <trkpt lat="43.7885" lon="0.92899">
        <ele>140.5</ele>
        <time>2017-03-22T13:57:55.000Z</time>
      </trkpt>
      <trkpt lat="43.78849" lon="0.92886">
        <ele>138.6</ele>
        <time>2017-03-22T13:58:5.000Z</time>
      </trkpt>
      <trkpt lat="43.78847" lon="0.92872">
        <ele>136.9</ele>
        <time>2017-03-22T13:58:14.000Z</time>
      </trkpt>
      <trkpt lat="43.78845" lon="0.92859">
        <ele>134.3</ele>
        <time>2017-03-22T13:58:25.000Z</time>
      </trkpt>
      <trkpt lat="43.78843" lon="0.92847">
        <ele>131.3</ele>
        <time>2017-03-22T13:58:36.000Z</time>
      </trkpt>
      <trkpt lat="43.7884" lon="0.92834">
        <ele>129.4</ele>
        <time>2017-03-22T13:58:47.000Z</time>
      </trkpt>
      <trkpt lat="43.78836" lon="0.92822">
        <ele>128.2</ele>
        <time>2017-03-22T13:58:56.000Z</time>
      </trkpt>
      <trkpt lat="43.78831" lon="0.9281">
        <ele>127.5</ele>
        <time>2017-03-22T13:59:4.000Z</time>
      </trkpt>
      <trkpt lat="43.78827" lon="0.92798">
        <ele>126.9</ele>
        <time>2017-03-22T13:59:12.000Z</time>
      </trkpt>
      <trkpt lat="43.78822" lon="0.92786">
        <ele>126.4</ele>
        <time>2017-03-22T13:59:20.000Z</time>
      </trkpt>
      <trkpt lat="43.78813" lon="0.92784">
        <ele>125.7</ele>
        <time>2017-03-22T13:59:30.000Z</time>
      </trkpt>
      <trkpt lat="43.78804" lon="0.92787">
        <ele>125.2</ele>
        <time>2017-03-22T13:59:37.000Z</time>
      </trkpt>
      <trkpt lat="43.78795" lon="0.92789">
        <ele>124.6</ele>
        <time>2017-03-22T13:59:44.000Z</time>
      </trkpt>
      <trkpt lat="43.78786" lon="0.9279">
        <ele>124.1</ele>
        <time>2017-03-22T13:59:53.000Z</time>
      </trkpt>
      <trkpt lat="43.78777" lon="0.92791">
        <ele>123.7</ele>
        <time>2017-03-22T14:00:2.000Z</time>
      </trkpt>
      <trkpt lat="43.78767" lon="0.92791">
        <ele>123.4</ele>
        <time>2017-03-22T14:00:12.000Z</time>
      </trkpt>
      <trkpt lat="43.78757" lon="0.92792">
        <ele>123.2</ele>
        <time>2017-03-22T14:00:20.000Z</time>
      </trkpt>
      <trkpt lat="43.78747" lon="0.92792">
        <ele>123.2</ele>
        <time>2017-03-22T14:00:27.000Z</time>
      </trkpt>
      <trkpt lat="43.78737" lon="0.92794">
        <ele>123.1</ele>
        <time>2017-03-22T14:00:35.000Z</time>
      </trkpt>
      <trkpt lat="43.78727" lon="0.92796">
        <ele>123.1</ele>
        <time>2017-03-22T14:00:42.000Z</time>
      </trkpt>
      <trkpt lat="43.78717" lon="0.928">
        <ele>123.1</ele>
        <time>2017-03-22T14:00:51.000Z</time>
      </trkpt>
      <trkpt lat="43.78708" lon="0.928">
        <ele>123.2</ele>
        <time>2017-03-22T14:00:59.000Z</time>
      </trkpt>
      <trkpt lat="43.78699" lon="0.92798">
        <ele>123.4</ele>
        <time>2017-03-22T14:01:7.000Z</time>
      </trkpt>
      <trkpt lat="43.7869" lon="0.92798">
        <ele>123.5</ele>
        <time>2017-03-22T14:01:15.000Z</time>
      </trkpt>
      <trkpt lat="43.78681" lon="0.92798">
        <ele>123.4</ele>
        <time>2017-03-22T14:01:23.000Z</time>
      </trkpt>
      <trkpt lat="43.78668" lon="0.92795">
        <ele>121.8</ele>
        <time>2017-03-22T14:02:9.000Z</time>
      </trkpt>
      <trkpt lat="43.78659" lon="0.92798">
        <ele>121.4</ele>
        <time>2017-03-22T14:02:18.000Z</time>
      </trkpt>
      <trkpt lat="43.7865" lon="0.92795">
        <ele>120.9</ele>
        <time>2017-03-22T14:02:27.000Z</time>
      </trkpt>
      <trkpt lat="43.7864" lon="0.92794">
        <ele>120.6</ele>
        <time>2017-03-22T14:02:36.000Z</time>
      </trkpt>
      <trkpt lat="43.78631" lon="0.9279">
        <ele>120.8</ele>
        <time>2017-03-22T14:02:45.000Z</time>
      </trkpt>
      <trkpt lat="43.78621" lon="0.92788">
        <ele>120.9</ele>
        <time>2017-03-22T14:02:53.000Z</time>
      </trkpt>
      <trkpt lat="43.78611" lon="0.92785">
        <ele>121</ele>
        <time>2017-03-22T14:03:1.000Z</time>
      </trkpt>
      <trkpt lat="43.78601" lon="0.9278">
        <ele>121</ele>
        <time>2017-03-22T14:03:9.000Z</time>
      </trkpt>
      <trkpt lat="43.78592" lon="0.92777">
        <ele>121</ele>
        <time>2017-03-22T14:03:17.000Z</time>
      </trkpt>
      <trkpt lat="43.78582" lon="0.92774">
        <ele>120.9</ele>
        <time>2017-03-22T14:03:26.000Z</time>
      </trkpt>
      <trkpt lat="43.78573" lon="0.92772">
        <ele>120.8</ele>
        <time>2017-03-22T14:03:34.000Z</time>
      </trkpt>
      <trkpt lat="43.78564" lon="0.92769">
        <ele>120.6</ele>
        <time>2017-03-22T14:03:41.000Z</time>
      </trkpt>
      <trkpt lat="43.78555" lon="0.92766">
        <ele>120.4</ele>
        <time>2017-03-22T14:03:48.000Z</time>
      </trkpt>
      <trkpt lat="43.78545" lon="0.92765">
        <ele>120.2</ele>
        <time>2017-03-22T14:03:55.000Z</time>
      </trkpt>
      <trkpt lat="43.78536" lon="0.92763">
        <ele>120.1</ele>
        <time>2017-03-22T14:04:3.000Z</time>
      </trkpt>
      <trkpt lat="43.78526" lon="0.92758">
        <ele>119.9</ele>
        <time>2017-03-22T14:04:12.000Z</time>
      </trkpt>
      <trkpt lat="43.78517" lon="0.92756">
        <ele>119.8</ele>
        <time>2017-03-22T14:04:20.000Z</time>
      </trkpt>
      <trkpt lat="43.78508" lon="0.92752">
        <ele>119.8</ele>
        <time>2017-03-22T14:04:27.000Z</time>
      </trkpt>
      <trkpt lat="43.78498" lon="0.9275">
        <ele>119.8</ele>
        <time>2017-03-22T14:04:34.000Z</time>
      </trkpt>
      <trkpt lat="43.78489" lon="0.92747">
        <ele>119.7</ele>
        <time>2017-03-22T14:04:42.000Z</time>
      </trkpt>
      <trkpt lat="43.78479" lon="0.92745">
        <ele>119.8</ele>
        <time>2017-03-22T14:04:51.000Z</time>
      </trkpt>
      <trkpt lat="43.78469" lon="0.92743">
        <ele>119.8</ele>
        <time>2017-03-22T14:04:59.000Z</time>
      </trkpt>
      <trkpt lat="43.7846" lon="0.9274">
        <ele>119.8</ele>
        <time>2017-03-22T14:05:6.000Z</time>
      </trkpt>
      <trkpt lat="43.78451" lon="0.92736">
        <ele>120</ele>
        <time>2017-03-22T14:05:14.000Z</time>
      </trkpt>
      <trkpt lat="43.78442" lon="0.92733">
        <ele>120</ele>
        <time>2017-03-22T14:05:21.000Z</time>
      </trkpt>
      <trkpt lat="43.78433" lon="0.92729">
        <ele>119.8</ele>
        <time>2017-03-22T14:05:29.000Z</time>
      </trkpt>
      <trkpt lat="43.78423" lon="0.92728">
        <ele>119.6</ele>
        <time>2017-03-22T14:05:36.000Z</time>
      </trkpt>
      <trkpt lat="43.78414" lon="0.92725">
        <ele>119</ele>
        <time>2017-03-22T14:05:59.000Z</time>
      </trkpt>
      <trkpt lat="43.78404" lon="0.9273">
        <ele>118.9</ele>
        <time>2017-03-22T14:06:8.000Z</time>
      </trkpt>
      <trkpt lat="43.78395" lon="0.92733">
        <ele>118.7</ele>
        <time>2017-03-22T14:06:16.000Z</time>
      </trkpt>
      <trkpt lat="43.78386" lon="0.92736">
        <ele>118.5</ele>
        <time>2017-03-22T14:06:24.000Z</time>
      </trkpt>
      <trkpt lat="43.78377" lon="0.92739">
        <ele>118.4</ele>
        <time>2017-03-22T14:06:31.000Z</time>
      </trkpt>
      <trkpt lat="43.78367" lon="0.92742">
        <ele>118.2</ele>
        <time>2017-03-22T14:06:38.000Z</time>
      </trkpt>
      <trkpt lat="43.78357" lon="0.92745">
        <ele>118.1</ele>
        <time>2017-03-22T14:06:46.000Z</time>
      </trkpt>
      <trkpt lat="43.78347" lon="0.92748">
        <ele>118.2</ele>
        <time>2017-03-22T14:06:54.000Z</time>
      </trkpt>
      <trkpt lat="43.78337" lon="0.92749">
        <ele>118.2</ele>
        <time>2017-03-22T14:07:2.000Z</time>
      </trkpt>
      <trkpt lat="43.78328" lon="0.9275">
        <ele>118.3</ele>
        <time>2017-03-22T14:07:11.000Z</time>
      </trkpt>
      <trkpt lat="43.78319" lon="0.92753">
        <ele>118.6</ele>
        <time>2017-03-22T14:07:19.000Z</time>
      </trkpt>
      <trkpt lat="43.7831" lon="0.92757">
        <ele>118.9</ele>
        <time>2017-03-22T14:07:27.000Z</time>
      </trkpt>
      <trkpt lat="43.783" lon="0.92758">
        <ele>119.3</ele>
        <time>2017-03-22T14:07:34.000Z</time>
      </trkpt>
      <trkpt lat="43.7829" lon="0.92761">
        <ele>119.8</ele>
        <time>2017-03-22T14:07:41.000Z</time>
      </trkpt>
      <trkpt lat="43.7828" lon="0.92764">
        <ele>120.3</ele>
        <time>2017-03-22T14:07:49.000Z</time>
      </trkpt>
      <trkpt lat="43.78271" lon="0.92766">
        <ele>121.1</ele>
        <time>2017-03-22T14:07:57.000Z</time>
      </trkpt>
      <trkpt lat="43.78261" lon="0.92767">
        <ele>121.8</ele>
        <time>2017-03-22T14:08:5.000Z</time>
      </trkpt>
      <trkpt lat="43.78251" lon="0.92769">
        <ele>122.6</ele>
        <time>2017-03-22T14:08:13.000Z</time>
      </trkpt>
      <trkpt lat="43.78242" lon="0.92771">
        <ele>123.5</ele>
        <time>2017-03-22T14:08:22.000Z</time>
      </trkpt>
      <trkpt lat="43.78232" lon="0.92774">
        <ele>124.6</ele>
        <time>2017-03-22T14:08:34.000Z</time>
      </trkpt>
      <trkpt lat="43.78222" lon="0.92778">
        <ele>125.7</ele>
        <time>2017-03-22T14:08:44.000Z</time>
      </trkpt>
      <trkpt lat="43.78213" lon="0.92781">
        <ele>126.7</ele>
        <time>2017-03-22T14:08:54.000Z</time>
      </trkpt>
      <trkpt lat="43.78204" lon="0.92782">
        <ele>127.8</ele>
        <time>2017-03-22T14:09:4.000Z</time>
      </trkpt>
      <trkpt lat="43.78192" lon="0.92786">
        <ele>129.3</ele>
        <time>2017-03-22T14:11:46.000Z</time>
      </trkpt>
      <trkpt lat="43.78183" lon="0.9279">
        <ele>129</ele>
        <time>2017-03-22T14:11:56.000Z</time>
      </trkpt>
      <trkpt lat="43.78174" lon="0.92795">
        <ele>128.1</ele>
        <time>2017-03-22T14:12:6.000Z</time>
      </trkpt>
      <trkpt lat="43.78166" lon="0.92801">
        <ele>127.8</ele>
        <time>2017-03-22T14:12:13.000Z</time>
      </trkpt>
      <trkpt lat="43.78156" lon="0.92805">
        <ele>127.5</ele>
        <time>2017-03-22T14:12:21.000Z</time>
      </trkpt>
      <trkpt lat="43.78148" lon="0.92809">
        <ele>127.1</ele>
        <time>2017-03-22T14:12:29.000Z</time>
      </trkpt>
      <trkpt lat="43.7814" lon="0.92816">
        <ele>126.5</ele>
        <time>2017-03-22T14:12:38.000Z</time>
      </trkpt>
      <trkpt lat="43.78131" lon="0.92823">
        <ele>126</ele>
        <time>2017-03-22T14:12:46.000Z</time>
      </trkpt>
      <trkpt lat="43.78122" lon="0.92829">
        <ele>125.3</ele>
        <time>2017-03-22T14:12:56.000Z</time>
      </trkpt>
      <trkpt lat="43.78114" lon="0.92833">
        <ele>124.8</ele>
        <time>2017-03-22T14:13:4.000Z</time>
      </trkpt>
      <trkpt lat="43.78105" lon="0.92838">
        <ele>124.3</ele>
        <time>2017-03-22T14:13:12.000Z</time>
      </trkpt>
      <trkpt lat="43.78097" lon="0.92845">
        <ele>123.8</ele>
        <time>2017-03-22T14:13:20.000Z</time>
      </trkpt>
      <trkpt lat="43.78087" lon="0.9285">
        <ele>123.2</ele>
        <time>2017-03-22T14:13:28.000Z</time>
      </trkpt>
      <trkpt lat="43.78079" lon="0.92857">
        <ele>122.4</ele>
        <time>2017-03-22T14:13:36.000Z</time>
      </trkpt>
      <trkpt lat="43.78072" lon="0.92865">
        <ele>121.2</ele>
        <time>2017-03-22T14:13:46.000Z</time>
      </trkpt>
      <trkpt lat="43.78063" lon="0.92873">
        <ele>120.4</ele>
        <time>2017-03-22T14:13:55.000Z</time>
      </trkpt>
      <trkpt lat="43.78055" lon="0.92878">
        <ele>119.7</ele>
        <time>2017-03-22T14:14:4.000Z</time>
      </trkpt>
      <trkpt lat="43.78048" lon="0.92891">
        <ele>119.2</ele>
        <time>2017-03-22T14:14:12.000Z</time>
      </trkpt>
      <trkpt lat="43.7804" lon="0.92899">
        <ele>118.7</ele>
        <time>2017-03-22T14:14:19.000Z</time>
      </trkpt>
      <trkpt lat="43.78033" lon="0.92907">
        <ele>118</ele>
        <time>2017-03-22T14:14:28.000Z</time>
      </trkpt>
      <trkpt lat="43.78026" lon="0.92916">
        <ele>117.4</ele>
        <time>2017-03-22T14:14:36.000Z</time>
      </trkpt>
      <trkpt lat="43.7802" lon="0.92925">
        <ele>116.8</ele>
        <time>2017-03-22T14:14:43.000Z</time>
      </trkpt>
      <trkpt lat="43.78012" lon="0.92934">
        <ele>116.2</ele>
        <time>2017-03-22T14:14:51.000Z</time>
      </trkpt>
      <trkpt lat="43.78005" lon="0.92942">
        <ele>115.7</ele>
        <time>2017-03-22T14:14:59.000Z</time>
      </trkpt>
      <trkpt lat="43.77998" lon="0.9295">
        <ele>115.4</ele>
        <time>2017-03-22T14:15:7.000Z</time>
      </trkpt>
      <trkpt lat="43.77991" lon="0.9296">
        <ele>115.2</ele>
        <time>2017-03-22T14:15:14.000Z</time>
      </trkpt>
      <trkpt lat="43.77983" lon="0.92967">
        <ele>115</ele>
        <time>2017-03-22T14:15:21.000Z</time>
      </trkpt>
      <trkpt lat="43.77975" lon="0.92973">
        <ele>114.7</ele>
        <time>2017-03-22T14:15:29.000Z</time>
      </trkpt>
      <trkpt lat="43.77967" lon="0.92979">
        <ele>114.6</ele>
        <time>2017-03-22T14:15:37.000Z</time>
      </trkpt>
      <trkpt lat="43.77959" lon="0.92985">
        <ele>114.4</ele>
        <time>2017-03-22T14:15:45.000Z</time>
      </trkpt>
      <trkpt lat="43.7795" lon="0.9299">
        <ele>114.1</ele>
        <time>2017-03-22T14:15:55.000Z</time>
      </trkpt>
      <trkpt lat="43.7794" lon="0.92995">
        <ele>113.9</ele>
        <time>2017-03-22T14:16:5.000Z</time>
      </trkpt>
      <trkpt lat="43.77931" lon="0.92999">
        <ele>113.9</ele>
        <time>2017-03-22T14:16:13.000Z</time>
      </trkpt>
      <trkpt lat="43.77922" lon="0.93005">
        <ele>113.8</ele>
        <time>2017-03-22T14:16:20.000Z</time>
      </trkpt>
      <trkpt lat="43.77913" lon="0.93011">
        <ele>113.7</ele>
        <time>2017-03-22T14:16:28.000Z</time>
      </trkpt>
      <trkpt lat="43.77904" lon="0.93014">
        <ele>113.7</ele>
        <time>2017-03-22T14:16:35.000Z</time>
      </trkpt>
      <trkpt lat="43.77896" lon="0.93021">
        <ele>113.5</ele>
        <time>2017-03-22T14:16:43.000Z</time>
      </trkpt>
      <trkpt lat="43.77887" lon="0.93025">
        <ele>113.4</ele>
        <time>2017-03-22T14:16:51.000Z</time>
      </trkpt>
      <trkpt lat="43.77878" lon="0.93029">
        <ele>113.3</ele>
        <time>2017-03-22T14:16:59.000Z</time>
      </trkpt>
      <trkpt lat="43.7787" lon="0.93036">
        <ele>113.2</ele>
        <time>2017-03-22T14:17:7.000Z</time>
      </trkpt>
      <trkpt lat="43.77861" lon="0.93043">
        <ele>113.1</ele>
        <time>2017-03-22T14:17:15.000Z</time>
      </trkpt>
      <trkpt lat="43.77852" lon="0.93048">
        <ele>113.1</ele>
        <time>2017-03-22T14:17:23.000Z</time>
      </trkpt>
      <trkpt lat="43.77842" lon="0.9305">
        <ele>113</ele>
        <time>2017-03-22T14:17:32.000Z</time>
      </trkpt>
      <trkpt lat="43.77834" lon="0.93056">
        <ele>113</ele>
        <time>2017-03-22T14:17:40.000Z</time>
      </trkpt>
      <trkpt lat="43.77826" lon="0.93061">
        <ele>113</ele>
        <time>2017-03-22T14:17:48.000Z</time>
      </trkpt>
      <trkpt lat="43.77818" lon="0.93068">
        <ele>113</ele>
        <time>2017-03-22T14:17:55.000Z</time>
      </trkpt>
      <trkpt lat="43.7781" lon="0.93072">
        <ele>112.7</ele>
        <time>2017-03-22T14:18:3.000Z</time>
      </trkpt>
      <trkpt lat="43.77801" lon="0.93077">
        <ele>112.5</ele>
        <time>2017-03-22T14:18:14.000Z</time>
      </trkpt>
      <trkpt lat="43.77792" lon="0.9308">
        <ele>112.4</ele>
        <time>2017-03-22T14:18:21.000Z</time>
      </trkpt>
      <trkpt lat="43.77783" lon="0.93084">
        <ele>112.2</ele>
        <time>2017-03-22T14:18:29.000Z</time>
      </trkpt>
      <trkpt lat="43.77773" lon="0.93087">
        <ele>112.1</ele>
        <time>2017-03-22T14:18:35.000Z</time>
      </trkpt>
      <trkpt lat="43.77765" lon="0.93092">
        <ele>112</ele>
        <time>2017-03-22T14:18:41.000Z</time>
      </trkpt>
      <trkpt lat="43.77756" lon="0.93098">
        <ele>112</ele>
        <time>2017-03-22T14:18:48.000Z</time>
      </trkpt>
      <trkpt lat="43.77748" lon="0.93103">
        <ele>112</ele>
        <time>2017-03-22T14:18:54.000Z</time>
      </trkpt>
      <trkpt lat="43.77741" lon="0.93114">
        <ele>112.2</ele>
        <time>2017-03-22T14:19:2.000Z</time>
      </trkpt>
      <trkpt lat="43.77734" lon="0.93122">
        <ele>112.4</ele>
        <time>2017-03-22T14:19:9.000Z</time>
      </trkpt>
      <trkpt lat="43.77726" lon="0.93131">
        <ele>112.5</ele>
        <time>2017-03-22T14:19:17.000Z</time>
      </trkpt>
      <trkpt lat="43.77717" lon="0.93139">
        <ele>112.7</ele>
        <time>2017-03-22T14:19:25.000Z</time>
      </trkpt>
      <trkpt lat="43.7771" lon="0.93147">
        <ele>112.9</ele>
        <time>2017-03-22T14:19:32.000Z</time>
      </trkpt>
      <trkpt lat="43.77702" lon="0.93153">
        <ele>113</ele>
        <time>2017-03-22T14:19:41.000Z</time>
      </trkpt>
      <trkpt lat="43.77693" lon="0.9316">
        <ele>113.1</ele>
        <time>2017-03-22T14:19:49.000Z</time>
      </trkpt>
      <trkpt lat="43.77684" lon="0.93167">
        <ele>113.1</ele>
        <time>2017-03-22T14:19:57.000Z</time>
      </trkpt>
      <trkpt lat="43.77676" lon="0.93172">
        <ele>113.1</ele>
        <time>2017-03-22T14:20:5.000Z</time>
      </trkpt>
      <trkpt lat="43.77667" lon="0.93177">
        <ele>113.1</ele>
        <time>2017-03-22T14:20:13.000Z</time>
      </trkpt>
      <trkpt lat="43.77658" lon="0.93183">
        <ele>113.1</ele>
        <time>2017-03-22T14:20:21.000Z</time>
      </trkpt>
      <trkpt lat="43.7765" lon="0.9319">
        <ele>113.1</ele>
        <time>2017-03-22T14:20:30.000Z</time>
      </trkpt>
      <trkpt lat="43.7764" lon="0.93196">
        <ele>113.1</ele>
        <time>2017-03-22T14:20:38.000Z</time>
      </trkpt>
      <trkpt lat="43.77631" lon="0.93199">
        <ele>113.1</ele>
        <time>2017-03-22T14:20:46.000Z</time>
      </trkpt>
      <trkpt lat="43.77621" lon="0.93204">
        <ele>113.1</ele>
        <time>2017-03-22T14:20:54.000Z</time>
      </trkpt>
      <trkpt lat="43.77612" lon="0.93208">
        <ele>112.7</ele>
        <time>2017-03-22T14:21:1.000Z</time>
      </trkpt>
      <trkpt lat="43.77603" lon="0.93204">
        <ele>112.3</ele>
        <time>2017-03-22T14:21:9.000Z</time>
      </trkpt>
      <trkpt lat="43.77596" lon="0.93197">
        <ele>111.2</ele>
        <time>2017-03-22T14:21:17.000Z</time>
      </trkpt>
      <trkpt lat="43.7759" lon="0.93187">
        <ele>109.9</ele>
        <time>2017-03-22T14:21:26.000Z</time>
      </trkpt>
      <trkpt lat="43.77583" lon="0.93178">
        <ele>109.5</ele>
        <time>2017-03-22T14:21:36.000Z</time>
      </trkpt>
      <trkpt lat="43.77577" lon="0.93166">
        <ele>109.1</ele>
        <time>2017-03-22T14:21:48.000Z</time>
      </trkpt>
      <trkpt lat="43.77571" lon="0.93156">
        <ele>108.8</ele>
        <time>2017-03-22T14:21:57.000Z</time>
      </trkpt>
      <trkpt lat="43.77565" lon="0.93146">
        <ele>108.6</ele>
        <time>2017-03-22T14:22:4.000Z</time>
      </trkpt>
      <trkpt lat="43.7756" lon="0.93136">
        <ele>108.4</ele>
        <time>2017-03-22T14:22:11.000Z</time>
      </trkpt>
      <trkpt lat="43.77555" lon="0.93124">
        <ele>108.3</ele>
        <time>2017-03-22T14:22:20.000Z</time>
      </trkpt>
      <trkpt lat="43.77549" lon="0.93114">
        <ele>108.2</ele>
        <time>2017-03-22T14:22:27.000Z</time>
      </trkpt>
      <trkpt lat="43.77544" lon="0.93103">
        <ele>108.2</ele>
        <time>2017-03-22T14:22:36.000Z</time>
      </trkpt>
      <trkpt lat="43.77537" lon="0.93094">
        <ele>108.3</ele>
        <time>2017-03-22T14:22:44.000Z</time>
      </trkpt>
      <trkpt lat="43.7753" lon="0.93086">
        <ele>108.5</ele>
        <time>2017-03-22T14:22:55.000Z</time>
      </trkpt>
      <trkpt lat="43.77523" lon="0.93078">
        <ele>108.7</ele>
        <time>2017-03-22T14:23:6.000Z</time>
      </trkpt>
      <trkpt lat="43.77515" lon="0.9307">
        <ele>108.9</ele>
        <time>2017-03-22T14:23:18.000Z</time>
      </trkpt>
      <trkpt lat="43.77507" lon="0.93061">
        <ele>109</ele>
        <time>2017-03-22T14:23:27.000Z</time>
      </trkpt>
      <trkpt lat="43.775" lon="0.93053">
        <ele>109</ele>
        <time>2017-03-22T14:23:33.000Z</time>
      </trkpt>
      <trkpt lat="43.77493" lon="0.93042">
        <ele>109</ele>
        <time>2017-03-22T14:23:41.000Z</time>
      </trkpt>
      <trkpt lat="43.77486" lon="0.93033">
        <ele>109.1</ele>
        <time>2017-03-22T14:23:49.000Z</time>
      </trkpt>
      <trkpt lat="43.77478" lon="0.93024">
        <ele>109</ele>
        <time>2017-03-22T14:23:58.000Z</time>
      </trkpt>
      <trkpt lat="43.77472" lon="0.93015">
        <ele>109</ele>
        <time>2017-03-22T14:24:8.000Z</time>
      </trkpt>
      <trkpt lat="43.77464" lon="0.93006">
        <ele>108.9</ele>
        <time>2017-03-22T14:24:18.000Z</time>
      </trkpt>
      <trkpt lat="43.77455" lon="0.93">
        <ele>108.8</ele>
        <time>2017-03-22T14:24:27.000Z</time>
      </trkpt>
      <trkpt lat="43.7745" lon="0.9299">
        <ele>108.7</ele>
        <time>2017-03-22T14:24:36.000Z</time>
      </trkpt>
      <trkpt lat="43.7744" lon="0.92985">
        <ele>108.7</ele>
        <time>2017-03-22T14:24:48.000Z</time>
      </trkpt>
      <trkpt lat="43.77432" lon="0.92978">
        <ele>108.7</ele>
        <time>2017-03-22T14:24:57.000Z</time>
      </trkpt>
      <trkpt lat="43.77424" lon="0.92972">
        <ele>109</ele>
        <time>2017-03-22T14:25:9.000Z</time>
      </trkpt>
      <trkpt lat="43.77414" lon="0.92968">
        <ele>109.2</ele>
        <time>2017-03-22T14:25:18.000Z</time>
      </trkpt>
      <trkpt lat="43.77408" lon="0.92959">
        <ele>109.4</ele>
        <time>2017-03-22T14:25:26.000Z</time>
      </trkpt>
      <trkpt lat="43.77399" lon="0.9296">
        <ele>109.5</ele>
        <time>2017-03-22T14:25:35.000Z</time>
      </trkpt>
      <trkpt lat="43.77396" lon="0.92961">
        <ele>110.3</ele>
        <time>2017-03-22T14:29:44.000Z</time>
      </trkpt>
    </trkseg>
  </trk>
</gpx>